[[{"header":{"parameterUnit":"m.s-1","parameterCategory":1,"la1":30.6,"la2":29.2853,"lo1":-89.7004,"lo2":-87.6739,"dy":0.0162,"dx":0.0183,"nx":112,"ny":82,"refTime":"2023-09-01T18:00:00:Z","depth":0,"parameterNumber":2,"parameterNumberName":"U-component_of_WINDS"},"data":[0.0,0.0,0.0,0.0,0.0,0.0,0.0,0.0,0.0,0.0,0.0,0.0,0.0,0.0,0.0,0.0,0.0,0.0,0.0,0.0,0.0,0.0,0.0,0.0,0.0,0.0,0.0,0.0,0.0,0.0,0.0,0.0,0.0,0.0,0.0,0.0,0.0,0.0,0.0,0.0,0.0,0.0,0.0,0.0,0.0,0.0,0.0,0.0,0.0,0.0,0.0,0.0,0.0,0.0,0.0,0.0,0.0,0.0,0.0,0.0,0.0,0.0,0.0,0.0,0.0,0.0,0.0,0.0,0.0,0.0,0.0,0.0,0.0,0.0,0.0,0.0,0.0,0.0,0.0,0.0,0.0,0.0,0.0,0.0,0.0,0.0,0.0,0.0,0.0,0.0,-1.2095,-1.2705,-1.3464,-1.3789,-1.3278,-1.2963,-1.2303,-1.1138,0.0,0.0,0.0,0.0,0.0,0.0,0.0,0.0,0.0,0.0,0.0,0.0,0.0,0.0,0.0,0.0,0.0,0.0,0.0,0.0,0.0,0.0,0.0,0.0,0.0,0.0,0.0,0.0,0.0,0.0,0.0,0.0,0.0,0.0,0.0,0.0,0.0,0.0,0.0,0.0,0.0,0.0,0.0,0.0,0.0,0.0,0.0,0.0,0.0,0.0,0.0,0.0,0.0,0.0,0.0,0.0,0.0,0.0,0.0,0.0,0.0,0.0,0.0,0.0,0.0,0.0,0.0,0.0,0.0,0.0,0.0,0.0,0.0,0.0,0.0,0.0,0.0,0.0,0.0,0.0,0.0,0.0,0.0,0.0,0.0,0.0,0.0,0.0,0.0,0.0,0.0,0.0,0.0,0.0,0.0,0.0,0.0,0.0,0.0,0.0,0.0,0.0,0.0,0.0,-1.1928,-1.2909,-1.3757,-1.4046,-1.3482,-1.3041,-1.2372,-1.1327,0.0,0.0,0.0,0.0,0.0,0.0,0.0,0.0,0.0,0.0,0.0,0.0,0.0,0.0,0.0,0.0,0.0,0.0,0.0,0.0,0.0,0.0,0.0,0.0,0.0,0.0,0.0,0.0,0.0,0.0,0.0,0.0,0.0,0.0,0.0,0.0,0.0,0.0,0.0,0.0,0.0,0.0,0.0,0.0,0.0,0.0,0.0,0.0,0.0,0.0,0.0,0.0,0.0,0.0,0.0,0.0,0.0,0.0,0.0,0.0,0.0,0.0,0.0,0.0,0.0,0.0,0.0,0.0,0.0,0.0,0.0,0.0,0.0,0.0,0.0,0.0,0.0,0.0,0.0,0.0,0.0,0.0,0.0,0.0,0.0,0.0,0.0,0.0,0.0,0.0,0.0,0.0,0.0,0.0,0.0,0.0,0.0,0.0,0.0,0.0,0.0,0.0,0.0,-1.2083,-1.2524,-1.3447,-1.3996,-1.416,-1.3732,-1.317,-1.2428,-1.1586,-1.1082,0.0,0.0,0.0,0.0,0.0,0.0,0.0,0.0,0.0,0.0,0.0,0.0,0.0,0.0,0.0,0.0,0.0,0.0,0.0,0.0,0.0,0.0,0.0,0.0,0.0,0.0,0.0,0.0,0.0,0.0,0.0,0.0,0.0,0.0,0.0,0.0,0.0,0.0,0.0,0.0,0.0,0.0,0.0,0.0,0.0,0.0,0.0,0.0,0.0,0.0,0.0,0.0,0.0,0.0,0.0,0.0,0.0,0.0,0.0,0.0,0.0,0.0,0.0,0.0,0.0,0.0,0.0,0.0,0.0,0.0,0.0,0.0,0.0,0.0,0.0,0.0,0.0,0.0,0.0,0.0,0.0,0.0,0.0,0.0,0.0,0.0,0.0,0.0,0.0,0.0,0.0,0.0,0.0,0.0,0.0,0.0,0.0,0.0,0.0,0.0,0.0,0.0,-1.2723,-1.3085,-1.3827,-1.4141,-1.4202,-1.3931,-1.3211,-1.25,-1.1742,-1.1007,0.0,0.0,0.0,0.0,0.0,0.0,0.0,0.0,0.0,0.0,0.0,0.0,0.0,0.0,0.0,0.0,0.0,0.0,0.0,0.0,0.0,0.0,0.0,0.0,0.0,0.0,0.0,0.0,0.0,0.0,0.0,0.0,0.0,0.0,0.0,0.0,0.0,0.0,0.0,0.0,0.0,0.0,0.0,0.0,0.0,0.0,0.0,0.0,0.0,0.0,0.0,0.0,0.0,0.0,0.0,0.0,0.0,0.0,0.0,0.0,0.0,0.0,0.0,0.0,0.0,0.0,0.0,0.0,0.0,0.0,0.0,0.0,0.0,0.0,0.0,0.0,0.0,0.0,0.0,0.0,0.0,0.0,0.0,0.0,0.0,0.0,0.0,0.0,0.0,0.0,0.0,0.0,0.0,0.0,0.0,0.0,0.0,0.0,0.0,0.0,0.0,0.0,-1.2783,-1.3258,-1.3845,-1.4141,-1.4202,-1.3931,-1.3232,-1.2499,-1.1736,-1.1017,0.0,0.0,0.0,0.0,0.0,0.0,0.0,0.0,0.0,0.0,0.0,0.0,0.0,0.0,0.0,0.0,0.0,0.0,0.0,0.0,0.0,0.0,0.0,0.0,0.0,0.0,0.0,0.0,0.0,0.0,0.0,0.0,0.0,0.0,0.0,0.0,0.0,0.0,0.0,0.0,0.0,0.0,0.0,0.0,0.0,0.0,0.0,0.0,0.0,0.0,0.0,0.0,0.0,0.0,0.0,0.0,0.0,0.0,0.0,0.0,0.0,0.0,0.0,0.0,0.0,0.0,0.0,0.0,0.0,0.0,0.0,0.0,0.0,0.0,0.0,0.0,0.0,0.0,0.0,0.0,0.0,0.0,0.0,0.0,0.0,0.0,0.0,0.0,0.0,0.0,0.0,0.0,0.0,0.0,0.0,0.0,0.0,0.0,0.0,0.0,0.0,0.0,-1.2886,-1.3387,0.0,-1.4238,-1.425,-1.416,-1.3454,-1.2732,-1.2006,0.0,0.0,0.0,0.0,0.0,0.0,0.0,0.0,0.0,0.0,0.0,0.0,0.0,0.0,0.0,0.0,0.0,0.0,0.0,0.0,0.0,0.0,0.0,0.0,0.0,0.0,0.0,0.0,0.0,0.0,0.0,0.0,0.0,0.0,0.0,0.0,0.0,0.0,0.0,0.0,0.0,0.0,0.0,0.0,0.0,0.0,0.0,0.0,0.0,0.0,0.0,0.0,0.0,0.0,0.0,0.0,0.0,0.0,0.0,0.0,0.0,0.0,0.0,0.0,0.0,0.0,0.0,0.0,0.0,0.0,0.0,0.0,0.0,0.0,0.0,0.0,0.0,0.0,0.0,0.0,0.0,0.0,0.0,0.0,0.0,0.0,0.0,0.0,0.0,0.0,0.0,0.0,0.0,0.0,0.0,0.0,0.0,0.0,0.0,0.0,0.0,0.0,-1.2699,-1.3112,-1.361,0.0,-1.4298,-1.4262,-1.4177,-1.3473,-1.2759,-1.2099,0.0,0.0,0.0,0.0,0.0,0.0,0.0,0.0,0.0,0.0,0.0,0.0,0.0,0.0,0.0,0.0,0.0,0.0,0.0,0.0,0.0,0.0,0.0,0.0,0.0,0.0,0.0,0.0,0.0,0.0,0.0,0.0,0.0,0.0,0.0,0.0,0.0,0.0,0.0,0.0,0.0,0.0,0.0,0.0,0.0,0.0,0.0,0.0,0.0,0.0,0.0,0.0,0.0,0.0,0.0,0.0,0.0,0.0,0.0,0.0,0.0,0.0,0.0,0.0,0.0,0.0,0.0,0.0,0.0,0.0,0.0,0.0,0.0,0.0,0.0,0.0,0.0,0.0,0.0,0.0,0.0,0.0,0.0,0.0,0.0,0.0,0.0,0.0,0.0,0.0,0.0,0.0,0.0,0.0,0.0,0.0,0.0,0.0,0.0,0.0,0.0,0.0,-1.2977,-1.3535,-1.4001,-1.4292,-1.4298,-1.4189,-1.393,-1.3169,-1.2517,0.0,0.0,0.0,0.0,0.0,0.0,0.0,0.0,0.0,0.0,0.0,0.0,0.0,0.0,0.0,0.0,0.0,0.0,0.0,0.0,0.0,0.0,0.0,0.0,0.0,0.0,0.0,0.0,0.0,0.0,0.0,0.0,0.0,0.0,0.0,0.0,0.0,0.0,0.0,0.0,0.0,0.0,0.0,0.0,0.0,0.0,0.0,0.0,0.0,0.0,0.0,0.0,0.0,0.0,0.0,0.0,0.0,0.0,0.0,0.0,0.0,0.0,0.0,0.0,0.0,0.0,0.0,0.0,0.0,0.0,0.0,0.0,0.0,0.0,0.0,0.0,0.0,0.0,0.0,0.0,0.0,0.0,0.0,0.0,0.0,0.0,0.0,0.0,0.0,0.0,0.0,0.0,0.0,0.0,0.0,0.0,0.0,0.0,0.0,0.0,0.0,0.0,0.0,-1.3237,-1.3629,-1.4093,-1.4536,-1.4394,-1.4189,-1.393,-1.3519,-1.2913,-1.2064,0.0,0.0,0.0,0.0,0.0,0.0,0.0,0.0,0.0,0.0,0.0,0.0,0.0,0.0,0.0,0.0,0.0,0.0,0.0,0.0,0.0,0.0,0.0,0.0,0.0,0.0,0.0,0.0,0.0,0.0,0.0,0.0,0.0,0.0,0.0,0.0,0.0,0.0,0.0,0.0,0.0,0.0,0.0,0.0,0.0,0.0,0.0,0.0,0.0,0.0,0.0,0.0,0.0,0.0,0.0,0.0,0.0,0.0,0.0,0.0,0.0,0.0,0.0,0.0,0.0,0.0,0.0,0.0,0.0,0.0,0.0,0.0,0.0,0.0,0.0,0.0,0.0,0.0,0.0,0.0,0.0,0.0,0.0,0.0,0.0,0.0,0.0,0.0,0.0,0.0,0.0,0.0,0.0,0.0,0.0,0.0,0.0,0.0,0.0,0.0,0.0,0.0,-1.3448,-1.3894,-1.4362,-1.4823,-1.464,-1.4338,-1.407,-1.3613,-1.3059,-1.2337,0.0,0.0,0.0,0.0,0.0,0.0,0.0,0.0,0.0,0.0,0.0,0.0,0.0,0.0,0.0,0.0,0.0,0.0,0.0,0.0,0.0,0.0,0.0,0.0,0.0,0.0,0.0,0.0,0.0,0.0,0.0,0.0,0.0,0.0,0.0,0.0,0.0,0.0,0.0,0.0,0.0,0.0,0.0,0.0,0.0,0.0,0.0,0.0,0.0,0.0,0.0,0.0,0.0,0.0,0.0,0.0,0.0,0.0,0.0,0.0,0.0,0.0,0.0,0.0,0.0,0.0,0.0,0.0,0.0,0.0,0.0,0.0,0.0,0.0,0.0,0.0,0.0,0.0,0.0,0.0,0.0,0.0,0.0,0.0,0.0,0.0,0.0,0.0,0.0,0.0,0.0,0.0,0.0,0.0,0.0,0.0,0.0,0.0,0.0,0.0,0.0,0.0,-1.3707,-1.4239,-1.4721,-1.5114,-1.4885,-1.4617,-1.4272,-1.3576,-1.3019,-1.2687,0.0,0.0,0.0,0.0,0.0,0.0,0.0,0.0,0.0,0.0,0.0,0.0,0.0,0.0,0.0,0.0,0.0,0.0,0.0,0.0,0.0,0.0,0.0,0.0,0.0,0.0,0.0,0.0,0.0,0.0,0.0,0.0,0.0,0.0,0.0,0.0,0.0,0.0,0.0,0.0,0.0,0.0,0.0,0.0,0.0,0.0,0.0,0.0,0.0,0.0,0.0,0.0,0.0,0.0,0.0,0.0,0.0,0.0,0.0,0.0,-1.91,0.0,0.0,0.0,0.0,0.0,0.0,0.0,0.0,0.0,0.0,0.0,0.0,0.0,0.0,0.0,0.0,0.0,0.0,0.0,0.0,0.0,0.0,0.0,0.0,0.0,0.0,0.0,0.0,0.0,0.0,0.0,0.0,0.0,0.0,0.0,0.0,0.0,0.0,0.0,0.0,0.0,-1.3924,-1.437,-1.4813,-1.5345,-1.5172,-1.4738,-1.4058,-1.3818,-1.336,-1.2439,-1.2199,0.0,0.0,0.0,0.0,0.0,0.0,0.0,0.0,0.0,0.0,0.0,0.0,0.0,0.0,0.0,0.0,0.0,0.0,0.0,0.0,0.0,0.0,0.0,0.0,0.0,0.0,0.0,0.0,0.0,0.0,0.0,0.0,0.0,0.0,0.0,0.0,0.0,0.0,0.0,0.0,0.0,0.0,0.0,0.0,0.0,0.0,0.0,0.0,0.0,0.0,0.0,0.0,0.0,0.0,0.0,0.0,0.0,0.0,0.0,0.0,-1.9587,0.0,0.0,0.0,0.0,0.0,0.0,0.0,0.0,0.0,0.0,0.0,0.0,0.0,0.0,0.0,0.0,0.0,0.0,0.0,0.0,0.0,0.0,0.0,0.0,0.0,0.0,0.0,0.0,0.0,0.0,0.0,0.0,0.0,0.0,0.0,0.0,0.0,0.0,0.0,0.0,-1.4222,-1.4595,-1.5002,-1.5576,-1.5452,-1.5098,-1.471,-1.4299,-1.3785,-1.3095,-1.2698,0.0,0.0,0.0,0.0,0.0,0.0,0.0,0.0,0.0,0.0,0.0,0.0,0.0,0.0,0.0,0.0,0.0,0.0,0.0,0.0,0.0,0.0,0.0,0.0,0.0,0.0,0.0,0.0,0.0,0.0,0.0,0.0,0.0,0.0,0.0,0.0,0.0,0.0,0.0,0.0,0.0,0.0,0.0,0.0,0.0,0.0,0.0,0.0,0.0,0.0,0.0,0.0,0.0,-2.0488,-2.0919,-2.1526,-2.1526,-2.1526,-2.1488,-2.0752,-2.0294,-2.0016,0.0,0.0,0.0,0.0,0.0,0.0,0.0,0.0,0.0,0.0,0.0,0.0,0.0,0.0,0.0,0.0,0.0,0.0,0.0,0.0,0.0,0.0,0.0,0.0,0.0,-2.0604,-2.0516,0.0,0.0,0.0,0.0,0.0,0.0,0.0,0.0,0.0,0.0,0.0,0.0,-1.4449,-1.4823,-1.5244,-1.5772,-1.5635,-1.552,-1.5427,-1.4792,-1.4211,-1.391,-1.3255,-1.2872,0.0,0.0,0.0,0.0,0.0,0.0,0.0,0.0,0.0,0.0,0.0,0.0,0.0,0.0,0.0,0.0,0.0,0.0,0.0,0.0,0.0,0.0,0.0,0.0,0.0,0.0,0.0,0.0,0.0,0.0,0.0,0.0,-1.7478,-1.7843,0.0,0.0,0.0,0.0,0.0,0.0,0.0,0.0,0.0,0.0,0.0,0.0,0.0,-2.0237,-2.0851,-2.1438,-2.1822,-2.1938,-2.2518,-2.2838,-2.2945,-2.2892,-2.2838,-2.2829,-2.2722,0.0,-2.0491,-2.0491,0.0,0.0,0.0,0.0,0.0,0.0,0.0,0.0,0.0,0.0,0.0,0.0,0.0,0.0,0.0,0.0,0.0,0.0,0.0,0.0,0.0,0.0,-2.1191,-2.1603,-2.1964,-2.221,0.0,-2.0675,-1.9399,-1.9399,-1.7989,0.0,0.0,0.0,0.0,0.0,0.0,0.0,-1.4476,-1.4997,-1.5464,-1.5792,-1.5784,-1.5583,-1.5192,-1.5054,-1.4657,-1.385,-1.3717,-1.3478,-1.3058,-1.2983,0.0,0.0,0.0,0.0,0.0,0.0,0.0,0.0,0.0,0.0,0.0,0.0,0.0,0.0,0.0,0.0,0.0,0.0,0.0,0.0,0.0,0.0,0.0,0.0,0.0,0.0,0.0,0.0,0.0,-1.7898,-1.8313,-1.8128,-1.8378,-1.8415,0.0,0.0,0.0,0.0,0.0,0.0,0.0,0.0,0.0,-2.1543,-2.1688,-2.1903,-2.2269,-2.2611,-2.2868,-2.311,-2.3383,-2.3814,-2.4274,-2.4228,-2.4219,-2.4238,-2.4446,-2.3858,-2.2674,-2.2074,-2.1591,-2.1167,0.0,0.0,0.0,0.0,-2.0951,-2.1004,-2.175,-2.1811,0.0,0.0,0.0,0.0,0.0,0.0,0.0,0.0,0.0,0.0,0.0,0.0,0.0,-2.269,-2.2926,-2.3051,-2.2996,-2.2164,-2.1286,0.0,-1.9359,-1.7877,-1.7188,0.0,0.0,0.0,0.0,-1.4496,-1.4957,-1.5378,-1.5752,-1.6046,-1.6079,-1.5911,-1.5524,-1.5352,-1.4982,-1.4295,-1.412,-1.3734,-1.3107,-1.3222,-1.3038,0.0,0.0,0.0,0.0,0.0,0.0,0.0,0.0,0.0,0.0,0.0,0.0,0.0,0.0,0.0,0.0,0.0,0.0,0.0,0.0,0.0,0.0,0.0,0.0,0.0,0.0,0.0,0.0,-1.874,-1.9189,-1.8552,-1.9295,-1.9601,0.0,0.0,0.0,0.0,0.0,0.0,-2.1371,-2.1884,-2.2529,-2.3345,-2.3543,-2.3637,-2.3754,-2.4033,-2.4258,-2.4463,-2.4678,-2.5117,-2.5781,-2.5781,-2.5781,-2.581,-2.6201,-2.5889,-2.4962,-2.3861,-2.3065,-2.2592,-2.2443,-2.2045,-2.1669,-2.2069,-2.226,-2.2417,-2.3152,-2.341,-2.3345,-2.3305,0.0,-2.2254,-2.1564,0.0,0.0,0.0,0.0,-2.2351,-2.3021,-2.3496,-2.3786,-2.3953,-2.4011,-2.4067,-2.4011,-2.3628,-2.3047,0.0,-2.0726,-1.9337,-1.8549,0.0,0.0,0.0,0.0,-1.5442,-1.5698,-1.5926,-1.6106,-1.6259,-1.6321,-1.6152,-1.5804,-1.5631,-1.5259,-1.4752,-1.4528,-1.4072,-1.3283,-1.3398,-1.3307,-1.2875,0.0,0.0,0.0,0.0,0.0,0.0,0.0,0.0,0.0,0.0,0.0,0.0,0.0,0.0,0.0,0.0,0.0,0.0,0.0,0.0,0.0,0.0,0.0,0.0,0.0,0.0,0.0,0.0,0.0,-1.9587,-2.0533,0.0,0.0,0.0,0.0,-2.1373,-2.1644,-2.2334,-2.3549,-2.3682,-2.4092,-2.4941,-2.4971,-2.5176,-2.5557,-2.6416,-2.6631,-2.6269,-2.7131,-2.7542,-2.7591,-2.7591,-2.7591,-2.7611,-2.7978,-2.7676,-2.6787,-2.5498,-2.4482,-2.373,-2.3721,-2.3279,-2.2736,-2.3028,-2.3256,-2.3528,-2.4147,-2.421,-2.4206,-2.5198,-2.484,-2.3927,-2.3493,-2.3025,0.0,0.0,-2.2877,-2.3257,-2.4095,-2.4329,-2.4553,-2.5391,-2.5596,-2.5596,-2.5596,-2.5092,-2.4217,0.0,-2.2003,-2.1166,-2.0569,0.0,-1.8745,-1.7603,-1.7492,-1.733,-1.6732,-1.6635,-1.656,-1.6348,-1.6321,-1.6152,-1.5804,-1.5764,-1.5565,-1.4997,-1.495,-1.4588,-1.3714,-1.3695,-1.3568,-1.3355,-1.3398,0.0,0.0,0.0,0.0,0.0,0.0,0.0,0.0,0.0,0.0,0.0,0.0,0.0,0.0,0.0,0.0,0.0,0.0,0.0,0.0,0.0,0.0,0.0,0.0,0.0,0.0,0.0,0.0,-2.1887,-2.2485,0.0,-2.2299,-2.2432,-2.2687,-2.2989,-2.3623,-2.4258,-2.5,-2.5566,-2.6133,-2.6769,-2.7002,-2.7217,-2.7383,-2.7685,-2.7764,-2.7617,-2.793,-2.8213,-2.8476,-2.8476,-2.8476,-2.8496,-2.8926,-2.8779,-2.8223,-2.8047,-2.6973,-2.5459,-2.5459,-2.5148,-2.4712,-2.5089,-2.5284,-2.5431,-2.5898,-2.6044,-2.5907,-2.5478,-2.4855,-2.4208,-2.3826,-2.3741,-2.3945,-2.4518,-2.4925,-2.5361,-2.5937,-2.6094,-2.6162,-2.6434,-2.6562,-2.6562,-2.6562,-2.6171,-2.5684,-2.5179,-2.3809,-2.2503,-2.1762,-2.1105,-2.0124,-1.8315,-1.8194,-1.807,-1.7359,-1.7273,-1.7215,-1.7163,-1.6992,-1.669,-1.6152,-1.6112,-1.5865,-1.5277,-1.5115,-1.4774,-1.4298,-1.4068,-1.3956,-1.397,-1.3928,-1.3928,0.0,0.0,0.0,0.0,0.0,0.0,0.0,0.0,0.0,0.0,0.0,0.0,0.0,0.0,0.0,0.0,0.0,0.0,0.0,0.0,0.0,0.0,0.0,0.0,0.0,0.0,-2.314,-2.3274,-2.4132,-2.4504,-2.4074,-2.4273,-2.4512,-2.4658,-2.5195,-2.583,-2.6562,-2.7139,-2.7715,-2.8344,-2.8584,-2.8721,-2.8721,-2.8867,-2.8867,-2.873,-2.8867,-2.9082,-2.9346,-2.9346,-2.9346,-2.9375,-2.9824,-2.9678,-2.917,-2.9609,-2.8857,-2.7432,-2.7148,-2.668,-2.6201,-2.6494,-2.6689,-2.6885,-2.7305,-2.7353,-2.709,-2.623,-2.5654,-2.5244,-2.4961,-2.5078,-2.542,-2.6006,-2.6377,-2.6699,-2.7129,-2.7129,-2.7051,-2.7197,-2.7119,-2.7012,-2.7012,-2.668,-2.6387,-2.6387,-2.5188,-2.3969,-2.3298,-2.2907,-2.2117,-2.0331,-2.0114,-1.9918,-1.9212,-1.8695,-1.838,-1.8273,-1.7712,-1.7066,-1.6473,-1.637,-1.6019,-1.5431,-1.5217,-1.5018,-1.4739,-1.4502,-1.4432,-1.454,-1.4504,-1.4453,-1.4405,0.0,0.0,0.0,0.0,0.0,0.0,0.0,0.0,0.0,0.0,0.0,0.0,0.0,0.0,0.0,0.0,0.0,0.0,0.0,0.0,0.0,0.0,0.0,-2.1375,-2.3364,-2.4523,-2.3741,-2.5314,-2.6094,-2.5302,-2.5576,-2.6016,-2.6435,-2.6484,-2.7031,-2.8262,-2.834,-2.873,-2.956,-2.9675,-2.9629,-2.9665,-3.0029,-3.0029,-2.9675,-3.0029,-3.0215,-3.0215,-3.0215,-3.0215,-3.0244,-3.0693,-3.04,-2.9648,-3.0049,-2.9971,-2.9502,-2.8662,-2.7822,-2.71,-2.71,-2.7353,-2.7816,-2.8174,-2.8037,-2.7738,-2.7718,-2.7383,-2.7031,-2.7031,-2.7031,-2.7041,-2.7051,-2.7051,-2.7148,-2.7578,-2.7373,-2.7168,-2.764,-2.7363,-2.7051,-2.7051,-2.6728,-2.6426,-2.6426,-2.6064,-2.5567,-2.5166,-2.5135,-2.4746,-2.3664,-2.326,0.0,-2.219,-2.0904,-1.9962,-1.964,-1.8477,-1.739,-1.6793,-1.6488,-1.6039,-1.5444,-1.5398,-1.5277,-1.5048,-1.5022,-1.5015,-1.5022,-1.5028,-1.4894,-1.4617,0.0,0.0,0.0,0.0,0.0,0.0,0.0,0.0,0.0,0.0,0.0,0.0,0.0,0.0,0.0,0.0,0.0,0.0,0.0,0.0,0.0,-2.3086,-2.4013,-2.3842,-2.4744,-2.5723,-2.6473,-2.7021,-2.7334,-2.7402,-2.7793,-2.8096,-2.8213,-2.8516,-2.8848,-2.9199,-2.9512,-2.9785,-3.0019,-3.0644,-3.084,-3.0527,-3.0947,-3.0947,-3.0527,-3.0644,-3.0703,-3.0703,-3.0703,-3.0703,-3.0703,-3.083,-3.0752,-3.0537,-3.0654,-3.043,-2.9971,-2.9434,-2.9082,-2.8867,-2.8867,-2.874,-2.8594,-2.8711,-2.8467,-2.8066,-2.7816,-2.764,-2.749,-2.749,-2.749,-2.7549,-2.7851,-2.7939,-2.7969,-2.8086,-2.8037,-2.7978,-2.8096,-2.8027,-2.7939,-2.7939,-2.7617,-2.7314,-2.7314,-2.6719,-2.6074,-2.5625,-2.5557,-2.515,-2.4079,-2.3874,0.0,-2.2525,-2.1878,-2.1186,-2.0342,-1.9713,-1.8687,-1.7095,-1.6898,-1.6542,-1.5745,-1.5511,-1.5451,-1.5585,-1.519,-1.5109,-1.5277,-1.5484,-1.5444,0.0,0.0,0.0,0.0,0.0,0.0,0.0,0.0,0.0,0.0,0.0,0.0,0.0,0.0,0.0,0.0,0.0,0.0,0.0,0.0,0.0,0.0,-2.4763,-2.5926,-2.646,-2.6657,-2.709,-2.7842,-2.8242,-2.8623,-2.9053,-2.915,-2.9346,-2.9717,-2.9805,-2.999,-3.0371,-3.0449,-3.0566,-3.0742,-3.1074,-3.1133,-3.0889,-3.1309,-3.1396,-3.1152,-3.1152,-3.1152,-3.1152,-3.0976,-3.0889,0.0,-3.0889,-3.0889,-3.0889,-3.0889,-3.0732,0.0,0.0,0.0,0.0,0.0,-2.9287,-2.8916,-2.8916,-2.876,-2.8516,-2.8271,-2.832,-2.852,-2.852,-2.852,-2.8476,-2.8535,-2.8555,-2.8516,-2.834,-2.8291,-2.8291,-2.8291,-2.8291,-2.8291,-2.8291,-2.7959,-2.7718,-2.7718,-2.7119,0.0,-2.6269,-2.5927,-2.5479,-2.4864,-2.4756,-2.4559,-2.3908,-2.3294,-2.2542,-2.143,-2.0664,-1.9483,-1.7568,-1.7313,0.0,0.0,0.0,-1.5752,-1.5825,-1.5504,0.0,0.0,0.0,-1.573,-1.5635,0.0,0.0,0.0,-1.4892,-1.4786,0.0,0.0,0.0,0.0,0.0,0.0,0.0,0.0,0.0,0.0,0.0,0.0,0.0,0.0,0.0,0.0,-2.647,-2.7656,-2.8887,-2.8789,-2.8564,-2.8516,-2.9228,-2.9883,-3.0303,-3.0049,-3.0185,-3.0976,-3.0605,-3.0713,-3.1543,0.0,0.0,0.0,0.0,-3.1084,-3.1035,-3.1455,-3.1641,-3.1592,-3.1592,-3.1562,-3.1504,-3.1192,-3.0996,-3.0889,-3.0889,-3.0889,-3.0889,-3.0889,-3.0889,-3.085,-3.043,-3.0049,-2.9773,-2.9773,-2.9443,-2.9062,-2.9062,0.0,0.0,-2.8994,-2.9258,-2.9626,-2.9626,-2.9531,-2.9414,-2.9023,-2.8916,-2.8838,-2.8457,-2.8359,-2.8359,-2.8359,-2.833,-2.8291,-2.8291,-2.7998,-2.7787,-2.7787,-2.7383,-2.709,-2.709,-2.6377,-2.5762,-2.5762,-2.5713,-2.5693,-2.5693,-2.4864,-2.389,-2.2785,0.0,0.0,-1.8309,-1.791,-1.7345,-1.6354,-1.6292,-1.6123,-1.592,-1.5879,-1.5832,-1.5832,-1.5832,-1.5784,-1.5784,-1.5784,-1.5784,-1.5778,-1.5363,-1.5178,0.0,0.0,0.0,0.0,0.0,0.0,0.0,0.0,0.0,0.0,0.0,0.0,0.0,0.0,0.0,-2.654,-2.7721,-2.8877,-2.9824,-3.0205,-3.0254,-2.9873,-3.0312,-3.0801,-3.1221,-3.1504,-3.1798,-3.1964,-3.1514,-3.1494,-3.2012,-3.1631,-3.1592,-3.2031,-3.2295,-3.2266,-3.1924,-3.2344,-3.2383,-3.2041,0.0,0.0,-3.1514,-3.1722,-3.1446,-3.0889,-3.0889,-3.0889,-3.0889,-3.0889,-3.0889,-3.0879,-3.0791,-3.0703,-3.0635,-3.0635,-3.0342,-2.9951,-2.9951,-2.9726,-2.9443,-2.9443,-2.9558,-2.9626,-2.9626,-2.9326,0.0,-2.8945,-2.8916,-2.8896,-2.8818,-2.8799,-2.8799,-2.8799,-2.8535,-2.8291,-2.8291,-2.8232,-2.8174,-2.8174,-2.7832,-2.7539,-2.7539,-2.6826,-2.626,-2.626,-2.5967,-2.5693,-2.5693,-2.5528,-2.4971,-2.389,-2.3543,-2.2354,-1.9799,-1.9568,-1.879,-1.705,-1.6681,-1.6494,-1.6447,-1.6265,-1.6123,-1.6123,-1.5927,-1.5784,-1.5784,-1.5784,-1.5784,-1.5784,-1.5689,-1.5642,0.0,0.0,0.0,0.0,0.0,0.0,0.0,0.0,0.0,0.0,0.0,-2.414,-2.4539,0.0,-2.726,-2.8437,-2.9336,-3.0205,-3.1064,-3.1387,-3.1357,-3.0908,-3.125,-3.1699,-3.2119,-3.2168,-3.2344,-3.2764,-3.2402,-3.2344,-3.2773,-3.2393,-3.2256,-3.2471,-3.248,-3.2383,-3.2229,-3.2588,-3.2695,-3.248,-3.2664,-3.2438,-3.1836,-3.179,-3.1466,-3.0889,-3.0889,-3.0889,-3.0889,-3.0889,-3.0889,-3.0889,-3.0889,-3.0889,-3.0889,-3.0889,-3.0596,-3.0195,-3.0195,-3.0059,-2.9883,-2.9883,-3.0039,-3.0185,-2.9951,-2.9726,-2.9473,-2.9043,-2.9082,-2.9199,-2.8975,-2.9082,-2.9248,-2.9248,-2.9082,-2.8877,-2.8652,-2.8603,-2.8545,-2.833,-2.8125,-2.7978,-2.7978,-2.7451,-2.6885,-2.6455,-2.6201,-2.5986,-2.5713,-2.5693,-2.5274,-2.4196,-2.4088,-2.3035,-2.0434,-1.9414,-1.855,-1.7548,-1.7091,-1.6867,-1.6867,-1.6578,-1.6407,-1.6407,-1.6123,-1.5981,-1.5981,-1.5879,-1.5784,-1.5784,-1.5979,-1.5972,0.0,0.0,0.0,0.0,0.0,0.0,0.0,-2.269,-2.3079,-2.4195,-2.5121,-2.6023,-2.6875,-2.7773,-2.8857,-3.0234,-3.084,-3.1406,-3.2187,-3.2363,-3.2314,-3.2051,-3.2178,-3.249,-3.2988,-3.2734,-3.2907,-3.3747,-3.323,-3.3181,-3.3766,-3.3142,-3.2832,-3.291,-3.2588,-3.2412,-3.2412,-3.2744,-3.292,-3.292,-3.2972,-3.2718,-3.2219,-3.1867,-3.1426,-3.0889,-3.0889,-3.0889,-3.0889,-3.0889,-3.0889,-3.0889,-3.0889,-3.0889,-3.0889,-3.0889,-3.0654,-3.0332,-3.0332,-3.0332,-3.0332,-3.0332,-3.0586,-3.0801,-3.0332,-3.0137,-2.9932,-2.9238,-2.9297,-2.9512,-2.9238,-2.9424,-2.9744,-2.9744,-2.9685,-2.9473,-2.9121,-2.9043,-2.8926,-2.8496,-2.8418,-2.8389,-2.8301,-2.8018,-2.7529,-2.6758,-2.6562,-2.6387,-2.5976,-2.5937,-2.5594,-2.4631,-2.4573,-2.3547,-2.103,-1.9119,-1.806,-1.806,-1.7611,-1.7329,-1.7329,-1.6999,-1.6866,-1.6866,-1.6587,-1.6491,-1.6491,-1.6197,-1.6053,-1.6053,-1.6295,-1.6199,-2.0038,-2.0545,-2.1632,-2.3307,-2.3496,-2.4069,0.0,-2.6678,-2.6249,-2.7487,-2.8467,-2.9101,-2.9199,-3.0244,-3.1152,-3.1338,-3.1738,-3.2187,-3.2656,-3.3047,-3.3408,-3.375,-3.3154,-3.3037,-3.3857,-3.3887,-3.4239,-3.5098,-3.405,-3.3862,-3.5129,-3.3691,-3.2969,-3.334,-3.331,-3.3281,-3.3281,-3.333,-3.335,-3.335,-3.3601,-3.324,-3.2229,-3.2482,-3.1949,-3.0889,-3.0889,-3.0889,-3.0889,-3.0889,-3.0889,-3.0889,-3.0889,-3.0889,-3.0889,-3.0889,-3.0859,-3.081,-3.081,-3.081,-3.081,-3.081,-3.085,-3.0801,-3.0332,-2.9932,-2.9675,-2.9521,-2.9531,-2.9648,-2.9971,-3.0088,-3.0127,-3.0127,-2.9844,-2.9616,-2.9502,-2.9502,-2.9375,-2.8935,-2.8848,-2.873,-2.8359,-2.8252,-2.8066,-2.7598,-2.7197,-2.6924,-2.6875,-2.6865,-2.6678,-2.6198,-2.6159,-2.5102,-2.2508,-2.0058,-1.8687,-1.8687,-1.8381,-1.8149,-1.8149,-1.788,-1.776,-1.776,-1.7563,-1.7464,-1.7464,-1.7117,-1.6968,-1.6968,-1.6746,-1.65,-2.1621,-2.2308,-2.3248,-2.4055,-2.4907,-2.5966,-2.7588,-2.7705,-2.793,-2.9482,-3.0488,-3.1152,-3.1406,-3.209,-3.2627,-3.2627,-3.2783,-3.3047,-3.3476,-3.3476,-3.3584,-3.4023,-3.421,-3.456,-3.5123,-3.4566,-3.4551,-3.5655,-3.4532,-3.4044,-3.4605,-3.3694,-3.3242,-3.3418,-3.3418,-3.3418,-3.3418,-3.3418,-3.3418,-3.3418,-3.3544,-3.3103,-3.2229,-3.235,-3.1879,-3.0889,-3.0889,-3.0889,-3.0889,-3.0889,-3.0889,-3.0889,-3.1054,-3.1054,-3.0889,-3.0889,-3.0889,-3.0889,-3.0889,-3.0889,-3.0889,-3.0889,-3.0889,-3.0801,-3.0332,-3.0068,-2.9883,-2.9695,-2.9746,-2.9971,-3.0156,-3.04,-3.0605,-3.0605,-3.0469,-3.0195,-2.9734,-2.9626,-2.9365,-2.8691,-2.8555,-2.8496,-2.832,-2.8291,-2.8232,-2.8057,-2.7666,-2.7305,-2.7051,-2.7012,-2.6943,-2.6768,-2.5376,-2.402,-2.292,-2.0562,-1.9074,-1.9074,-1.8767,-1.8584,-1.8584,-1.8309,-1.8108,-1.8108,-1.7917,-1.7768,-1.7768,-1.7519,-1.737,-1.7377,-1.7298,-1.716,-2.2578,-2.346,-2.4394,-2.498,-2.6348,-2.7715,-2.8398,-2.8877,-2.9639,-3.126,-3.1992,-3.2539,-3.3203,-3.3476,-3.3643,-3.375,-3.3779,-3.3848,-3.4043,-3.3799,-3.3633,-3.3711,-3.4198,-3.4821,-3.5562,-3.5032,-3.4993,-3.5913,-3.4812,-3.4206,-3.4461,-3.3774,-3.3418,-3.3418,-3.3418,-3.3418,-3.3418,-3.3418,-3.3418,-3.3418,-3.3418,-3.2978,-3.2158,-3.1924,-3.1475,-3.0889,-3.0889,-3.0889,-3.0889,-3.0889,-3.0947,-3.0995,-3.116,-3.1112,-3.0995,-3.0947,-3.0889,-3.0889,-3.0889,-3.0889,-3.0889,-3.0889,-3.0889,-3.0801,-3.0332,-3.0195,-3.0137,-2.9824,-2.9961,-3.0225,-3.0351,-3.0635,-3.0889,-3.0889,-3.0889,-3.0674,-2.9912,-2.9844,-2.9639,-2.8652,-2.8564,-2.8574,-2.833,-2.8291,-2.8291,-2.8291,-2.8037,-2.7725,-2.7412,-2.7266,-2.7197,-2.7197,-2.5014,-2.346,-2.3143,-2.1032,-1.9628,-1.9324,-1.9052,-1.8921,-1.8921,-1.8694,-1.8569,-1.8569,-1.8376,-1.8283,-1.8283,-1.8074,-1.7973,-1.798,-1.7849,-1.7798,-2.2187,-2.3154,-2.4316,-2.6406,-2.791,-2.9199,-3.0498,-3.1113,-3.1787,-3.3076,-3.3037,-3.3154,-3.4414,-3.4316,-3.4189,-3.46,-3.4658,-3.4521,-3.4131,-3.4062,-3.375,-3.293,-3.2522,-3.2963,0.0,-3.5459,-3.5976,-3.5976,-3.4812,-3.4451,-3.5304,-3.41,-3.3418,-3.3418,-3.3418,-3.3418,-3.3418,-3.3418,-3.3418,-3.3418,-3.3418,-3.2978,-3.2139,-3.1309,-3.0918,-3.0889,-3.0889,-3.0889,-3.0889,-3.0889,-3.1054,-3.1276,-3.1005,-3.1054,-3.1276,-3.1005,-3.0889,-3.0889,-3.0889,-3.0889,-3.0889,-3.0889,-3.0889,-3.0801,-3.0332,-3.0195,-3.0195,-3.0185,-3.0185,-3.0303,-3.0752,-3.0879,-3.0889,-3.0889,-3.0889,-3.0762,-3.0283,-3.0537,-3.0459,-2.915,-2.9238,-2.9268,-2.8437,-2.8291,-2.8291,-2.8291,-2.8281,-2.8271,-2.8252,-2.79,-2.7699,-2.7699,-2.5946,-2.4314,-2.3195,-2.1737,-2.0439,-1.9383,-1.9264,-1.9257,-1.9257,-1.9302,-1.925,-1.925,-1.9242,-1.9242,-1.9242,-1.8997,-1.884,-1.884,-1.852,-1.8258,-2.3086,-2.4619,-2.6377,-2.8242,-2.9473,-3.0566,-3.1865,-3.2266,-3.2646,-3.3643,-3.3066,-3.2598,-3.3301,-3.3096,-3.2851,-3.2998,-3.3486,-3.3799,-3.3662,-3.3398,-3.29,-3.2051,-3.2835,0.0,0.0,0.0,0.0,-3.5851,-3.4532,-3.3892,-3.4529,-3.3828,-3.3418,-3.3418,-3.3418,-3.3849,-3.4704,-3.4704,-3.4975,-3.5447,-3.4837,-3.3983,-3.2928,-3.2339,-3.1682,-3.0889,-3.0889,-3.0889,-3.0889,-3.0889,-3.0947,-3.1054,-3.1112,-3.1112,-3.1054,-3.1112,-3.1054,-3.0889,-3.0889,-3.0889,-3.0889,-3.0889,-3.0889,-3.0859,-3.0703,-3.0654,-3.0654,-3.0654,-3.0654,-3.0693,-3.085,-3.0889,-3.0889,-3.0889,-3.0889,-3.0762,-3.0293,-3.0322,-3.0215,-2.9492,-2.9238,-2.9043,-2.876,-2.8476,-2.8291,-2.8291,-2.8291,-2.8291,-2.8291,-2.8164,-2.8086,-2.8086,-2.6597,-2.5457,-2.508,-2.2751,-2.1122,-2.0765,-1.9844,-1.9279,-1.9279,-1.9279,-1.9279,-1.9279,-1.9279,-1.9279,-1.9279,-1.9227,-1.9175,-1.9175,-1.8862,-1.8653,-2.4541,-2.6064,-2.7656,-2.9365,-3.0459,-3.1367,-3.2344,-3.2803,-3.3135,-3.3535,-3.2598,-3.1846,-3.2266,-3.1738,-3.1338,-3.166,-3.2168,-3.2568,-3.2715,-3.2383,-3.1914,-3.1357,-3.2284,-3.2512,0.0,0.0,0.0,-3.4733,-3.3842,-3.332,-3.3603,-3.3496,-3.3418,-3.3418,-3.3418,-3.4027,-3.5376,-3.5211,-3.5497,-3.6208,-3.5031,-3.4033,-3.3269,-3.2442,-3.1624,-3.0889,-3.0889,-3.0947,-3.1054,-3.1054,-3.1112,-3.1228,-3.1276,-3.1218,-3.1054,-3.1112,-3.1054,-3.0889,-3.0889,-3.0889,-3.0889,-3.0889,-3.0889,-3.0889,-3.0889,-3.0889,-3.0889,-3.0889,-3.0889,-3.0889,-3.0889,-3.0889,-3.0889,-3.0889,-3.0889,-3.0762,-3.0293,-3.0332,-3.0225,-2.9482,-2.9238,-2.9053,-2.875,-2.8467,-2.8291,-2.8291,-2.8291,-2.8291,-2.8291,-2.8291,-2.8291,-2.8291,-2.7256,-2.6461,-2.6019,-2.4088,-2.2465,-2.1558,-2.063,-1.9851,-1.9331,-1.9279,-1.9279,-1.9279,-1.9279,-1.9279,-1.9279,-1.9279,-1.9279,-1.9279,-1.9123,-1.8974,-2.6377,-2.7412,-2.8193,-2.9853,-3.0898,-3.1631,-3.207,-3.2764,-3.3193,-3.2754,-3.1631,-3.083,-3.1191,-3.0264,-2.9726,-3.0615,-3.083,-3.1035,-3.1455,-3.1172,-3.0908,-3.0859,-3.0898,-3.0908,-3.0859,0.0,0.0,-3.276,0.0,-3.2835,-3.2822,-3.3203,-3.3418,-3.3418,-3.3418,-3.409,-3.55,-3.5083,-3.5202,-3.5834,-3.427,-3.348,-3.3296,-3.1804,-3.1005,-3.0889,-3.0889,-3.1054,-3.1325,-3.1325,-3.1498,-3.173,-3.1392,-3.1276,-3.1276,-3.0995,-3.0889,-3.0889,-3.0889,-3.0889,-3.0889,-3.0889,-3.0889,-3.0889,-3.0889,-3.0889,-3.0889,-3.0889,-3.0889,-3.0889,-3.0889,-3.0889,-3.0889,-3.0889,-3.0889,-3.0771,-3.0332,-3.0576,-3.0518,-2.9228,-2.9287,-2.9277,-2.8467,-2.8301,-2.8291,-2.8291,-2.8291,-2.8291,-2.8291,-2.8291,-2.8291,-2.8291,-2.7939,-2.7309,-2.6215,-2.5687,-2.434,-2.186,-2.1558,-2.0885,-1.9442,-1.9331,-1.9279,-1.9279,-1.9279,-1.9279,-1.9279,-1.9279,-1.9279,-1.9279,-1.9279,-1.9175,-2.7148,-2.8506,-2.9814,-3.0908,-3.1348,-3.1631,-3.207,-3.209,-3.1787,-3.1016,-2.959,-2.833,-2.7793,-2.7676,-2.7949,-2.8809,-3.0039,-3.1035,-3.1455,-3.1426,-3.1113,-3.0449,-3.0957,-3.1103,-3.0439,-3.1555,0.0,0.0,-3.2945,-3.3538,-3.3285,-3.3359,-3.3418,-3.3418,-3.3418,-3.4518,-3.6764,-3.7835,-3.8208,-3.7973,-3.7216,-3.5844,-3.4127,-3.366,-3.2561,-3.0889,-3.1112,-3.1218,-3.1325,-3.1325,-3.1325,-3.1383,-3.1112,-3.0995,-3.0995,-3.0947,-3.0889,-3.0889,-3.0889,-3.0889,-3.0889,-3.0889,-3.0889,-3.0889,-3.0889,-3.0889,-3.0889,-3.0889,-3.0889,-3.0889,-3.0889,-3.0889,-3.0889,-3.0889,-3.0889,-3.0859,-3.0742,-3.081,-3.0693,-3.0,-2.9443,-2.9014,-2.8799,-2.8496,-2.8291,-2.8291,-2.8291,-2.8291,-2.8291,-2.8291,-2.8291,-2.8291,-2.8193,-2.8019,-2.7743,-2.6589,-2.5434,-2.4453,-2.2586,-2.119,-2.0498,-1.9732,-1.9279,-1.9279,-1.9279,-1.9279,-1.9279,-1.9279,-1.9279,-1.9279,-1.9279,-1.9279,-2.8496,-2.9756,-3.085,-3.1162,-3.1523,-3.167,-3.1143,-3.0986,-3.0527,-2.9092,-2.7744,-2.6611,-2.5937,-2.6006,-2.6445,-2.7314,-2.8594,-2.9756,-3.0547,-3.082,-3.083,-3.0537,-3.1435,-3.1738,-3.0859,-3.2306,-3.2933,0.0,-3.2883,-3.3354,-3.3125,-3.332,-3.3418,-3.3418,-3.3544,-3.4789,-3.7182,-3.8787,-3.9345,-3.8761,-3.7192,-3.5717,-3.4391,-3.3335,-3.218,-3.0889,0.0,-3.1276,-3.1498,-3.1383,-3.1383,-3.1498,-3.116,-3.0995,-3.0889,-3.0889,-3.0889,-3.0889,-3.0889,-3.0889,-3.0889,-3.0889,-3.0889,-3.0889,-3.0889,-3.0889,-3.0889,-3.0889,-3.0889,-3.0889,-3.0889,-3.0889,-3.0889,-3.0889,-3.0889,-3.0889,-3.0889,-3.0889,-3.0752,-3.0293,-2.9502,-2.8916,-2.8916,-2.8721,-2.8506,-2.832,-2.8291,-2.8291,-2.8291,-2.8291,-2.8291,-2.8291,-2.8291,-2.8291,-2.8291,-2.7525,-2.6608,-2.5715,-2.3677,-2.2102,-2.1227,-1.9955,-1.9279,-1.9279,-1.9279,-1.9279,-1.9279,-1.9279,-1.9279,-1.9279,-1.9279,-1.9279,-2.9883,-3.0801,-3.1348,-3.0986,-3.1406,-3.1484,-2.9853,-2.9639,-2.9199,-2.7178,-2.6025,-2.5342,-2.4893,-2.4949,-2.5293,-2.623,-2.7109,-2.8188,-2.9463,-2.9971,-3.0391,-3.0918,-3.1953,-3.2353,-3.167,-3.3266,-3.3933,-3.2855,-3.3028,-3.3057,-3.2881,-3.3223,-3.3481,-3.367,-3.41,-3.5271,-3.7199,-3.8817,-3.9345,-3.8761,-3.5967,-3.4558,-3.4336,-3.2123,-3.1064,-3.0889,-3.0947,0.0,-3.1787,-3.1441,-3.1498,-3.1787,-3.1383,-3.1112,-3.0889,-3.0889,-3.0889,-3.0889,-3.0889,-3.0889,-3.0889,-3.0889,-3.0889,-3.0889,-3.0889,-3.0889,-3.0889,-3.0889,-3.0889,-3.0889,-3.0889,-3.0889,-3.0889,-3.0889,-3.0889,-3.0889,-3.0889,-3.084,-3.0703,-3.0351,-2.959,-2.9023,-2.9082,-2.9043,-2.8867,-2.8437,-2.8428,-2.8418,-2.831,-2.8291,-2.8291,-2.8291,-2.8291,-2.8291,-2.8291,-2.8291,-2.7723,-2.6321,-2.4809,-2.3302,-2.1768,-2.0306,-1.9428,-1.9279,-1.9279,-1.9279,-1.9279,-1.9279,-1.9279,-1.9279,-1.9279,-1.9279,-3.0039,-3.0586,-3.0986,-3.0908,-3.0713,-3.0273,-2.9258,-2.8271,-2.7158,-2.5703,-2.4727,-2.3994,-2.351,-2.4053,-2.4941,-2.6191,-2.7109,-2.8232,-2.9863,-3.0156,-3.0498,-3.1309,-3.1601,-3.1826,-3.2031,-3.2684,0.0,0.0,-3.4143,-3.4469,-3.3373,-3.3379,-3.3912,-3.5015,-3.6154,-3.7188,-3.8123,-3.9099,-3.9345,-3.8761,-3.6812,-3.5344,-3.4336,-3.3016,-3.1845,-3.0889,-3.1102,0.0,-3.1787,-3.1441,-3.1498,-3.173,-3.117,-3.0947,-3.0889,-3.0889,-3.0889,-3.0889,-3.0889,-3.0889,-3.0889,-3.0889,-3.0889,-3.0889,-3.0889,-3.0889,-3.0889,-3.0889,-3.0889,-3.0889,-3.0889,-3.0889,-3.0889,-3.0889,-3.0889,-3.0889,-3.0889,-3.0596,-3.04,-3.0713,-3.0059,-2.956,-2.9912,-2.9687,-2.9307,-2.8877,-2.9121,-2.9092,-2.8389,-2.8291,-2.8291,-2.8291,-2.8291,-2.8291,-2.8291,-2.8291,-2.8062,-2.7414,-2.5973,-2.4451,-2.2902,-2.142,-2.0233,-1.9324,-1.9279,-1.9279,-1.9279,-1.9279,-1.9279,-1.9279,-1.9279,-1.9279,-3.0439,-3.0879,-3.1103,-3.0644,-3.0361,-2.9736,-2.7998,-2.6777,-2.5635,-2.4336,-2.3564,-2.3125,-2.3091,-2.3793,-2.4697,-2.5557,-2.6435,-2.7598,-2.9297,-2.9726,-3.0195,-3.1084,-3.1592,-3.1934,-3.2148,-3.2549,-3.2891,-3.3105,-3.3918,-3.409,-3.3418,-3.3418,-3.409,-3.5623,-3.6703,-3.7847,-3.9058,-3.9409,-3.9477,-3.9157,-3.6544,-3.4947,-3.4336,-3.2571,-3.146,-3.0889,-3.1054,0.0,-3.1498,-3.1218,-3.1276,-3.1508,-3.1054,-3.0889,-3.0889,-3.0889,-3.0889,-3.0889,-3.0889,-3.0889,-3.0889,-3.0889,-3.0889,-3.0889,-3.0889,-3.0889,-3.0889,-3.0889,-3.0889,-3.0889,-3.0889,-3.0889,-3.0889,-3.0889,-3.0889,-3.0889,-3.0889,-3.0527,-3.0332,-3.0801,-3.0351,-2.9961,-3.0166,-3.0029,-2.9746,-2.9316,-2.9434,-2.9346,-2.8701,-2.8613,-2.8535,-2.831,-2.8291,-2.8291,-2.8291,-2.8291,-2.8203,-2.7998,-2.6563,-2.5108,-2.3798,-2.2097,-2.0695,-1.958,-1.9412,-1.9279,-1.9279,-1.9279,-1.9279,-1.9279,-1.9279,-1.9279,-3.0644,-3.1055,-3.1191,-3.04,-3.0059,-2.9297,-2.6934,-2.5557,-2.4482,-2.3325,-2.2691,-2.2539,-2.3003,-2.3647,-2.4316,-2.4844,-2.5508,-2.6592,-2.8398,-2.9023,-2.9697,-3.0762,-3.1484,-3.1963,-3.2148,-3.2471,0.0,-3.3252,-3.3369,0.0,-3.3418,-3.366,-3.458,-3.6175,-3.7188,-3.8402,-3.9861,-3.9661,-3.9549,-3.9374,-3.5981,-3.4391,-3.4336,-3.195,-3.0889,-3.0889,-3.0889,0.0,0.0,-3.1005,-3.1054,-3.1267,-3.0995,-3.0889,-3.0889,-3.0889,-3.0889,-3.0889,-3.0889,-3.0889,-3.0889,-3.0889,-3.0889,-3.0889,-3.0889,-3.0889,-3.0889,-3.0889,-3.0889,-3.0889,-3.0889,-3.0889,-3.0889,-3.0889,-3.081,-3.0742,-3.0742,-3.0459,-3.0303,-3.0674,-3.0527,-3.0342,-3.0342,-3.0342,-3.0195,-2.9766,-2.9785,-2.9658,-2.9121,-2.9062,-2.8896,-2.8467,-2.834,-2.8291,-2.8291,-2.8291,-2.8291,-2.8291,-2.7068,-2.5753,-2.4332,-2.2789,-2.1301,-1.9918,-1.955,-1.9434,-1.9434,-1.936,-1.9279,-1.9279,-1.9279,-1.9279,-3.0244,-3.0596,-3.083,-3.0322,-2.9609,-2.8574,-2.6787,-2.5098,-2.376,-2.3198,-2.25,-2.2187,-2.2945,-2.3159,-2.3481,-2.4346,-2.4541,-2.5342,-2.7532,-2.8144,-2.9023,-3.0693,-3.0957,-3.1318,-3.209,-3.2207,-3.2402,-3.2822,0.0,0.0,-3.3418,-3.4518,-3.5797,-3.7116,-3.8376,-3.943,-4.035,-3.9842,-3.9369,-3.8833,-3.5824,-3.4391,-3.4336,-3.195,-3.0889,-3.0889,-3.0889,0.0,0.0,-3.1005,-3.1054,-3.1267,-3.0995,-3.0889,-3.0889,-3.0889,-3.0889,-3.0889,-3.0889,-3.0889,-3.0889,-3.0889,-3.0889,-3.0889,-3.0889,-3.0889,-3.0889,-3.0889,-3.0889,-3.0889,-3.0889,-3.0889,-3.0889,-3.0889,-3.0566,-3.0264,-3.0264,-3.0225,-3.0205,-3.0254,-3.0566,-3.083,-3.083,-3.083,-3.0674,-3.0205,-3.0498,-3.0469,-2.9619,-2.9567,-2.9346,-2.8906,-2.8525,-2.8291,-2.8291,-2.8291,-2.8291,-2.8291,-2.7838,-2.6567,-2.4395,-2.3723,-2.2405,-2.0194,-1.9879,-1.9771,-1.9771,-1.9478,-1.9279,-1.9279,-1.9279,-1.9279,-2.9922,-3.0537,-3.0723,-3.0,-2.8984,-2.7783,-2.6328,-2.4648,-2.335,-2.313,-2.2676,-2.2441,-2.2984,-2.3091,-2.3208,-2.3549,-2.3608,-2.4219,-2.5918,-2.6475,-2.749,-2.9473,-2.9941,-3.0644,0.0,0.0,-3.206,-3.2744,0.0,0.0,-3.3418,-3.4642,-3.5981,-3.7237,-3.8566,-3.9593,-4.0403,-3.9874,-3.9345,-3.8749,-3.5801,-3.4391,-3.4336,-3.195,-3.0889,-3.0889,-3.0889,0.0,0.0,-3.1005,-3.1054,-3.1267,-3.0995,-3.0889,-3.0889,-3.0889,-3.0889,-3.0889,-3.0889,-3.0889,-3.0889,-3.0889,-3.0889,-3.0889,-3.0889,-3.0889,-3.0889,-3.0889,-3.0889,-3.0889,-3.0889,-3.0889,-3.0889,-3.0889,-3.0752,-3.0615,-3.0615,-3.0615,-3.0615,-3.0615,-3.0762,-3.0889,-3.0889,-3.0889,-3.083,-3.0644,-3.0771,-3.0664,-3.0029,-2.9941,-2.9687,-2.8994,-2.8545,-2.8291,-2.8291,-2.8291,-2.8014,-2.7241,-2.7091,-2.5955,-2.3585,-2.313,-2.2189,-2.053,-2.0025,-1.9815,-1.9815,-1.9433,-1.9374,-1.9625,-1.9625,-1.9674,-2.9092,-2.9961,-3.0322,-2.956,-2.8418,-2.7168,-2.5947,-2.4348,-2.3091,-2.3091,-2.276,-2.2604,-2.3013,-2.3091,-2.3091,-2.3091,-2.3091,-2.3594,-2.493,-2.5449,-2.6386,-2.832,0.0,-2.9775,-3.1319,-3.1592,-3.2012,-3.2744,0.0,0.0,-3.3418,-3.4642,-3.5981,-3.7237,-3.8785,-3.9729,-4.0174,-3.9633,-3.9104,-3.8509,-3.6118,-3.4725,-3.4336,-3.2342,-3.1228,-3.0889,-3.1286,0.0,0.0,-3.1893,-3.1883,-3.1825,-3.1556,-3.1228,-3.0889,-3.0889,-3.0889,-3.0889,-3.0889,-3.0889,-3.0889,-3.0889,-3.0889,-3.0889,-3.0889,-3.0889,-3.0889,-3.0889,-3.0889,-3.0889,-3.0889,-3.0889,-3.0889,-3.0889,-3.0781,-3.0684,-3.0684,-3.0684,-3.0684,-3.0684,-3.0801,-3.0889,-3.0889,-3.0889,-3.0889,-3.0889,-3.0889,-3.0771,-3.0449,-3.0283,-2.9961,-2.9365,-2.8916,-2.8564,-2.831,-2.8291,-2.7799,-2.6581,-2.6527,-2.547,-2.3087,-2.2792,-2.2061,-2.0867,-2.023,-1.9901,-1.9901,-1.9484,-1.9492,-1.9815,-1.9815,-1.993,-2.762,-2.8677,-2.9473,-2.9033,-2.7969,-2.6797,-2.5888,-2.4348,-2.3091,-2.3091,-2.276,-2.2604,-2.3013,-2.3091,-2.3091,-2.3091,-2.3091,-2.3594,-2.493,-2.5449,-2.6221,-2.7529,-2.8047,-2.8643,-2.9567,-3.1152,-3.2334,0.0,0.0,0.0,-3.3418,-3.4642,-3.5981,-3.7237,-3.929,-4.015,-3.9621,-3.9092,-3.8551,-3.7986,-3.6785,-3.5564,-3.4336,-3.3233,-3.2018,0.0,0.0,0.0,0.0,-3.3989,-3.3877,-3.3077,-3.2789,-3.196,-3.0889,-3.0889,-3.0889,-3.0889,-3.0889,-3.0889,-3.0889,-3.0889,-3.0889,-3.0889,-3.0889,-3.0889,-3.0889,-3.0889,-3.0889,-3.0889,-3.0889,-3.0889,-3.0889,-3.0889,-3.0537,-3.0205,-3.0205,-3.0205,-3.0205,-3.0205,-3.0576,-3.0889,-3.0889,-3.0889,-3.0889,-3.0889,-3.0889,-3.0889,-3.0889,-3.0478,-3.0195,-3.0185,-2.9814,-2.9219,-2.8359,-2.8291,-2.7799,-2.6581,-2.6527,-2.547,-2.3087,-2.2974,-2.2418,-2.1203,-2.0567,-2.0176,-2.0176,-1.9586,-1.9492,-1.9815,-1.9815,-1.993,-2.5742,-2.6836,-2.7578,-2.6543,-2.5977,-2.5459,-2.46,-2.3525,-2.275,-2.3033,-2.276,-2.2604,-2.3013,-2.3091,-2.3198,-2.3535,-2.3584,-2.3828,-2.4521,-2.5527,-2.6553,-2.7601,-2.9346,-3.0488,0.0,0.0,-3.2529,0.0,0.0,0.0,-3.3418,-3.4348,-3.5644,-3.7226,-3.8773,-3.9763,-4.015,-3.9621,-3.9092,-3.8551,-3.696,-3.6013,-3.5564,-3.4391,-3.3674,0.0,0.0,0.0,0.0,-3.3821,-3.3427,-3.3237,-3.216,-3.1392,-3.0889,-3.0889,-3.0889,-3.0889,-3.0889,-3.0889,-3.0889,-3.0889,-3.0889,-3.0889,-3.0889,-3.0889,-3.0889,-3.0889,-3.0889,-3.0889,-3.0889,-3.0889,-3.0889,-3.0889,-3.0781,-3.0674,-3.0674,-3.0674,-3.0674,-3.0674,-3.0791,-3.0889,-3.0889,-3.0889,-3.0889,-3.0889,-3.0889,-3.0889,-3.0889,-3.0762,-3.0547,-3.0234,-3.0078,-2.9648,-2.8789,-2.8721,-2.7751,-2.5415,-2.5287,-2.4245,-2.1873,-2.1767,-2.1596,-2.1211,-2.0786,-2.0511,-2.0511,-2.0142,-2.0098,-2.042,-2.0647,-2.0808,-2.4062,-2.5166,-2.584,-2.5019,-2.4707,-2.445,-2.3711,-2.3018,-2.2539,-2.2646,-2.2461,-2.2353,-2.2617,-2.275,-2.2955,-2.3262,-2.3584,-2.3994,-2.458,-2.5664,-2.6768,-2.7783,-2.9609,0.0,0.0,-3.1562,0.0,0.0,0.0,0.0,-3.3418,-3.3893,-3.4953,-3.651,-3.7969,-3.8874,-3.9391,-3.934,-3.9032,-3.8503,-3.738,-3.6394,-3.5509,-3.5234,-3.4625,0.0,0.0,0.0,0.0,-3.4725,-3.4202,-3.4013,-3.2436,-3.145,-3.0889,-3.0889,-3.0889,-3.0889,-3.0889,-3.0889,-3.0889,-3.0889,-3.0889,-3.0889,-3.0889,-3.0889,-3.0889,-3.0889,-3.0889,-3.0889,-3.0889,-3.0889,-3.0889,-3.0889,-3.0889,-3.0889,-3.0889,-3.0889,-3.0889,-3.0889,-3.0889,-3.0889,-3.0889,-3.0889,-3.0889,-3.0889,-3.0889,-3.0889,-3.0889,-3.0889,-3.0781,-3.0488,-3.0459,-3.0176,-2.9463,-2.9101,-2.7786,-2.5134,-2.4812,-2.3623,-2.1318,-2.1211,-2.1211,-2.1211,-2.0889,-2.072,-2.072,-2.0467,-2.0523,-2.0728,-2.1057,-2.1211,0.0,-2.3539,-2.4219,-2.416,-2.3916,-2.3584,-2.3208,-2.2754,0.0,-2.2002,-2.1875,-2.1855,-2.1924,-2.2246,-2.2529,-2.2598,-2.3301,-2.4131,-2.5047,-2.5947,-2.7021,0.0,-2.9141,0.0,-2.9636,-3.0752,0.0,0.0,0.0,0.0,-3.335,-3.335,-3.3905,-3.5191,-3.6791,-3.7702,-3.7747,-3.8513,-3.8599,-3.8046,-3.7945,-3.6762,-3.467,-3.5729,-3.5068,0.0,0.0,0.0,0.0,-3.6394,-3.5772,-3.5134,-3.3279,-3.1903,-3.0889,-3.0889,-3.0889,-3.0889,-3.0889,-3.0889,-3.0889,-3.0889,-3.0889,-3.0889,-3.0889,-3.0889,-3.0889,-3.0889,-3.0889,-3.0889,-3.0889,-3.0889,-3.0889,-3.0889,-3.0889,-3.0889,-3.0889,-3.0889,-3.0889,-3.0889,-3.0889,-3.0889,-3.0889,-3.0889,-3.0889,-3.0889,-3.0889,-3.0889,-3.0889,-3.0889,-3.0889,-3.0889,-3.0889,-3.0713,-3.0283,-2.9463,-2.7936,-2.5561,-2.4949,-2.3623,-2.1318,-2.1211,-2.1211,-2.1211,-2.0911,-2.0757,-2.0757,-2.0757,-2.0757,-2.0764,-2.1064,-2.1211,-2.1094,0.0,-2.2314,-2.1641,-2.2148,-2.2705,0.0,-2.2109,-2.21,-2.2324,-2.1846,-2.1592,-2.2246,-2.2441,-2.2725,-2.3389,-2.3926,-2.457,-2.5459,-2.7168,0.0,-2.9189,-3.0049,-3.0312,-2.9629,-3.0752,0.0,0.0,0.0,-3.25,-3.292,-3.2637,-3.2939,-3.3829,-3.5493,-3.6933,-3.824,-3.9045,-3.9152,-3.8611,-3.7254,-3.6827,-3.715,-3.6503,-3.6394,0.0,0.0,0.0,-3.8238,-3.6111,-3.5212,-3.5079,-3.2607,-3.1334,-3.0889,-3.0889,-3.0889,-3.0889,-3.0889,-3.0889,-3.0889,-3.0889,-3.0889,-3.0889,-3.0889,-3.0889,-3.0889,-3.0889,-3.0889,-3.0889,-3.0889,-3.0889,-3.0889,-3.0889,-3.0889,-3.0889,-3.0889,-3.0889,-3.0889,-3.0889,-3.0889,-3.0889,-3.0889,-3.0889,-3.0889,-3.0889,-3.0889,-3.0889,-3.0889,-3.0889,-3.0889,-3.0889,-3.0889,-3.085,-3.0732,-2.9922,-2.8257,-2.557,-2.4949,-2.3623,-2.1318,-2.1211,-2.1211,-2.1211,-2.113,-2.1094,-2.1094,-2.1094,-2.1094,-2.1094,-2.1174,-2.1211,-2.0605,-2.0957,-2.1211,-2.0947,-2.1406,-2.1865,-2.1641,-2.1592,-2.1592,-2.1611,-2.125,-2.1133,-2.1765,-2.209,-2.25,-2.3359,-2.4014,-2.4863,-2.6093,0.0,-2.8652,-2.9528,-3.0,-3.0254,0.0,0.0,0.0,0.0,0.0,-3.2139,-3.2764,-3.2578,-3.2754,-3.3398,-3.4693,-3.5934,-3.7135,-3.8521,-3.8699,-3.7597,-3.6653,-3.5959,-3.5553,-3.5443,-3.5443,0.0,0.0,0.0,-3.6858,-3.4725,-3.4056,-3.408,-3.194,-3.1054,-3.0889,-3.0889,-3.0889,-3.0889,-3.0889,-3.0889,-3.0889,-3.0889,-3.0889,-3.0889,-3.0889,-3.0889,-3.0889,-3.0889,-3.0889,-3.0889,-3.0889,-3.0889,-3.0889,-3.0889,-3.0889,-3.0889,-3.0889,-3.0889,-3.0889,-3.0889,-3.0889,-3.0889,-3.0889,-3.0889,-3.0889,-3.0889,-3.0889,-3.0889,-3.0889,-3.0889,-3.0889,-3.0889,-3.0889,-3.0889,-3.0889,-3.0254,-2.8691,-2.5838,-2.5426,-2.4031,-2.1332,-2.135,-2.1364,-2.1211,-2.1211,-2.1211,-2.1211,-2.1211,-2.1211,-2.1211,-2.1211,-2.1211,-2.0605,-2.0654,-2.0742,-2.1055,-2.1142,-2.119,-2.119,-2.119,-2.1083,-2.0742,-2.0703,-2.081,-2.121,-2.1738,-2.2334,-2.3071,-2.4072,0.0,-2.706,-2.7685,-2.8413,-2.9443,-2.9744,0.0,0.0,0.0,0.0,0.0,0.0,-3.1797,-3.2656,-3.2695,-3.292,-3.3408,-3.4197,-3.4872,-3.5412,-3.7476,-3.7758,-3.6177,-3.6013,-3.4902,-3.296,-3.3786,-3.373,-3.3016,0.0,0.0,-3.4814,-3.3289,-3.2882,-3.2964,-3.1498,-3.0889,-3.0889,-3.0889,-3.0889,-3.0889,-3.0889,-3.0889,-3.0889,-3.0889,-3.0889,-3.0889,-3.0889,-3.0889,-3.0889,-3.0889,-3.0889,-3.0889,-3.0889,-3.0889,-3.0889,-3.0889,-3.0889,-3.0889,-3.0889,-3.0889,-3.0889,-3.0889,-3.0889,-3.0889,-3.0889,-3.0889,-3.0889,-3.0889,-3.0889,-3.0889,-3.0889,-3.0889,-3.0889,-3.0889,-3.0889,-3.0889,-3.0889,-3.0537,-2.9116,-2.6276,-2.5958,-2.4524,-2.1421,-2.1503,-2.1496,-2.1218,-2.1211,-2.1211,-2.1211,-2.1211,-2.1211,-2.1211,-2.1211,-2.1211,-2.0605,-2.084,-2.1055,-2.0742,-2.0957,-2.119,-2.119,-2.119,-2.1171,-2.1103,-2.1093,-2.1269,-2.1709,-2.2422,-2.3105,-2.3603,-2.5039,-2.668,0.0,0.0,-2.9411,-2.9607,0.0,-3.0449,0.0,0.0,0.0,0.0,0.0,-3.1357,-3.2217,-3.2266,-3.2617,-3.3398,-3.3781,-3.4082,-3.4188,-3.6262,-3.6902,-3.6177,-3.5168,-3.4503,-3.4112,-3.3346,-3.3402,-3.4168,0.0,-3.4603,-3.4814,-3.3289,-3.2882,-3.2964,-3.1498,-3.0889,-3.0889,-3.0889,-3.0889,-3.0889,-3.0889,-3.0889,-3.0889,-3.0889,-3.0889,-3.0889,-3.0889,-3.0889,-3.0889,-3.0889,-3.0889,-3.0889,-3.0889,-3.0889,-3.0889,-3.0889,-3.0889,-3.0889,-3.0889,-3.0889,-3.0889,-3.0889,-3.0889,-3.0889,-3.0889,-3.0889,-3.0889,-3.0889,-3.0889,-3.0889,-3.0889,-3.0889,-3.0889,-3.0889,-3.0889,-3.0889,-3.0889,-3.083,-2.9521,-2.6624,-2.6104,-2.4581,-2.1752,-2.1408,-2.1262,-2.1211,-2.1211,-2.1211,-2.1211,-2.1211,-2.1211,-2.1211,-2.1211,-2.1211,-2.0605,-2.0713,-2.0879,-2.0918,-2.126,-2.1582,-2.1582,-2.1582,-2.1582,-2.1582,-2.1582,-2.1787,-2.2494,-2.3076,-2.3867,-2.501,-2.625,-2.7353,-2.8135,-2.8613,-2.9053,0.0,0.0,0.0,0.0,0.0,0.0,0.0,0.0,0.0,-3.1787,-3.1816,-3.21,-3.2725,-3.2664,-3.2901,-3.3599,-3.4286,-3.4844,-3.5223,-3.467,-3.4067,-3.3459,-3.2227,-3.2008,-3.2504,0.0,-3.2618,-3.2721,-3.2008,-3.1777,-3.1815,-3.117,-3.0889,-3.0889,-3.0889,-3.0889,-3.0889,-3.0889,-3.0889,-3.0889,-3.0889,-3.0889,-3.0889,-3.0889,-3.0889,-3.0889,-3.0889,-3.0889,-3.0889,-3.0889,-3.0889,-3.0889,-3.0889,-3.0889,-3.0889,-3.0889,-3.0889,-3.0889,-3.0889,-3.0889,-3.0889,-3.0889,-3.0889,-3.0889,-3.0889,-3.0889,-3.0889,-3.0889,-3.0889,-3.0889,-3.0889,-3.0889,-3.0889,-3.0889,-3.0889,-2.971,-2.6927,-2.4783,-2.3126,-2.2016,-2.1474,-2.1211,-2.1211,-2.1211,-2.1211,-2.1211,-2.1211,-2.1211,-2.1211,-2.1211,-2.1211,-2.0605,-2.0683,-2.0781,-2.1016,-2.1328,-2.166,-2.1963,-2.1953,-2.1943,-2.2139,-2.2266,-2.25,-2.31,-2.3717,-2.4629,-2.6269,-2.7256,-2.7933,-2.8139,-2.8476,-2.9062,-2.9922,0.0,0.0,0.0,0.0,0.0,0.0,0.0,0.0,-3.1504,-3.1514,-3.1719,-3.2219,-3.1738,-3.191,-3.2891,-3.274,-3.313,-3.4,-3.4,-3.3402,-3.2238,-3.1344,-3.0889,-3.0889,-3.0889,-3.0889,-3.0889,-3.0889,-3.0889,-3.0889,-3.0889,-3.0889,-3.0889,-3.0889,-3.0889,-3.0889,-3.0889,-3.0889,-3.0889,-3.0889,-3.0889,-3.0889,-3.0889,-3.0889,-3.0889,-3.0889,-3.0889,-3.0889,-3.0889,-3.0889,-3.0889,-3.0889,-3.0889,-3.0889,-3.0889,-3.0889,-3.0889,-3.0889,-3.0889,-3.0889,-3.0889,-3.0889,-3.0889,-3.0889,-3.0889,-3.0889,-3.0889,-3.0889,-3.0889,-3.0889,-3.0889,-3.0772,-3.046,-3.0157,-2.8961,-2.6618,-2.3901,-2.2312,-2.2067,-2.1591,-2.1284,-2.1211,-2.1211,-2.1211,-2.1211,-2.1211,-2.1211,-2.1211,-2.1211,-2.1247,-2.0605,-2.0869,-2.1054,-2.0752,-2.0674,-2.1016,-2.2197,-2.2168,-2.2109,-2.2953,-2.3379,-2.3555,-2.3266,-2.4206,-2.541,-2.6748,-2.7685,-2.8525,-2.9381,0.0,-3.0391,-3.1269,0.0,0.0,0.0,0.0,0.0,0.0,0.0,0.0,-3.1514,-3.1514,-3.1719,-3.2219,-3.1738,-3.1514,-3.1633,-3.2347,-3.2742,-3.2789,-3.2789,-3.218,-3.1005,-3.0947,-3.0889,-3.0889,-3.0889,-3.0889,-3.0889,-3.0889,-3.0889,-3.0889,-3.0889,-3.0889,-3.0889,-3.0889,-3.0889,-3.0889,-3.0889,-3.0889,-3.0889,-3.0889,-3.0889,-3.0889,-3.0889,-3.0889,-3.0889,-3.0889,-3.0889,-3.0889,-3.0889,-3.0889,-3.0889,-3.0889,-3.0889,-3.0889,-3.0889,-3.0889,-3.0889,-3.0889,-3.0889,-3.0889,-3.0889,-3.0889,-3.0889,-3.0889,-3.0889,-3.0889,-3.0889,-3.0889,-3.0889,-3.0889,-3.0889,-3.0401,-2.9166,-2.7975,-2.6558,-2.4896,-2.4507,-2.3611,-2.1811,-2.1686,-2.1518,-2.1218,-2.1211,-2.1211,-2.1211,-2.1211,-2.1211,-2.1211,-2.1211,-2.1372,-2.0605,-2.0889,-2.1151,-2.1025,-2.0986,-2.125,-2.2275,-2.2803,-2.3164,-2.3486,-2.4326,-2.4951,-2.4795,-2.5596,-2.6445,-2.6934,-2.8184,-2.9199,-2.9521,-3.0185,-3.0752,0.0,0.0,0.0,0.0,0.0,0.0,0.0,0.0,0.0,-3.0684,-3.0693,-3.0908,-3.1357,-3.1211,-3.1133,-3.1133,-3.1126,-3.1267,-3.1566,-3.2352,-3.2467,-3.2018,-3.1228,-3.0889,-3.0889,-3.0889,-3.0889,-3.0889,-3.0889,-3.0889,-3.0889,-3.0889,-3.0889,-3.0889,-3.0889,-3.0889,-3.0889,-3.0889,-3.0889,-3.0889,-3.0889,-3.0693,-3.0459,-3.0459,-3.0459,-3.0459,-3.0459,-3.0664,-3.0889,-3.0889,-3.0889,-3.0889,-3.0889,-3.0889,-3.0889,-3.0889,-3.0889,-3.0889,-3.0889,-3.0889,-3.0889,-3.0889,-3.0889,-3.0889,-3.0889,-3.0889,-3.0889,-3.0889,-3.0889,-3.0889,-3.0889,-3.0889,-3.0333,-2.8979,-2.7718,-2.6292,-2.4683,-2.3823,-2.2969,-2.2075,-2.1803,-2.1642,-2.1511,-2.1313,-2.1211,-2.1211,-2.1415,-2.1511,-2.1518,-2.1723,-2.1884,-2.0605,-2.0791,-2.1025,-2.1025,-2.124,-2.1619,-2.2519,-2.3271,-2.3945,-2.4492,-2.5098,-2.5654,-2.6015,-2.6347,-2.6748,0.0,-2.8428,-2.9414,-2.9551,-3.0205,0.0,0.0,0.0,0.0,0.0,0.0,0.0,0.0,0.0,0.0,0.0,-3.0,-3.0146,-3.0469,-3.0469,-3.0537,-3.0674,-3.0361,-3.0361,-3.0674,-3.1659,-3.2123,-3.2123,-3.1128,-3.0752,-3.0889,-3.0889,-3.0889,-3.0889,-3.0889,-3.0889,-3.0889,-3.0889,-3.0889,-3.0889,-3.0889,-3.0889,-3.0889,-3.0889,-3.0889,-3.0889,-3.0889,-3.0674,-3.042,-3.042,-3.042,-3.042,-3.042,-3.0644,-3.0889,-3.0889,-3.0889,-3.0889,-3.0889,-3.0889,-3.0889,-3.0889,-3.0889,-3.0889,-3.0889,-3.0889,-3.0889,-3.0889,-3.0889,-3.0889,-3.0889,-3.0889,-3.0889,-3.0889,-3.0889,-3.0889,-3.0889,-3.0889,-3.0216,-2.8453,-2.7529,-2.6154,-2.4081,-2.32,-2.2593,-2.2198,-2.1972,-2.1803,-2.1693,-2.1379,-2.1262,-2.1364,-2.1591,-2.1752,-2.1854,-2.2081,-2.2235,-2.0605,-2.0605,-2.0615,-2.0615,-2.128,-2.2119,-2.2906,-2.3486,-2.4287,-2.6035,-2.5742,-2.5527,-2.6777,-2.6328,-2.6172,-2.7503,-2.8369,-2.9072,-2.9502,0.0,0.0,0.0,0.0,0.0,0.0,0.0,0.0,0.0,0.0,0.0,0.0,-2.956,-2.9626,-2.9636,-2.9636,-2.9775,-3.0195,-3.0195,-3.0195,-3.0205,-3.0664,-3.0879,-3.0869,-3.041,-3.0459,-3.0889,-3.0889,-3.0889,-3.0889,-3.0889,-3.0889,-3.0889,-3.0889,-3.0889,-3.0889,-3.0889,-3.0889,-3.0889,-3.0889,-3.0889,-3.0889,-3.0889,-3.0889,-3.0889,-3.0889,-3.0889,-3.0889,-3.0889,-3.0889,-3.0889,-3.0889,-3.0889,-3.0889,-3.0889,-3.0889,-3.0889,-3.0889,-3.0889,-3.0889,-3.0889,-3.0889,-3.0889,-3.0889,-3.0889,-3.0889,-3.0889,-3.0889,-3.0889,-3.0889,-3.0889,-3.0889,-3.0889,-3.0889,-2.9853,-2.7194,-2.6987,-2.5739,-2.2767,-2.293,-2.2835,-2.2213,-2.2184,-2.2037,-2.1715,-2.1386,-2.1379,-2.1701,-2.1708,-2.1869,-2.2184,-2.2191,-2.2345,-2.0605,-2.0791,-2.1035,-2.1035,-2.1689,-2.2549,-2.3408,-2.3926,-2.4727,-2.6465,-2.6387,-2.6201,-2.6894,-2.706,0.0,-2.7197,-2.8174,-2.8965,-2.9092,0.0,0.0,0.0,0.0,0.0,0.0,0.0,0.0,0.0,0.0,0.0,0.0,-2.9111,-2.9385,-2.999,-3.001,-3.0225,-3.0684,-3.0361,-3.0361,-3.0674,-3.0195,-3.0117,-3.041,-3.0596,-3.0762,-3.0889,-3.0889,-3.0889,-3.0889,-3.0889,-3.0889,-3.0889,-3.0889,-3.0889,-3.0889,-3.0889,-3.0889,-3.0889,-3.0889,-3.0889,-3.0889,-3.0889,-3.0674,-3.04,-3.04,-3.04,-3.04,-3.04,-3.0635,-3.0889,-3.0889,-3.0889,-3.0889,-3.0889,-3.0889,-3.0889,-3.0889,-3.0889,-3.0889,-3.0889,-3.0889,-3.0889,-3.0889,-3.0889,-3.0889,-3.0889,-3.0889,-3.0889,-3.0889,-3.0889,-3.0889,-3.0889,-3.0089,-2.882,-2.7134,-2.6156,-2.4893,-2.3091,-2.3054,-2.2923,-2.2513,-2.2491,-2.2447,-2.2352,-2.2045,-2.1942,-2.2045,-2.2242,-2.2396,-2.2498,-2.2725,-2.2886,-2.0605,-2.0762,-2.1016,-2.1151,-2.196,-2.3076,-2.4287,-2.5019,-2.584,-2.7236,-2.7051,-2.6816,-2.7412,-2.7461,0.0,-2.751,-2.8164,-2.873,0.0,0.0,0.0,0.0,0.0,0.0,0.0,0.0,0.0,0.0,0.0,0.0,0.0,-2.8828,-2.916,-2.9678,-2.9687,-2.9912,-3.0361,-2.9912,-2.9834,-3.0098,-2.9736,-2.9609,-2.9707,-3.0332,-3.0713,-3.0889,-3.0889,-3.0889,-3.0889,-3.0889,-3.0889,-3.0889,-3.0889,-3.0889,-3.0869,-3.0684,-3.0615,-3.0615,-3.0615,-3.0615,-3.0644,-3.083,-3.0703,-3.0478,-3.0478,-3.0478,-3.0478,-3.0478,-3.0674,-3.0889,-3.0889,-3.0889,-3.0889,-3.0889,-3.0889,-3.0889,-3.0889,-3.0889,-3.0889,-3.0889,-3.0889,-3.0889,-3.0889,-3.0889,-3.0889,-3.0889,-3.0889,-3.0889,-3.0889,-3.0889,-3.0889,-3.0889,-2.9717,-2.8385,-2.7134,-2.5798,-2.4517,-2.3168,-2.3106,-2.3018,-2.2828,-2.2689,-2.2623,-2.2623,-2.2337,-2.2242,-2.2359,-2.2535,-2.2689,-2.282,-2.3018,-2.3106,-2.0605,-2.0635,-2.0742,-2.123,-2.2301,-2.3705,-2.5362,-2.6376,-2.7236,-2.8018,-2.7617,-2.7373,-2.8144,-2.7656,-2.7383,-2.8164,-2.8291,-2.8428,0.0,0.0,0.0,0.0,0.0,0.0,0.0,0.0,0.0,0.0,0.0,0.0,0.0,-2.8662,-2.8877,-2.8916,-2.8877,-2.9072,-2.9502,-2.9082,-2.8877,-2.8926,-2.9287,-2.9268,-2.8945,-2.9766,-3.0391,-3.083,-3.0869,-3.0889,-3.0889,-3.0889,-3.0889,-3.0889,-3.0889,-3.0869,-3.0771,-3.0351,-3.0195,-3.0195,-3.0195,-3.0225,-3.0332,-3.0752,-3.0889,-3.0889,-3.0889,-3.0889,-3.0889,-3.0889,-3.0889,-3.0889,-3.0889,-3.0889,-3.0889,-3.0889,-3.0889,-3.0889,-3.0889,-3.0889,-3.0889,-3.0889,-3.0889,-3.0889,-3.0889,-3.0889,-3.0889,-3.0889,-3.0889,-3.0889,-3.0889,-3.0889,-3.0889,-3.0889,-2.9599,-2.8265,-2.7073,-2.5737,-2.4402,-2.3175,-2.3106,-2.3106,-2.3106,-2.2828,-2.2667,-2.2667,-2.2403,-2.2396,-2.2667,-2.2667,-2.282,-2.3106,-2.3106,-2.3106,-2.0605,-2.082,-2.1279,-2.2041,-2.3457,-2.4932,-2.6006,-2.665,-2.707,-2.7256,-2.7676,-2.8076,-2.8262,-2.8144,-2.8076,-2.8262,-2.8291,0.0,0.0,0.0,0.0,0.0,0.0,0.0,0.0,0.0,0.0,0.0,0.0,0.0,-2.8291,-2.8379,-2.8574,-2.8906,-2.8603,-2.8633,-2.9053,-2.8643,-2.8594,0.0,-2.8682,-2.8691,-2.8935,-2.9463,-2.9941,-3.0361,-3.0732,-3.0889,-3.0889,-3.0889,-3.0889,-3.0889,-3.0889,-3.0664,-3.0332,-3.0234,-3.0195,-3.0195,-3.0195,-3.043,-3.0762,-3.0859,-3.0889,-3.0889,-3.0889,-3.0889,-3.0889,-3.0889,-3.0889,-3.0889,-3.0889,-3.0889,-3.0889,-3.0889,-3.0889,-3.0889,-3.0889,-3.0889,-3.0889,-3.0889,-3.0889,-3.0889,-3.0889,-3.0889,-3.0889,-3.0889,-3.0889,-3.0889,-3.0889,-3.0889,-3.0889,-3.0889,-2.8829,-2.7315,-2.7013,-2.4879,-2.3417,-2.3106,-2.3106,-2.3106,-2.3106,-2.304,-2.3003,-2.3003,-2.2945,-2.2937,-2.3003,-2.3003,-2.304,-2.3106,-2.3106,-2.3106,-2.0605,-2.0889,-2.1492,-2.2812,-2.3945,-2.5039,-2.6143,-2.6562,-2.6768,-2.6973,-2.7695,-2.8291,-2.8291,-2.8291,-2.8291,-2.8291,0.0,0.0,0.0,0.0,0.0,0.0,0.0,0.0,0.0,0.0,0.0,0.0,0.0,-2.8291,-2.8291,-2.8291,-2.8486,-2.8906,-2.831,-2.8193,-2.8613,-2.7998,-2.7793,-2.8008,-2.7783,-2.7793,-2.8027,-2.8672,-2.9189,-2.9609,-3.0059,-3.0264,-3.0293,-3.0723,-3.0762,-3.0576,-3.0801,-3.0742,-3.0508,-3.0273,-3.0068,-2.9893,-2.9893,-3.0059,-3.0293,-3.0488,-3.0713,-3.0889,-3.0889,-3.0889,-3.0889,-3.0889,-3.0889,-3.0889,-3.0889,-3.0889,-3.0889,-3.0889,-3.0889,-3.0889,-3.0889,-3.0889,-3.0889,-3.0889,-3.0889,-3.0889,-3.0889,-3.0889,-3.0889,-3.0889,-3.0889,-3.0889,-3.0889,-3.0889,-3.0889,-3.0889,-2.8591,-2.7013,-2.7013,-2.4579,-2.3106,-2.3106,-2.3106,-2.3106,-2.3106,-2.3106,-2.3106,-2.3106,-2.3106,-2.3106,-2.3106,-2.3106,-2.3106,-2.3106,-2.3106,-2.3106,-2.0605,-2.0996,-2.1795,-2.3398,-2.416,-2.4834,-2.6006,-2.6338,-2.6484,-2.6836,-2.7529,-2.8076,-2.8076,-2.8076,-2.8076,-2.8076,0.0,0.0,0.0,0.0,0.0,0.0,0.0,0.0,0.0,0.0,0.0,0.0,0.0,-2.8144,-2.8076,-2.8076,-2.8232,-2.8574,-2.7842,-2.7669,-2.7959,-2.7187,-2.6836,-2.6904,-2.6904,-2.6865,-2.6816,-2.7529,-2.8164,-2.873,-2.916,-2.945,-2.9512,-3.0254,-3.041,-3.0234,-3.0625,-3.0732,-3.0625,-3.0312,-2.9932,-2.9626,-2.9626,-2.9675,-2.9726,-3.0,-3.0351,-3.0674,-3.0752,-3.0771,-3.0791,-3.0869,-3.0889,-3.0889,-3.0889,-3.0889,-3.0889,-3.0889,-3.0889,-3.0889,-3.0889,-3.0889,-3.0889,-3.0889,-3.0889,-3.0889,-3.0889,-3.0889,-3.0889,-3.0889,-3.0889,-3.0889,-3.0889,-3.0889,-3.0889,-3.0889,-2.8591,-2.7013,-2.7013,-2.4579,-2.3106,-2.3106,-2.3106,-2.3106,-2.3106,-2.3106,-2.3106,-2.3106,-2.3106,-2.3106,-2.3106,-2.3106,-2.3106,-2.3106,-2.3106,-2.3106,-2.0605,-2.1435,-2.2578,-2.3545,-2.4385,-2.5127,-2.5645,-2.6113,-2.6406,0.0,-2.6855,-2.7187,-2.7187,-2.7187,-2.7187,0.0,0.0,0.0,0.0,0.0,0.0,0.0,0.0,0.0,0.0,0.0,0.0,0.0,-2.7806,-2.7588,-2.7207,-2.7187,-2.7217,-2.7266,-2.6807,-2.6582,-2.6641,-2.6152,-2.6094,-2.6475,-2.6475,-2.6269,-2.5859,-2.5976,-2.6719,-2.7851,-2.8281,-2.8672,-2.9014,-2.9131,-2.958,-3.0205,-3.0264,-3.0068,-2.9785,-3.0078,-2.9932,-2.9626,-2.9626,-2.9814,-3.0059,-2.9756,-2.9697,-2.9814,-3.0185,-3.0293,-3.0371,-3.0781,-3.0889,-3.0889,-3.0889,-3.0889,-3.0889,-3.0889,-3.0889,-3.0889,-3.0889,-3.0889,-3.0889,-3.0889,-3.0889,-3.0889,-3.0889,-3.0889,-3.0889,-3.0889,-3.0889,-3.0889,-3.0889,-3.0889,-3.0889,-3.0889,-2.8591,-2.7013,-2.7013,-2.4579,-2.3106,-2.3106,-2.3106,-2.3106,-2.3106,-2.3106,-2.3106,-2.3106,-2.3106,-2.3106,-2.3106,-2.3106,-2.3106,-2.3106,-2.3106,-2.3106,-2.1212,-2.1543,-2.2119,-2.3457,-2.4072,-2.4531,-2.5205,-2.5703,-2.6025,-2.6025,-2.6172,-2.6395,-2.6924,-2.7012,-2.7012,0.0,0.0,0.0,0.0,0.0,0.0,0.0,0.0,0.0,0.0,0.0,0.0,0.0,-2.7305,-2.7217,-2.7021,-2.6797,-2.6768,-2.7012,-2.6367,-2.6143,-2.6387,-2.5908,-2.5781,-2.6025,-2.6025,-2.5918,-2.5693,-2.5693,-2.6182,-2.6973,-2.7393,-2.7676,-2.7891,-2.8369,-2.8789,-2.915,-2.9394,-2.9512,-2.959,-2.9775,-2.958,-2.9209,-2.9209,-2.9326,-2.9443,-2.9268,-2.9375,-2.96,-2.9795,-2.9844,-2.9893,-3.0088,-3.0322,-3.0508,-3.0508,-3.0693,-3.0889,-3.0889,-3.0889,-3.0889,-3.0889,-3.0889,-3.0889,-3.0889,-3.0889,-3.0889,-3.0889,-3.0889,-3.0889,-3.0889,-3.0889,-3.0889,-3.0889,-3.0889,-3.0889,-3.0889,-2.8573,-2.7004,-2.7013,-2.4579,-2.3106,-2.3106,-2.3106,-2.3106,-2.3106,-2.3106,-2.3106,-2.3106,-2.3106,-2.3106,-2.3106,-2.3106,-2.3106,-2.3106,-2.3106,-2.3106,-2.1407,-2.1396,-2.1551,-2.3096,-2.3545,-2.3848,-2.4707,-2.5244,-2.5566,0.0,-2.5615,-2.5888,-2.6572,-2.6689,-2.6689,0.0,0.0,0.0,0.0,0.0,0.0,0.0,0.0,0.0,0.0,0.0,0.0,0.0,-2.6855,-2.6807,-2.6699,-2.6504,-2.6484,-2.668,-2.6132,-2.6006,-2.6221,-2.5849,-2.5693,-2.5693,-2.5693,-2.5693,-2.5693,-2.5693,-2.5869,-2.624,-2.6553,-2.6758,-2.6904,-2.7549,-2.7939,-2.8174,-2.8594,-2.8955,-2.9277,-2.9548,-2.9287,-2.8916,-2.8916,-2.8916,-2.8896,-2.8789,-2.8975,-2.9268,-2.9375,-2.9404,-2.9453,-2.9668,-2.9873,-3.0088,-3.0312,-3.0547,-3.0742,-3.0859,-3.0889,-3.0889,-3.0889,-3.0889,-3.0889,-3.0889,-3.0889,-3.0889,-3.0889,-3.0889,-3.0889,-3.0889,-3.0889,-3.0889,-3.0889,-3.0889,-3.0889,-3.0889,-2.8573,-2.6996,-2.7013,-2.4579,-2.3106,-2.3106,-2.3106,-2.3106,-2.3106,-2.3106,-2.3106,-2.3106,-2.3106,-2.3106,-2.3106,-2.3106,-2.3106,-2.3106,-2.3106,-2.3043,-2.0664,-2.0928,-2.1405,-2.2353,-2.2838,-2.3354,-2.4258,-2.4785,-2.5145,-2.5145,-2.5439,-2.5703,-2.5742,-2.5752,0.0,0.0,0.0,0.0,0.0,0.0,0.0,0.0,0.0,0.0,0.0,0.0,0.0,0.0,-2.6426,-2.624,-2.5771,-2.6172,-2.6211,-2.5771,-2.6162,-2.6172,-2.5723,-2.5703,-2.5693,-2.5693,-2.5693,-2.5693,-2.5693,-2.5693,-2.5703,-2.5723,-2.5742,-2.6035,-2.6426,-2.6465,-2.6973,-2.7796,-2.8164,-2.834,-2.8457,-2.9323,-2.9287,-2.8916,-2.8916,-2.8916,-2.8848,-2.8457,-2.834,-2.8428,-2.8838,-2.8955,-2.9121,-2.9941,-2.9893,-2.9795,-3.0635,-3.0547,-3.0342,-3.0781,-3.0889,-3.0889,-3.0889,-3.0889,-3.0889,-3.0889,-3.0889,-3.0889,-3.0889,-3.0889,-3.0889,-3.0889,-3.0889,-3.0889,-3.0889,-3.0889,-3.0889,-3.0889,-2.8591,-2.7013,-2.7013,-2.4579,-2.3106,-2.3106,-2.3106,-2.3106,-2.3106,-2.3106,-2.3106,-2.3106,-2.3106,-2.3106,-2.3106,-2.3106,-2.3106,-2.3106,-2.3106,-2.2926,-2.0918,-2.0898,-2.1016,-2.1894,-2.2432,-2.2812,-2.3125,-2.3945,-2.457,-2.4307,-2.459,-2.4893,-2.4893,-2.5304,0.0,0.0,0.0,0.0,0.0,0.0,0.0,0.0,0.0,0.0,0.0,0.0,0.0,0.0,0.0,-2.6318,-2.6162,-2.6562,-2.6719,-2.6562,-2.6445,-2.6182,-2.5693,-2.6016,-2.6162,-2.6162,-2.6162,-2.6162,-2.6143,-2.582,-2.5693,-2.5693,-2.5693,-2.5781,-2.5967,-2.5967,-2.6318,-2.6885,-2.7305,-2.7646,-2.793,-2.8295,-2.8418,-2.8476,-2.8203,-2.8291,-2.8496,-2.834,-2.8291,-2.832,-2.8467,-2.8516,-2.8584,-2.8887,-2.9062,-2.9287,-2.9893,-3.0117,-3.0312,-3.0781,-3.0889,-3.0889,-3.0889,-3.0889,-3.0889,-3.0889,-3.0889,-3.0889,-3.0889,-3.0889,-3.0889,-3.0889,-3.0889,-3.0889,-3.0889,-3.0889,-3.0889,-3.0889,-2.8591,-2.7004,-2.6996,-2.4625,-2.3106,-2.3106,-2.3106,-2.3106,-2.3106,-2.3106,-2.3106,-2.3106,-2.3106,-2.3106,-2.3106,-2.3106,-2.3106,-2.3106,-2.3106,-2.2918,-2.0928,-2.0791,-2.0781,-2.1484,-2.1875,-2.2077,-2.2266,-2.3066,-2.374,-2.3603,-2.3906,-2.4248,-2.4394,-2.4855,0.0,0.0,0.0,0.0,0.0,0.0,0.0,0.0,0.0,0.0,0.0,0.0,0.0,0.0,0.0,0.0,-2.6172,-2.6572,-2.6807,-2.6807,-2.6533,-2.6182,-2.5693,-2.6025,-2.6172,-2.6172,-2.6172,-2.6172,-2.6162,-2.582,-2.5693,-2.5693,-2.5693,-2.5693,-2.5693,-2.5693,-2.5859,-2.6211,-2.6641,-2.707,-2.7451,-2.7451,-2.7803,-2.8232,-2.7812,-2.7939,-2.8291,-2.8291,-2.8291,-2.8291,-2.8291,-2.8291,-2.832,-2.8467,-2.8603,-2.8877,-2.959,-3.0107,-3.0508,-3.082,-3.0889,-3.0889,-3.0889,-3.0889,-3.0889,-3.0889,-3.0889,-3.0889,-3.0889,-3.0889,-3.0889,-3.0889,-3.0889,-3.0889,-3.0889,-3.0889,-3.0704,-3.0274,-2.8283,-2.6823,-2.6382,-2.4386,-2.3106,-2.3106,-2.3106,-2.3106,-2.3106,-2.3106,-2.3106,-2.3106,-2.3106,-2.3106,-2.3106,-2.3106,-2.3106,-2.3106,-2.2988,-2.2668,0.0,0.0,0.0,-2.1064,-2.1181,-2.1307,-2.1748,0.0,-2.2607,-2.2955,-2.3428,-2.3857,-2.4268,-2.4346,0.0,0.0,0.0,0.0,0.0,0.0,0.0,0.0,0.0,0.0,0.0,0.0,0.0,0.0,-2.5674,-2.5693,-2.5693,-2.6162,-2.6396,-2.6387,-2.6387,-2.6182,-2.5693,-2.5703,-2.5703,-2.5703,-2.5703,-2.5713,-2.5723,-2.5703,-2.5693,-2.5703,-2.5693,-2.5693,-2.5693,-2.5693,-2.5693,-2.5732,-2.6221,-2.6641,-2.6992,-2.6992,-2.7539,-2.8213,-2.7845,-2.793,-2.8291,-2.8291,-2.8291,-2.8291,-2.8291,-2.8291,-2.8379,-2.8789,-2.8603,-2.8584,-2.9853,-3.0518,-3.0869,-3.0889,-3.0889,-3.0889,-3.0889,-3.0889,-3.0889,-3.0889,-3.0889,-3.0889,-3.0889,-3.0889,-3.0889,-3.0889,-3.0889,-3.0889,-3.0889,-3.0889,-3.0401,-2.9048,-2.7787,-2.6468,-2.5194,-2.3845,-2.3106,-2.3106,-2.3106,-2.3106,-2.3106,-2.3106,-2.3106,-2.3106,-2.3106,-2.3106,-2.3106,-2.3106,-2.3106,-2.3113,-2.2738,-2.2237,-2.0605,0.0,0.0,0.0,0.0,0.0,0.0,0.0,-2.2002,-2.1756,-2.2109,-2.2451,-2.2568,0.0,0.0,0.0,0.0,0.0,0.0,0.0,0.0,0.0,0.0,0.0,0.0,0.0,0.0,0.0,-2.5323,-2.5693,-2.5693,-2.6445,-2.6699,-2.6396,-2.6387,-2.6182,-2.5693,-2.6055,-2.6211,-2.6211,-2.6211,-2.6367,-2.6641,-2.5976,-2.5908,-2.6191,-2.583,-2.5693,-2.5693,-2.5693,-2.5693,-2.5732,-2.6221,-2.6455,-2.6562,-2.6562,-2.7109,-2.7773,-2.7344,-2.7676,-2.8291,-2.8291,-2.8291,-2.8291,-2.8291,-2.8291,-2.831,-2.8437,-2.8389,-2.8516,-2.9492,-3.0068,-3.0478,-3.081,-3.0889,-3.0889,-3.0889,-3.0889,-3.0889,-3.0889,-3.0889,-3.0889,-3.0889,-3.0889,-3.0889,-3.0889,-3.0889,-3.0889,-3.0889,-3.0889,-3.0401,-2.9048,-2.7787,-2.6468,-2.5194,-2.3845,-2.3106,-2.3106,-2.3106,-2.3106,-2.3106,-2.3106,-2.3106,-2.3106,-2.3106,-2.3106,-2.3106,-2.3106,-2.2988,-2.2731,-2.2174,-2.1796,-2.0605,-2.0605,-2.0605,0.0,0.0,0.0,-2.0664,-2.1006,-2.1318,0.0,-2.1435,-2.167,-2.1846,0.0,0.0,0.0,0.0,0.0,0.0,0.0,0.0,0.0,0.0,0.0,0.0,-2.4414,-2.4414,-2.4414,-2.4893,-2.5264,-2.5449,-2.6279,-2.6475,-2.5859,-2.6191,-2.6084,-2.5469,-2.5898,-2.6113,-2.6113,-2.6113,-2.625,-2.6465,-2.5918,-2.5977,-2.6377,-2.6123,-2.6103,-2.621,-2.6084,-2.5908,-2.5713,-2.6016,-2.623,-2.6367,-2.6182,-2.666,-2.7363,-2.71,-2.7461,-2.8057,-2.8232,-2.8291,-2.8291,-2.8291,-2.8291,-2.8291,-2.8291,-2.8418,-2.8711,-2.9394,-2.9883,-3.0312,-3.0781,-3.0889,-3.0889,-3.0889,-3.0889,-3.0889,-3.0889,-3.0889,-3.0889,-3.0889,-3.0889,-3.0889,-3.0889,-3.0889,-3.0889,-3.0889,-3.0889,-3.0157,-2.8325,-2.7435,-2.6286,-2.4394,-2.3542,-2.3106,-2.3106,-2.3106,-2.3106,-2.3106,-2.3106,-2.3106,-2.3106,-2.3106,-2.305,-2.2918,-2.305,-2.2863,-2.2362,-2.1859,-2.1544,-2.0605,-2.0605,-2.0605,0.0,0.0,0.0,-2.0605,-2.0605,-2.0713,0.0,-2.1122,-2.1239,-2.167,0.0,0.0,0.0,0.0,0.0,0.0,0.0,0.0,0.0,0.0,0.0,-2.4277,-2.4277,-2.4277,-2.4277,-2.4365,-2.4609,-2.5086,-2.5859,-2.5937,-2.5145,-2.5879,-2.5889,-2.5047,-2.5488,-2.5664,-2.5615,-2.5664,-2.5713,-2.5762,-2.5713,-2.6006,-2.6455,-2.6406,-2.6631,-2.6982,-2.6611,-2.6201,-2.5752,-2.5703,-2.5977,-2.6269,-2.583,-2.62,-2.6953,-2.6992,-2.7305,-2.7787,-2.8154,-2.8291,-2.8291,-2.8291,-2.8291,-2.8291,-2.8291,-2.8564,-2.8955,-2.9385,-2.9775,-3.0185,-3.0693,-3.081,-3.083,-3.0879,-3.0889,-3.0889,-3.0889,-3.0889,-3.0889,-3.0889,-3.0889,-3.0889,-3.0889,-3.0889,-3.0889,-3.0889,-3.0889,-2.9922,-2.7254,-2.7013,-2.592,-2.3293,-2.3106,-2.3106,-2.3106,-2.3106,-2.3106,-2.3106,-2.3106,-2.3106,-2.3106,-2.3106,-2.2918,-2.2675,-2.2863,-2.2668,-2.2048,-2.167,-2.1362,0.0,0.0,0.0,0.0,0.0,0.0,-2.0605,-2.0605,-2.0625,0.0,-2.0732,-2.0762,-2.085,0.0,0.0,0.0,0.0,0.0,0.0,0.0,0.0,0.0,0.0,0.0,-2.3344,-2.3344,-2.3344,-2.3344,-2.3978,-2.4609,-2.5086,-2.5576,-2.5615,-2.5135,-2.5586,-2.5439,-2.4551,-2.5284,-2.5557,-2.5205,-2.5566,-2.5918,-2.625,-2.5849,-2.6113,-2.6875,-2.6533,-2.6631,-2.7012,-2.6924,-2.6641,-2.623,-2.583,-2.5742,-2.581,-2.5713,-2.6064,-2.6562,-2.6894,-2.7305,-2.7787,-2.8154,-2.8291,-2.8291,-2.8291,-2.8291,-2.8291,-2.8291,-2.835,-2.8506,-2.8935,-2.9101,-2.9365,-3.0146,-3.0332,-3.043,-3.081,-3.0889,-3.0889,-3.0889,-3.0889,-3.0889,-3.0889,-3.0889,-3.0889,-3.0889,-3.0889,-3.0889,-3.0889,-3.0889,-2.9912,-2.7289,-2.7004,-2.592,-2.3293,-2.3106,-2.3106,-2.3106,-2.3106,-2.3106,-2.3106,-2.3106,-2.3106,-2.3106,-2.3106,-2.3043,-2.2981,-2.255,-2.2111,-2.167,-2.1362,-2.1172,0.0,0.0,0.0,-2.0605,0.0,0.0,0.0,-2.0605,-2.0605,-2.0605,-2.0605,-2.0605,-2.0605,0.0,0.0,0.0,0.0,0.0,0.0,0.0,0.0,0.0,0.0,0.0,-2.3091,-2.3091,-2.3091,-2.3091,-2.374,-2.4199,-2.4414,-2.5049,-2.5107,-2.4453,-2.5068,-2.499,-2.4111,-2.4746,-2.5078,-2.5116,-2.5293,-2.5635,-2.6055,-2.5791,-2.6094,-2.6699,-2.6699,-2.6943,-2.7344,-2.7344,-2.7217,-2.6963,-2.6318,-2.5928,-2.5693,-2.5693,-2.583,-2.6152,-2.6797,-2.7158,-2.7441,-2.8086,-2.8291,-2.8291,-2.8291,-2.8291,-2.8291,-2.8291,-2.8291,-2.8389,-2.8809,-2.8916,-2.9082,-2.9726,-3.0039,-3.0264,-3.0488,-3.0723,-3.0889,-3.0889,-3.0889,-3.0889,-3.0889,-3.0889,-3.0889,-3.0889,-3.0889,-3.0889,-3.0889,-3.0889,-2.9912,-2.7297,-2.7004,-2.592,-2.3293,-2.3106,-2.3106,-2.3106,-2.3106,-2.3106,-2.3106,-2.3106,-2.3106,-2.3106,-2.3106,-2.2926,-2.2606,-2.223,-2.1985,-2.1859,-2.1362,-2.1109,0.0,0.0,0.0,0.0,0.0,-2.0605,0.0,0.0,0.0,-2.0605,-2.0605,0.0,0.0,0.0,0.0,0.0,0.0,0.0,0.0,0.0,0.0,0.0,0.0,0.0,0.0,-2.3091,-2.3091,-2.3091,-2.3545,-2.3828,-2.3906,-2.4648,-2.4793,-2.4053,-2.4707,-2.4705,-2.3799,-2.4209,-2.459,-2.4988,-2.5077,-2.5303,-2.5693,-2.5693,-2.5977,-2.6406,-2.6748,-2.7187,-2.7718,-2.7718,-2.7669,-2.7471,-2.6689,-2.6172,-2.5801,-2.5713,-2.5693,-2.5801,-2.6631,-2.6894,-2.7031,-2.7891,-2.8223,-2.8291,-2.8291,-2.8291,-2.8291,-2.8291,-2.8291,-2.8369,-2.8711,-2.8799,-2.8906,-2.9346,-2.9766,-3.0098,-3.0176,-3.0566,-3.0889,-3.0889,-3.0889,-3.0889,-3.0889,-3.0889,-3.0889,-3.0889,-3.0889,-3.0889,-3.0889,-3.0645,-2.9618,-2.7263,-2.6771,-2.5676,-2.3293,-2.3106,-2.3106,-2.3106,-2.3106,-2.3106,-2.3106,-2.3106,-2.3106,-2.3106,-2.3106,-2.2793,-2.2174,-2.2111,-2.2048,-2.1922,-2.1362,-2.1109,0.0,0.0,0.0,0.0,-2.0605,0.0,0.0,0.0,-2.0605,-2.0605,0.0,0.0,0.0,0.0,0.0,0.0,0.0,0.0,0.0,0.0,0.0,0.0,0.0,0.0,0.0,-2.3091,-2.3091,-2.3091,-2.3545,-2.3955,-2.4326,-2.4805,-2.5067,-2.4979,-2.5067,-2.4705,-2.3799,-2.4209,-2.4443,-2.4492,-2.4883,-2.5303,-2.5693,-2.5693,-2.5977,-2.6387,-2.6435,-2.6914,-2.7718,-2.7718,-2.7432,-2.7041,-2.6572,-2.6357,-2.6269,-2.583,-2.5693,-2.5762,-2.6289,-2.6455,-2.6602,-2.7461,-2.7988,-2.8291,-2.8291,-2.8291,-2.8291,-2.8291,-2.8291,-2.8301,-2.835,-2.8359,-2.8467,-2.8896,-2.9326,-2.9746,-3.0117,-3.0566,-3.0889,-3.0889,-3.0889,-3.0889,-3.0889,-3.0889,-3.0889,-3.0889,-3.0889,-3.0889,-3.0889,-2.9844,-2.8564,-2.7134,-2.5981,-2.4702,-2.323,-2.3106,-2.3106,-2.3106,-2.3106,-2.3106,-2.3106,-2.3106,-2.3106,-2.3106,-2.3106,-2.2918,-2.2543,-2.223,-2.1796,-2.1235,-2.1109,-2.1109,0.0,0.0,0.0,0.0,0.0,0.0,-2.1368,0.0,-2.1368,0.0,0.0,0.0,0.0,0.0,0.0,0.0,-2.1699,0.0,0.0,0.0,0.0,0.0,0.0,0.0,0.0,0.0,0.0,0.0,-2.3266,-2.3486,-2.3627,-2.4316,-2.458,-2.4336,-2.456,-2.4512,-2.415,-2.3793,-2.3881,-2.4414,-2.46,-2.4922,-2.5361,-2.5567,-2.5791,-2.6025,-2.6279,-2.6592,-2.6963,-2.7513,-2.7412,-2.6992,-2.6816,-2.6455,-2.5986,-2.5752,-2.5693,-2.5752,-2.624,-2.6387,-2.6523,-2.7444,-2.7783,-2.7978,-2.8223,-2.8291,-2.8291,-2.8291,-2.8291,-2.8291,-2.8291,-2.8291,-2.834,-2.8516,-2.9072,-2.9675,-2.9795,-3.0391,-3.0889,-3.0889,-3.0889,-3.0889,-3.0889,-3.0889,-3.0889,-3.0889,-3.0889,-3.0889,-3.0889,-3.0401,-2.9244,-2.7194,-2.6529,-2.537,-2.3293,-2.3106,-2.3106,-2.3106,-2.3106,-2.3106,-2.3106,-2.3106,-2.3106,-2.3106,-2.3106,-2.2856,-2.2299,-2.2174,-2.1734,-2.1109,-2.1109,-2.1109,-2.1885,0.0,0.0,0.0,0.0,0.0,0.0,0.0,0.0,0.0,0.0,0.0,0.0,0.0,0.0,0.0,0.0,-2.2471,0.0,0.0,0.0,0.0,0.0,0.0,0.0,0.0,0.0,-2.3091,-2.3091,-2.3198,-2.3432,-2.3975,-2.4209,-2.4141,-2.4316,-2.4414,-2.4414,-2.3754,-2.3754,-2.4414,-2.4531,-2.4697,-2.4912,-2.5478,-2.5625,-2.5576,-2.6016,-2.6279,-2.6435,-2.706,-2.7129,-2.6846,-2.6846,-2.6387,-2.5693,-2.5693,-2.5693,-2.5732,-2.6103,-2.6289,-2.6514,-2.7246,-2.762,-2.7796,-2.8164,-2.8291,-2.8291,-2.8291,-2.8291,-2.8291,-2.8291,-2.8291,-2.8291,-2.8291,-2.8945,-2.9626,-2.9626,-3.0264,-3.0889,-3.0889,-3.0889,-3.0889,-3.0889,-3.0889,-3.0889,-3.0889,-3.0889,-3.0889,-3.0889,-3.0577,-2.9481,-2.7246,-2.671,-2.5554,-2.3293,-2.3106,-2.3106,-2.3106,-2.3106,-2.3106,-2.3106,-2.3106,-2.3106,-2.3106,-2.3106,-2.2793,-2.2111,-2.2111,-2.1734,-2.1109,-2.1109,-2.1109,0.0,0.0,0.0,-2.1885,0.0,0.0,0.0,0.0,-2.1885,0.0,0.0,0.0,0.0,0.0,0.0,0.0,0.0,0.0,0.0,0.0,0.0,0.0,0.0,0.0,0.0,0.0,0.0,-2.3091,-2.3091,-2.3452,-2.4326,-2.4014,-2.4189,-2.5047,-2.4629,-2.4414,-2.4414,-2.4385,-2.4385,-2.4424,-2.4844,-2.4834,-2.4473,-2.5294,-2.5508,-2.5165,-2.5566,-2.5996,-2.6387,-2.6416,-2.6426,-2.6406,-2.6406,-2.6133,-2.5693,-2.5693,-2.5693,-2.5693,-2.5703,-2.6035,-2.6465,-2.6894,-2.7324,-2.7796,-2.8164,-2.8291,-2.8291,-2.8291,-2.8291,-2.8291,-2.8291,-2.8291,-2.8291,-2.8291,-2.8945,-2.9626,-2.9626,-3.0264,-3.0889,-3.0889,-3.0889,-3.0889,-3.0889,-3.0889,-3.0889,-3.0889,-3.0889,-3.0889,-3.0889,-2.9785,-2.8435,-2.7159,-2.5904,-2.4579,-2.323,-2.3106,-2.3106,-2.3106,-2.3106,-2.3106,-2.3106,-2.3106,-2.3106,-2.3106,-2.3106,-2.2793,-2.2111,-2.2111,-2.1734,-2.1109,-2.1109,-2.1109,0.0,0.0,-2.2672,-2.2672,0.0,0.0,0.0,0.0,0.0,0.0,0.0,0.0,0.0,0.0,0.0,0.0,0.0,0.0,0.0,0.0,0.0,0.0,0.0,0.0,0.0,0.0,0.0,-2.3071,-2.2838,-2.2969,-2.35,-2.3711,-2.4053,-2.4619,-2.4492,-2.4697,-2.5235,-2.4707,-2.4414,-2.4414,-2.456,-2.456,-2.4434,-2.5029,-2.5371,-2.5518,-2.5625,-2.5771,-2.5977,-2.6269,-2.6221,-2.5986,-2.6279,-2.6123,-2.5693,-2.5693,-2.5693,-2.5693,-2.5693,-2.6025,-2.6455,-2.6875,-2.7314,-2.7796,-2.8164,-2.8291,-2.8291,-2.8291,-2.8291,-2.8291,-2.8291,-2.8291,-2.8291,-2.8291,-2.8945,-2.9626,-2.9626,-3.0264,-3.0889,-3.0889,-3.0889,-3.0889,-3.0889,-3.0889,-3.0889,-3.0889,-3.0889,-3.0889,-3.0889,-3.0518,-2.9422,-2.7246,-2.6589,-2.5493,-2.3293,-2.3106,-2.3106,-2.3106,-2.3106,-2.3106,-2.3106,-2.3106,-2.3106,-2.3106,-2.3106,-2.2793,-2.2111,-2.2111,-2.1734,-2.1109,-2.1109,-2.1109,-2.3091,-2.3091,0.0,-2.3091,-2.3091,0.0,-2.3091,0.0,0.0,0.0,0.0,0.0,0.0,0.0,0.0,0.0,0.0,0.0,0.0,-2.2964,0.0,0.0,0.0,0.0,0.0,0.0,-2.2808,-2.3071,-2.2847,-2.292,0.0,0.0,-2.3818,-2.4394,-2.4414,-2.4766,-2.5488,-2.5088,-2.4727,-2.4414,-2.458,-2.4492,-2.4209,-2.4795,-2.5225,-2.5508,-2.5625,-2.5693,-2.5713,-2.6045,-2.5986,-2.5713,-2.6045,-2.5986,-2.5693,-2.5693,-2.5693,-2.5693,-2.5693,-2.6025,-2.6455,-2.6875,-2.7314,-2.7796,-2.8164,-2.8291,-2.832,-2.8476,-2.8408,-2.833,-2.8476,-2.8408,-2.8291,-2.8291,-2.8945,-2.9626,-2.9626,-3.0264,-3.0889,-3.0889,-3.0889,-3.0889,-3.0889,-3.0889,-3.0889,-3.0889,-3.0889,-3.0889,-3.0889,-3.0889,-3.0098,-2.7915,-2.7254,-2.592,-2.3293,-2.3106,-2.3106,-2.3106,-2.3106,-2.3106,-2.3106,-2.3106,-2.3215,-2.3449,-2.3104,-2.2783,-2.244,-2.2097,-2.167,-2.1109,-2.1109,-2.1109]},{"header":{"parameterUnit":"m.s-1","parameterCategory":1,"la1":30.6,"la2":29.2853,"lo1":-89.7004,"lo2":-87.6739,"dy":0.0162,"dx":0.0183,"nx":112,"ny":82,"refTime":"2023-09-01T18:00:00:Z","depth":0,"parameterNumber":3,"parameterNumberName":"V-component_of_WINDS"},"data":[0.0,0.0,0.0,0.0,0.0,0.0,0.0,0.0,0.0,0.0,0.0,0.0,0.0,0.0,0.0,0.0,0.0,0.0,0.0,0.0,0.0,0.0,0.0,0.0,0.0,0.0,0.0,0.0,0.0,0.0,0.0,0.0,0.0,0.0,0.0,0.0,0.0,0.0,0.0,0.0,0.0,0.0,0.0,0.0,0.0,0.0,0.0,0.0,0.0,0.0,0.0,0.0,0.0,0.0,0.0,0.0,0.0,0.0,0.0,0.0,0.0,0.0,0.0,0.0,0.0,0.0,0.0,0.0,0.0,0.0,0.0,0.0,0.0,0.0,0.0,0.0,0.0,0.0,0.0,0.0,0.0,0.0,0.0,0.0,0.0,0.0,0.0,0.0,0.0,0.0,3.7225,3.9101,4.2221,4.3901,4.3262,4.3072,4.17,3.8682,0.0,0.0,0.0,0.0,0.0,0.0,0.0,0.0,0.0,0.0,0.0,0.0,0.0,0.0,0.0,0.0,0.0,0.0,0.0,0.0,0.0,0.0,0.0,0.0,0.0,0.0,0.0,0.0,0.0,0.0,0.0,0.0,0.0,0.0,0.0,0.0,0.0,0.0,0.0,0.0,0.0,0.0,0.0,0.0,0.0,0.0,0.0,0.0,0.0,0.0,0.0,0.0,0.0,0.0,0.0,0.0,0.0,0.0,0.0,0.0,0.0,0.0,0.0,0.0,0.0,0.0,0.0,0.0,0.0,0.0,0.0,0.0,0.0,0.0,0.0,0.0,0.0,0.0,0.0,0.0,0.0,0.0,0.0,0.0,0.0,0.0,0.0,0.0,0.0,0.0,0.0,0.0,0.0,0.0,0.0,0.0,0.0,0.0,0.0,0.0,0.0,0.0,0.0,0.0,3.6848,3.9877,4.2497,4.4045,4.4098,4.2824,4.1271,3.9502,0.0,0.0,0.0,0.0,0.0,0.0,0.0,0.0,0.0,0.0,0.0,0.0,0.0,0.0,0.0,0.0,0.0,0.0,0.0,0.0,0.0,0.0,0.0,0.0,0.0,0.0,0.0,0.0,0.0,0.0,0.0,0.0,0.0,0.0,0.0,0.0,0.0,0.0,0.0,0.0,0.0,0.0,0.0,0.0,0.0,0.0,0.0,0.0,0.0,0.0,0.0,0.0,0.0,0.0,0.0,0.0,0.0,0.0,0.0,0.0,0.0,0.0,0.0,0.0,0.0,0.0,0.0,0.0,0.0,0.0,0.0,0.0,0.0,0.0,0.0,0.0,0.0,0.0,0.0,0.0,0.0,0.0,0.0,0.0,0.0,0.0,0.0,0.0,0.0,0.0,0.0,0.0,0.0,0.0,0.0,0.0,0.0,0.0,0.0,0.0,0.0,0.0,0.0,3.7188,3.8544,4.1386,4.3076,4.407,4.4226,4.2743,4.1132,3.9589,3.8332,0.0,0.0,0.0,0.0,0.0,0.0,0.0,0.0,0.0,0.0,0.0,0.0,0.0,0.0,0.0,0.0,0.0,0.0,0.0,0.0,0.0,0.0,0.0,0.0,0.0,0.0,0.0,0.0,0.0,0.0,0.0,0.0,0.0,0.0,0.0,0.0,0.0,0.0,0.0,0.0,0.0,0.0,0.0,0.0,0.0,0.0,0.0,0.0,0.0,0.0,0.0,0.0,0.0,0.0,0.0,0.0,0.0,0.0,0.0,0.0,0.0,0.0,0.0,0.0,0.0,0.0,0.0,0.0,0.0,0.0,0.0,0.0,0.0,0.0,0.0,0.0,0.0,0.0,0.0,0.0,0.0,0.0,0.0,0.0,0.0,0.0,0.0,0.0,0.0,0.0,0.0,0.0,0.0,0.0,0.0,0.0,0.0,0.0,0.0,0.0,0.0,0.0,3.9157,4.0271,4.2556,4.3522,4.4036,4.4184,4.2547,4.0886,3.9482,3.7764,0.0,0.0,0.0,0.0,0.0,0.0,0.0,0.0,0.0,0.0,0.0,0.0,0.0,0.0,0.0,0.0,0.0,0.0,0.0,0.0,0.0,0.0,0.0,0.0,0.0,0.0,0.0,0.0,0.0,0.0,0.0,0.0,0.0,0.0,0.0,0.0,0.0,0.0,0.0,0.0,0.0,0.0,0.0,0.0,0.0,0.0,0.0,0.0,0.0,0.0,0.0,0.0,0.0,0.0,0.0,0.0,0.0,0.0,0.0,0.0,0.0,0.0,0.0,0.0,0.0,0.0,0.0,0.0,0.0,0.0,0.0,0.0,0.0,0.0,0.0,0.0,0.0,0.0,0.0,0.0,0.0,0.0,0.0,0.0,0.0,0.0,0.0,0.0,0.0,0.0,0.0,0.0,0.0,0.0,0.0,0.0,0.0,0.0,0.0,0.0,0.0,0.0,3.9342,4.0954,4.2612,4.3522,4.4036,4.4184,4.1967,4.0253,3.9464,3.7192,0.0,0.0,0.0,0.0,0.0,0.0,0.0,0.0,0.0,0.0,0.0,0.0,0.0,0.0,0.0,0.0,0.0,0.0,0.0,0.0,0.0,0.0,0.0,0.0,0.0,0.0,0.0,0.0,0.0,0.0,0.0,0.0,0.0,0.0,0.0,0.0,0.0,0.0,0.0,0.0,0.0,0.0,0.0,0.0,0.0,0.0,0.0,0.0,0.0,0.0,0.0,0.0,0.0,0.0,0.0,0.0,0.0,0.0,0.0,0.0,0.0,0.0,0.0,0.0,0.0,0.0,0.0,0.0,0.0,0.0,0.0,0.0,0.0,0.0,0.0,0.0,0.0,0.0,0.0,0.0,0.0,0.0,0.0,0.0,0.0,0.0,0.0,0.0,0.0,0.0,0.0,0.0,0.0,0.0,0.0,0.0,0.0,0.0,0.0,0.0,0.0,0.0,3.9658,4.12,0.0,4.3819,4.402,4.407,4.2348,4.0691,3.9423,0.0,0.0,0.0,0.0,0.0,0.0,0.0,0.0,0.0,0.0,0.0,0.0,0.0,0.0,0.0,0.0,0.0,0.0,0.0,0.0,0.0,0.0,0.0,0.0,0.0,0.0,0.0,0.0,0.0,0.0,0.0,0.0,0.0,0.0,0.0,0.0,0.0,0.0,0.0,0.0,0.0,0.0,0.0,0.0,0.0,0.0,0.0,0.0,0.0,0.0,0.0,0.0,0.0,0.0,0.0,0.0,0.0,0.0,0.0,0.0,0.0,0.0,0.0,0.0,0.0,0.0,0.0,0.0,0.0,0.0,0.0,0.0,0.0,0.0,0.0,0.0,0.0,0.0,0.0,0.0,0.0,0.0,0.0,0.0,0.0,0.0,0.0,0.0,0.0,0.0,0.0,0.0,0.0,0.0,0.0,0.0,0.0,0.0,0.0,0.0,0.0,0.0,3.8795,4.0057,4.1579,0.0,4.4005,4.3893,4.3633,4.1932,4.0314,3.8965,0.0,0.0,0.0,0.0,0.0,0.0,0.0,0.0,0.0,0.0,0.0,0.0,0.0,0.0,0.0,0.0,0.0,0.0,0.0,0.0,0.0,0.0,0.0,0.0,0.0,0.0,0.0,0.0,0.0,0.0,0.0,0.0,0.0,0.0,0.0,0.0,0.0,0.0,0.0,0.0,0.0,0.0,0.0,0.0,0.0,0.0,0.0,0.0,0.0,0.0,0.0,0.0,0.0,0.0,0.0,0.0,0.0,0.0,0.0,0.0,0.0,0.0,0.0,0.0,0.0,0.0,0.0,0.0,0.0,0.0,0.0,0.0,0.0,0.0,0.0,0.0,0.0,0.0,0.0,0.0,0.0,0.0,0.0,0.0,0.0,0.0,0.0,0.0,0.0,0.0,0.0,0.0,0.0,0.0,0.0,0.0,0.0,0.0,0.0,0.0,0.0,0.0,3.8785,4.0452,4.2149,4.3822,4.4005,4.367,4.2872,4.0531,3.8813,0.0,0.0,0.0,0.0,0.0,0.0,0.0,0.0,0.0,0.0,0.0,0.0,0.0,0.0,0.0,0.0,0.0,0.0,0.0,0.0,0.0,0.0,0.0,0.0,0.0,0.0,0.0,0.0,0.0,0.0,0.0,0.0,0.0,0.0,0.0,0.0,0.0,0.0,0.0,0.0,0.0,0.0,0.0,0.0,0.0,0.0,0.0,0.0,0.0,0.0,0.0,0.0,0.0,0.0,0.0,0.0,0.0,0.0,0.0,0.0,0.0,0.0,0.0,0.0,0.0,0.0,0.0,0.0,0.0,0.0,0.0,0.0,0.0,0.0,0.0,0.0,0.0,0.0,0.0,0.0,0.0,0.0,0.0,0.0,0.0,0.0,0.0,0.0,0.0,0.0,0.0,0.0,0.0,0.0,0.0,0.0,0.0,0.0,0.0,0.0,0.0,0.0,0.0,3.8718,4.0441,4.2119,4.3762,4.3974,4.367,4.2872,4.1609,4.0039,3.8117,0.0,0.0,0.0,0.0,0.0,0.0,0.0,0.0,0.0,0.0,0.0,0.0,0.0,0.0,0.0,0.0,0.0,0.0,0.0,0.0,0.0,0.0,0.0,0.0,0.0,0.0,0.0,0.0,0.0,0.0,0.0,0.0,0.0,0.0,0.0,0.0,0.0,0.0,0.0,0.0,0.0,0.0,0.0,0.0,0.0,0.0,0.0,0.0,0.0,0.0,0.0,0.0,0.0,0.0,0.0,0.0,0.0,0.0,0.0,0.0,0.0,0.0,0.0,0.0,0.0,0.0,0.0,0.0,0.0,0.0,0.0,0.0,0.0,0.0,0.0,0.0,0.0,0.0,0.0,0.0,0.0,0.0,0.0,0.0,0.0,0.0,0.0,0.0,0.0,0.0,0.0,0.0,0.0,0.0,0.0,0.0,0.0,0.0,0.0,0.0,0.0,0.0,3.8645,4.0351,4.2007,4.3666,4.3913,4.3642,4.2826,4.1742,4.0341,3.8542,0.0,0.0,0.0,0.0,0.0,0.0,0.0,0.0,0.0,0.0,0.0,0.0,0.0,0.0,0.0,0.0,0.0,0.0,0.0,0.0,0.0,0.0,0.0,0.0,0.0,0.0,0.0,0.0,0.0,0.0,0.0,0.0,0.0,0.0,0.0,0.0,0.0,0.0,0.0,0.0,0.0,0.0,0.0,0.0,0.0,0.0,0.0,0.0,0.0,0.0,0.0,0.0,0.0,0.0,0.0,0.0,0.0,0.0,0.0,0.0,0.0,0.0,0.0,0.0,0.0,0.0,0.0,0.0,0.0,0.0,0.0,0.0,0.0,0.0,0.0,0.0,0.0,0.0,0.0,0.0,0.0,0.0,0.0,0.0,0.0,0.0,0.0,0.0,0.0,0.0,0.0,0.0,0.0,0.0,0.0,0.0,0.0,0.0,0.0,0.0,0.0,0.0,3.8574,4.0209,4.1862,4.3586,4.3851,4.3529,4.2656,4.1323,4.0067,3.9045,0.0,0.0,0.0,0.0,0.0,0.0,0.0,0.0,0.0,0.0,0.0,0.0,0.0,0.0,0.0,0.0,0.0,0.0,0.0,0.0,0.0,0.0,0.0,0.0,0.0,0.0,0.0,0.0,0.0,0.0,0.0,0.0,0.0,0.0,0.0,0.0,0.0,0.0,0.0,0.0,0.0,0.0,0.0,0.0,0.0,0.0,0.0,0.0,0.0,0.0,0.0,0.0,0.0,0.0,0.0,0.0,0.0,0.0,0.0,0.0,3.5921,0.0,0.0,0.0,0.0,0.0,0.0,0.0,0.0,0.0,0.0,0.0,0.0,0.0,0.0,0.0,0.0,0.0,0.0,0.0,0.0,0.0,0.0,0.0,0.0,0.0,0.0,0.0,0.0,0.0,0.0,0.0,0.0,0.0,0.0,0.0,0.0,0.0,0.0,0.0,0.0,0.0,3.8517,4.0163,4.183,4.3485,4.3753,4.3262,4.1863,4.1449,4.0366,3.8284,3.7684,0.0,0.0,0.0,0.0,0.0,0.0,0.0,0.0,0.0,0.0,0.0,0.0,0.0,0.0,0.0,0.0,0.0,0.0,0.0,0.0,0.0,0.0,0.0,0.0,0.0,0.0,0.0,0.0,0.0,0.0,0.0,0.0,0.0,0.0,0.0,0.0,0.0,0.0,0.0,0.0,0.0,0.0,0.0,0.0,0.0,0.0,0.0,0.0,0.0,0.0,0.0,0.0,0.0,0.0,0.0,0.0,0.0,0.0,0.0,0.0,3.617,0.0,0.0,0.0,0.0,0.0,0.0,0.0,0.0,0.0,0.0,0.0,0.0,0.0,0.0,0.0,0.0,0.0,0.0,0.0,0.0,0.0,0.0,0.0,0.0,0.0,0.0,0.0,0.0,0.0,0.0,0.0,0.0,0.0,0.0,0.0,0.0,0.0,0.0,0.0,0.0,3.9074,4.0373,4.1783,4.3382,4.3634,4.3385,4.2569,4.1822,4.0903,3.9713,3.8507,0.0,0.0,0.0,0.0,0.0,0.0,0.0,0.0,0.0,0.0,0.0,0.0,0.0,0.0,0.0,0.0,0.0,0.0,0.0,0.0,0.0,0.0,0.0,0.0,0.0,0.0,0.0,0.0,0.0,0.0,0.0,0.0,0.0,0.0,0.0,0.0,0.0,0.0,0.0,0.0,0.0,0.0,0.0,0.0,0.0,0.0,0.0,0.0,0.0,0.0,0.0,0.0,0.0,3.6677,3.7354,3.8536,3.8536,3.8536,3.8468,3.7246,3.6517,3.6202,0.0,0.0,0.0,0.0,0.0,0.0,0.0,0.0,0.0,0.0,0.0,0.0,0.0,0.0,0.0,0.0,0.0,0.0,0.0,0.0,0.0,0.0,0.0,0.0,0.0,3.7751,3.7688,0.0,0.0,0.0,0.0,0.0,0.0,0.0,0.0,0.0,0.0,0.0,0.0,3.9698,4.0726,4.1882,4.3332,4.3548,4.3526,4.3415,4.221,4.1419,4.1274,3.933,3.847,0.0,0.0,0.0,0.0,0.0,0.0,0.0,0.0,0.0,0.0,0.0,0.0,0.0,0.0,0.0,0.0,0.0,0.0,0.0,0.0,0.0,0.0,0.0,0.0,0.0,0.0,0.0,0.0,0.0,0.0,0.0,0.0,3.3045,3.3736,0.0,0.0,0.0,0.0,0.0,0.0,0.0,0.0,0.0,0.0,0.0,0.0,0.0,3.6415,3.7615,3.8182,3.8571,3.8775,3.9299,3.9656,3.9842,3.985,3.9858,3.9841,3.9655,0.0,3.6966,3.6966,0.0,0.0,0.0,0.0,0.0,0.0,0.0,0.0,0.0,0.0,0.0,0.0,0.0,0.0,0.0,0.0,0.0,0.0,0.0,0.0,0.0,0.0,3.823,3.8873,3.9522,3.9966,0.0,3.7979,3.6293,3.6293,3.6882,0.0,0.0,0.0,0.0,0.0,0.0,0.0,3.9772,4.1203,4.2488,4.3387,4.3515,4.3255,4.2607,4.2366,4.1678,4.0366,3.9978,3.9564,3.9026,3.8803,0.0,0.0,0.0,0.0,0.0,0.0,0.0,0.0,0.0,0.0,0.0,0.0,0.0,0.0,0.0,0.0,0.0,0.0,0.0,0.0,0.0,0.0,0.0,0.0,0.0,0.0,0.0,0.0,0.0,3.3397,3.4083,3.4093,3.4026,3.3828,0.0,0.0,0.0,0.0,0.0,0.0,0.0,0.0,0.0,3.837,3.8333,3.8615,3.9261,3.9561,3.9909,4.0332,4.0603,4.1144,4.1938,4.1965,4.1948,4.1982,4.2448,4.1637,3.9974,3.9214,3.8455,3.7797,0.0,0.0,0.0,0.0,3.7895,3.8088,3.9238,3.945,0.0,0.0,0.0,0.0,0.0,0.0,0.0,0.0,0.0,0.0,0.0,0.0,0.0,4.0413,4.0729,4.095,4.0958,3.9678,3.8401,0.0,3.7791,3.7586,3.7498,0.0,0.0,0.0,0.0,3.9827,4.1093,4.2249,4.3277,4.4085,4.4176,4.3863,4.309,4.2612,4.1873,4.079,4.0293,3.9745,3.903,3.895,3.8826,0.0,0.0,0.0,0.0,0.0,0.0,0.0,0.0,0.0,0.0,0.0,0.0,0.0,0.0,0.0,0.0,0.0,0.0,0.0,0.0,0.0,0.0,0.0,0.0,0.0,0.0,0.0,0.0,3.4696,3.5341,3.4708,3.5261,3.5361,0.0,0.0,0.0,0.0,0.0,0.0,3.8063,3.8581,3.9517,4.1053,4.0985,4.1044,4.1247,4.1627,4.2016,4.2371,4.2743,4.3504,4.4542,4.4542,4.4542,4.4592,4.5382,4.484,4.3345,4.1748,4.0561,3.9729,3.9768,3.9364,3.8792,3.9306,3.9647,4.0029,4.1341,4.1801,4.1793,4.1614,0.0,3.9941,3.8604,0.0,0.0,0.0,0.0,3.9708,4.0586,4.1214,4.1723,4.2123,4.2224,4.2215,4.2224,4.1656,4.084,0.0,3.9083,3.8678,3.878,0.0,0.0,0.0,0.0,4.1164,4.2694,4.3609,4.425,4.4672,4.4691,4.4378,4.357,4.2947,4.2209,4.1229,4.0604,3.9875,3.8991,3.891,3.8921,3.9045,0.0,0.0,0.0,0.0,0.0,0.0,0.0,0.0,0.0,0.0,0.0,0.0,0.0,0.0,0.0,0.0,0.0,0.0,0.0,0.0,0.0,0.0,0.0,0.0,0.0,0.0,0.0,0.0,0.0,3.617,3.7233,0.0,0.0,0.0,0.0,3.7681,3.7773,3.8684,4.0891,4.1018,4.1728,4.32,4.325,4.3606,4.4378,4.5754,4.6126,4.55,4.6874,4.7584,4.7669,4.7669,4.7669,4.7703,4.846,4.7936,4.6397,4.4164,4.2405,4.1102,4.1085,4.0731,4.0186,4.0087,4.0587,4.1376,4.2035,4.2359,4.2675,4.3976,4.3461,4.2183,4.1418,4.0696,0.0,0.0,4.0128,4.0383,4.1839,4.2245,4.2634,4.409,4.4445,4.4445,4.4445,4.3902,4.2804,0.0,4.0525,4.0551,3.9936,0.0,4.0544,4.1096,4.1969,4.3028,4.4309,4.5242,4.5498,4.4764,4.4691,4.4378,4.357,4.346,4.2763,4.1203,4.1075,4.0354,3.8862,3.8807,3.8851,3.8925,3.891,0.0,0.0,0.0,0.0,0.0,0.0,0.0,0.0,0.0,0.0,0.0,0.0,0.0,0.0,0.0,0.0,0.0,0.0,0.0,0.0,0.0,0.0,0.0,0.0,0.0,0.0,0.0,0.0,3.9587,3.9946,0.0,3.9513,3.9348,3.9494,4.0019,4.0916,4.2016,4.3301,4.4282,4.5263,4.6249,4.6769,4.7141,4.7428,4.7953,4.8088,4.7834,4.8376,4.8866,4.9323,4.9323,4.9323,4.9357,5.0101,4.9847,4.8883,4.8578,4.6718,4.4096,4.4096,4.3667,4.3129,4.3565,4.3904,4.427,4.497,4.5224,4.51,4.413,4.3159,4.2247,4.1476,4.1434,4.179,4.279,4.3389,4.3927,4.4925,4.5196,4.5314,4.5901,4.6007,4.6007,4.6007,4.5444,4.471,4.3942,4.2406,4.1231,4.1253,4.0978,4.1034,4.1873,4.2733,4.376,4.5074,4.6046,4.6506,4.6212,4.6213,4.57,4.4378,4.4268,4.3589,4.1974,4.1389,4.0868,4.0375,3.9317,3.9274,4.0428,3.9884,3.9884,0.0,0.0,0.0,0.0,0.0,0.0,0.0,0.0,0.0,0.0,0.0,0.0,0.0,0.0,0.0,0.0,0.0,0.0,0.0,0.0,0.0,0.0,0.0,0.0,0.0,0.0,4.09,4.1452,4.2223,4.255,4.2121,4.2255,4.2455,4.2709,4.3639,4.4739,4.6007,4.7005,4.8003,4.897,4.9509,4.9746,4.9746,4.9999,4.9999,4.9763,4.9999,5.0371,5.0828,5.0828,5.0828,5.0879,5.1657,5.1403,5.0524,5.1285,4.9982,4.7513,4.7022,4.621,4.5382,4.5889,4.6227,4.6566,4.7293,4.7378,4.6921,4.5432,4.4434,4.3724,4.3234,4.3436,4.4028,4.5043,4.5686,4.6244,4.6989,4.6989,4.6853,4.7107,4.6972,4.6786,4.6786,4.621,4.5703,4.5703,4.3959,4.2473,4.2466,4.2079,4.2037,4.2864,4.3505,4.4345,4.5675,4.6563,4.6961,4.6688,4.6904,4.6415,4.4802,4.4673,4.4011,4.2396,4.1809,4.1403,4.1192,4.0115,4.0058,4.1201,4.0675,4.0672,4.1248,0.0,0.0,0.0,0.0,0.0,0.0,0.0,0.0,0.0,0.0,0.0,0.0,0.0,0.0,0.0,0.0,0.0,0.0,0.0,0.0,0.0,0.0,0.0,3.8463,4.1401,4.3124,4.1749,4.4067,4.5196,4.3713,4.4299,4.506,4.5788,4.5872,4.6819,4.8951,4.9086,4.9763,5.12,5.1269,5.1319,5.1252,5.2012,5.2012,5.1269,5.2012,5.2334,5.2334,5.2334,5.2334,5.2384,5.3162,5.2655,5.1352,5.2046,5.1911,5.1099,4.9644,4.8189,4.6938,4.6938,4.7378,4.8058,4.8798,4.8562,4.7922,4.7889,4.7428,4.6819,4.6819,4.6819,4.6836,4.6853,4.6853,4.7022,4.7767,4.7411,4.7056,4.7753,4.7394,4.6853,4.6853,4.6295,4.5771,4.5771,4.5145,4.4395,4.3589,4.3426,4.3627,4.4156,4.4327,0.0,4.6132,4.6814,4.6884,4.613,4.6608,4.6357,4.4766,4.4692,4.4066,4.2433,4.2304,4.1974,4.1205,4.1132,4.1113,4.1132,4.115,4.1199,4.1277,0.0,0.0,0.0,0.0,0.0,0.0,0.0,0.0,0.0,0.0,0.0,0.0,0.0,0.0,0.0,0.0,0.0,0.0,0.0,0.0,0.0,4.0908,4.2336,4.2141,4.3403,4.4778,4.5969,4.6802,4.7344,4.7462,4.8139,4.8663,4.8866,4.939,4.9965,5.0574,5.1116,5.1589,5.1995,5.3078,5.3416,5.2875,5.3602,5.3602,5.2875,5.3078,5.3179,5.3179,5.3179,5.3179,5.3179,5.3399,5.3264,5.2892,5.3095,5.2706,5.1911,5.098,5.0371,4.9999,4.9999,4.9779,4.9526,4.9729,4.9306,4.8612,4.8058,4.7753,4.7614,4.7614,4.7614,4.7716,4.824,4.8392,4.8443,4.8646,4.8562,4.846,4.8663,4.8545,4.8392,4.8392,4.7834,4.731,4.731,4.6278,4.5162,4.4384,4.4265,4.4453,4.4931,4.5018,0.0,4.6056,4.6389,4.6623,4.6784,4.7011,4.6692,4.5571,4.5498,4.4839,4.3259,4.2616,4.2451,4.2818,4.1735,4.137,4.1974,4.2543,4.2869,0.0,0.0,0.0,0.0,0.0,0.0,0.0,0.0,0.0,0.0,0.0,0.0,0.0,0.0,0.0,0.0,0.0,0.0,0.0,0.0,0.0,0.0,4.3437,4.5247,4.6179,4.6404,4.6921,4.8223,4.8917,4.9576,5.0321,5.049,5.0828,5.1471,5.1623,5.1944,5.2604,5.2739,5.2942,5.3247,5.3822,5.3923,5.3501,5.4228,5.438,5.3957,5.3957,5.3957,5.3957,5.3653,5.3501,0.0,5.3501,5.3501,5.3501,5.3501,5.323,0.0,0.0,0.0,0.0,0.0,5.0727,5.0084,5.0084,4.9813,4.939,4.8968,4.9052,4.9275,4.9275,4.9275,4.9323,4.9424,4.9458,4.939,4.9086,4.9001,4.9001,4.9001,4.9001,4.9001,4.9001,4.8426,4.7889,4.7889,4.6972,0.0,4.5613,4.5021,4.4692,4.4971,4.5008,4.5115,4.5442,4.5716,4.6091,4.6619,4.6963,4.6747,4.5767,4.5697,0.0,0.0,0.0,4.2986,4.3479,4.2598,0.0,0.0,0.0,4.3513,4.3548,0.0,0.0,0.0,4.2795,4.2791,0.0,0.0,0.0,0.0,0.0,0.0,0.0,0.0,0.0,0.0,0.0,0.0,0.0,0.0,0.0,0.0,4.6196,4.7902,5.0033,4.9864,4.9475,4.939,5.0625,5.1758,5.2486,5.2046,5.2283,5.3653,5.301,5.3196,5.4634,0.0,0.0,0.0,0.0,5.3839,5.3754,5.4482,5.4803,5.4718,5.4718,5.4668,5.4566,5.3889,5.3551,5.3501,5.3501,5.3501,5.3501,5.3501,5.3501,5.3433,5.2706,5.2046,5.1438,5.1438,5.0997,5.0338,5.0338,0.0,0.0,5.0219,5.0676,5.1185,5.1185,5.115,5.0947,5.027,5.0084,4.9949,4.9289,4.912,4.912,4.912,4.9069,4.9001,4.9001,4.8494,4.8007,4.8007,4.7428,4.6921,4.6921,4.5686,4.4733,4.4733,4.4649,4.4615,4.4615,4.4971,4.5407,4.595,0.0,0.0,4.5602,4.5614,4.5037,4.3596,4.3431,4.3411,4.3444,4.348,4.3497,4.3497,4.3497,4.3515,4.3515,4.3515,4.3515,4.3496,4.3686,4.3771,0.0,0.0,0.0,0.0,0.0,0.0,0.0,0.0,0.0,0.0,0.0,0.0,0.0,0.0,0.0,4.6201,4.8135,5.0016,5.1657,5.2317,5.2401,5.1742,5.2503,5.3348,5.4076,5.4566,5.4938,5.5225,5.4583,5.4549,5.5446,5.4786,5.4718,5.548,5.5936,5.5886,5.5294,5.6021,5.6089,5.5497,0.0,0.0,5.4583,5.4259,5.3922,5.3501,5.3501,5.3501,5.3501,5.3501,5.3501,5.3484,5.3331,5.3179,5.3061,5.3061,5.2553,5.1877,5.1877,5.1488,5.0997,5.0997,5.1067,5.1185,5.1185,5.0794,0.0,5.0135,5.0084,5.005,4.9915,4.9881,4.9881,4.9881,4.9424,4.9001,4.9001,4.89,4.8798,4.8798,4.8206,4.7699,4.7699,4.6464,4.5483,4.5483,4.4976,4.4615,4.4615,4.4665,4.4934,4.5407,4.5588,4.5705,4.5807,4.5821,4.5364,4.4272,4.3597,4.3251,4.3269,4.3358,4.3411,4.3411,4.3463,4.3515,4.3515,4.3515,4.3515,4.3515,4.3549,4.3566,0.0,0.0,0.0,0.0,0.0,0.0,0.0,0.0,0.0,0.0,0.0,4.2668,4.2935,0.0,4.7454,4.9255,5.0811,5.2317,5.3805,5.4363,5.4313,5.3534,5.4126,5.4905,5.5632,5.5716,5.6021,5.6748,5.6122,5.6021,5.6765,5.6105,5.5869,5.6241,5.6258,5.6089,5.5681,5.6444,5.663,5.6258,5.6151,5.5763,5.5141,5.4649,5.4091,5.3501,5.3501,5.3501,5.3501,5.3501,5.3501,5.3501,5.3501,5.3501,5.3501,5.3501,5.2993,5.23,5.23,5.2063,5.1758,5.1758,5.2029,5.2283,5.1877,5.1488,5.1048,5.0304,5.0371,5.0574,5.0185,5.0371,5.0659,5.0659,5.0371,5.0016,4.9627,4.9543,4.9441,4.9069,4.8714,4.846,4.846,4.7547,4.6566,4.5821,4.5382,4.501,4.4649,4.4615,4.4786,4.5267,4.5303,4.5453,4.5762,4.5737,4.5484,4.4979,4.4235,4.3798,4.3798,4.347,4.3305,4.3305,4.3411,4.3464,4.3464,4.348,4.3515,4.3515,4.3901,4.3883,0.0,0.0,0.0,0.0,0.0,0.0,0.0,4.0413,4.1001,4.2547,4.4065,4.5416,4.6549,4.8105,4.9982,5.2367,5.3416,5.4397,5.575,5.6055,5.597,5.5513,5.5733,5.6275,5.7137,5.6697,5.671,5.7577,5.7268,5.7183,5.7611,5.7116,5.6867,5.7002,5.6444,5.6139,5.6139,5.6714,5.7019,5.7019,5.6966,5.6526,5.5664,5.5056,5.4295,5.3501,5.3501,5.3501,5.3501,5.3501,5.3501,5.3501,5.3501,5.3501,5.3501,5.3501,5.3095,5.2536,5.2536,5.2536,5.2536,5.2536,5.2976,5.3348,5.2536,5.2198,5.1843,5.0642,5.0744,5.1116,5.0642,5.0963,5.1388,5.1388,5.1286,5.1048,5.0439,5.0304,5.0101,4.9357,4.9221,4.9171,4.9018,4.8528,4.7682,4.6346,4.6007,4.5703,4.5106,4.5038,4.5122,4.5365,4.5375,4.5476,4.5749,4.5735,4.5702,4.5702,4.4996,4.4562,4.4562,4.3998,4.3652,4.3652,4.378,4.3816,4.3816,4.3904,4.3957,4.3957,4.4618,4.4507,3.6524,3.716,3.8924,4.1299,4.1529,4.2326,0.0,4.6324,4.5579,4.7729,4.9306,5.0405,5.0574,5.2384,5.3957,5.4279,5.4972,5.575,5.6562,5.7239,5.7865,5.8457,5.7425,5.7222,5.8643,5.8693,5.8126,5.6856,5.7376,5.7487,5.6768,5.6771,5.7103,5.7746,5.7695,5.7645,5.7645,5.7729,5.7763,5.7763,5.7617,5.6855,5.5681,5.542,5.4647,5.3501,5.3501,5.3501,5.3501,5.3501,5.3501,5.3501,5.3501,5.3501,5.3501,5.3501,5.345,5.3365,5.3365,5.3365,5.3365,5.3365,5.3433,5.3348,5.2536,5.1843,5.1269,5.1133,5.115,5.1352,5.1911,5.2114,5.2181,5.2181,5.1691,5.1168,5.1099,5.1099,5.0879,5.0118,4.9965,4.9763,4.912,4.8934,4.8612,4.78,4.7107,4.6633,4.6549,4.6532,4.6324,4.5721,4.5654,4.5754,4.6021,4.6269,4.6398,4.6398,4.5637,4.5204,4.5204,4.5247,4.5232,4.5232,4.5309,4.5347,4.5347,4.5479,4.5535,4.5535,4.57,4.5333,3.8706,3.953,4.0883,4.2087,4.3467,4.5202,4.7784,4.7986,4.8376,5.1065,5.2807,5.3957,5.4397,5.5581,5.6511,5.6511,5.6782,5.7239,5.7983,5.7983,5.8169,5.893,5.7644,5.7093,5.8167,5.8682,5.8509,5.7338,5.8043,5.8376,5.8022,5.7631,5.7577,5.7881,5.7881,5.7881,5.7881,5.7881,5.7881,5.7881,5.7808,5.7048,5.5681,5.5611,5.4801,5.3501,5.3501,5.3501,5.3501,5.3501,5.3501,5.3501,5.3382,5.3382,5.3501,5.3501,5.3501,5.3501,5.3501,5.3501,5.3501,5.3501,5.3501,5.3348,5.2536,5.208,5.1758,5.1303,5.1522,5.1911,5.2232,5.2655,5.301,5.301,5.2773,5.23,5.1371,5.1185,5.0862,4.9695,4.9458,4.9357,4.9052,4.9001,4.89,4.8595,4.7919,4.7293,4.6853,4.6786,4.6667,4.6363,4.6494,4.6639,4.6733,4.7008,4.721,4.721,4.645,4.5997,4.5997,4.5602,4.5388,4.5388,4.5485,4.5543,4.5543,4.564,4.5697,4.5715,4.6266,4.6359,3.9804,4.0942,4.2252,4.3267,4.5635,4.8003,4.9187,5.0016,5.1336,5.4143,5.5412,5.6359,5.7509,5.7983,5.8271,5.8457,5.8507,5.8626,5.8964,5.8541,5.8254,5.8389,5.7197,5.6545,5.705,5.8017,5.8382,5.7752,5.8513,5.8802,5.8358,5.8059,5.7881,5.7881,5.7881,5.7881,5.7881,5.7881,5.7881,5.7881,5.7881,5.712,5.57,5.5294,5.4515,5.3501,5.3501,5.3501,5.3501,5.3501,5.3467,5.3416,5.3298,5.3348,5.3416,5.3467,5.3501,5.3501,5.3501,5.3501,5.3501,5.3501,5.3501,5.3348,5.2536,5.23,5.2198,5.1657,5.1894,5.235,5.257,5.3061,5.3501,5.3501,5.3501,5.3129,5.1809,5.1691,5.1336,4.9627,4.9475,4.9492,4.9069,4.9001,4.9001,4.9001,4.8562,4.802,4.7479,4.7225,4.7107,4.7107,4.7044,4.7054,4.7189,4.7377,4.7533,4.7678,4.7156,4.683,4.683,4.6269,4.5961,4.5961,4.6059,4.6118,4.6118,4.6179,4.6218,4.6236,4.6956,4.7289,3.843,4.0104,4.2117,4.5737,4.8342,5.0574,5.2824,5.389,5.5057,5.7289,5.7222,5.7425,5.9607,5.9438,5.9218,5.9928,6.003,5.9793,5.9116,5.8998,5.8457,5.7036,5.6188,5.5682,0.0,5.6884,5.7713,5.7713,5.8513,5.8341,5.6774,5.746,5.7881,5.7881,5.7881,5.7881,5.7881,5.7881,5.7881,5.7881,5.7881,5.712,5.5666,5.4228,5.3551,5.3501,5.3501,5.3501,5.3501,5.3501,5.3382,5.323,5.3433,5.3382,5.323,5.3433,5.3501,5.3501,5.3501,5.3501,5.3501,5.3501,5.3501,5.3348,5.2536,5.23,5.23,5.2283,5.2283,5.2486,5.3264,5.3484,5.3501,5.3501,5.3501,5.3281,5.2452,5.2892,5.2756,5.049,5.0642,5.0693,4.9255,4.9001,4.9001,4.9001,4.8984,4.8968,4.8934,4.8325,4.7855,4.7855,4.705,4.6707,4.7164,4.7015,4.7147,4.7675,4.7681,4.7663,4.7663,4.7624,4.7645,4.7645,4.7627,4.7627,4.7627,4.7767,4.7829,4.7829,4.7933,4.8034,3.9986,4.2642,4.5686,4.8917,5.1048,5.2942,5.5192,5.5886,5.6545,5.8271,5.7273,5.6461,5.7679,5.7323,5.69,5.7154,5.8,5.8541,5.8304,5.7848,5.6985,5.5513,5.5053,0.0,0.0,0.0,0.0,5.7653,5.8043,5.8261,5.8182,5.8005,5.7881,5.7881,5.7881,5.7608,5.7051,5.7051,5.6518,5.5506,5.4552,5.4121,5.4131,5.3163,5.2989,5.3501,5.3501,5.3501,5.3501,5.3501,5.3467,5.3382,5.3348,5.3348,5.3382,5.3348,5.3382,5.3501,5.3501,5.3501,5.3501,5.3501,5.3501,5.345,5.3179,5.3095,5.3095,5.3095,5.3095,5.3162,5.3433,5.3501,5.3501,5.3501,5.3501,5.3281,5.2469,5.252,5.2334,5.1082,5.0642,5.0304,4.9813,4.9323,4.9001,4.9001,4.9001,4.9001,4.9001,4.8781,4.8646,4.8646,4.823,4.8003,4.8179,4.7834,4.7722,4.79,4.776,4.7717,4.7717,4.7717,4.7717,4.7717,4.7717,4.7717,4.7717,4.7738,4.7759,4.7759,4.7884,4.7966,4.2506,4.5145,4.7902,5.0862,5.2756,5.4329,5.6021,5.6816,5.7391,5.8084,5.6461,5.5158,5.5886,5.4972,5.4279,5.4837,5.5716,5.641,5.6664,5.6089,5.5277,5.4313,5.4131,5.4109,0.0,0.0,0.0,5.7239,5.7453,5.7712,5.8203,5.8017,5.7881,5.7881,5.7881,5.748,5.6614,5.6349,5.5451,5.3934,5.3052,5.291,5.337,5.294,5.3024,5.3501,5.3501,5.3467,5.3382,5.3382,5.3348,5.328,5.323,5.3264,5.3382,5.3348,5.3382,5.3501,5.3501,5.3501,5.3501,5.3501,5.3501,5.3501,5.3501,5.3501,5.3501,5.3501,5.3501,5.3501,5.3501,5.3501,5.3501,5.3501,5.3501,5.3281,5.2469,5.2536,5.235,5.1065,5.0642,5.0321,4.9796,4.9306,4.9001,4.9001,4.9001,4.9001,4.9001,4.9001,4.9001,4.9001,4.8669,4.8483,4.8678,4.8181,4.7904,4.7998,4.7873,4.7778,4.7696,4.7717,4.7717,4.7717,4.7717,4.7717,4.7717,4.7717,4.7717,4.7717,4.778,4.7861,4.5686,4.7479,4.8832,5.1708,5.3518,5.4786,5.5547,5.6748,5.7492,5.6731,5.4786,5.3399,5.4025,5.2418,5.1488,5.3027,5.3399,5.3754,5.4482,5.3991,5.3534,5.345,5.3518,5.3534,5.345,0.0,0.0,5.6457,0.0,5.6729,5.685,5.7509,5.7881,5.7881,5.7881,5.7443,5.6536,5.5737,5.4596,5.3126,5.3152,5.3192,5.3284,5.3326,5.3433,5.3501,5.3501,5.3382,5.3179,5.3179,5.3076,5.2938,5.3161,5.323,5.323,5.3416,5.3501,5.3501,5.3501,5.3501,5.3501,5.3501,5.3501,5.3501,5.3501,5.3501,5.3501,5.3501,5.3501,5.3501,5.3501,5.3501,5.3501,5.3501,5.3501,5.3298,5.2536,5.2959,5.2858,5.0625,5.0727,5.071,4.9306,4.9018,4.9001,4.9001,4.9001,4.9001,4.9001,4.9001,4.9001,4.9001,4.8392,4.8146,4.8661,4.8058,4.777,4.7968,4.7998,4.789,4.7672,4.7696,4.7717,4.7717,4.7717,4.7717,4.7717,4.7717,4.7717,4.7717,4.7717,4.7759,4.7022,4.9373,5.164,5.3534,5.4296,5.4786,5.5547,5.5581,5.5057,5.3721,5.1251,4.9069,4.8139,4.7936,4.8409,4.9898,5.2029,5.3754,5.4482,5.4431,5.389,5.2739,5.3619,5.3873,5.2723,5.3972,0.0,0.0,5.5101,5.5816,5.7507,5.778,5.7881,5.7881,5.7881,5.7164,5.5676,5.3165,5.1518,5.0622,5.0066,5.0483,5.1683,5.1709,5.2362,5.3501,5.3348,5.3264,5.3179,5.3179,5.3179,5.3144,5.3348,5.3416,5.3416,5.3467,5.3501,5.3501,5.3501,5.3501,5.3501,5.3501,5.3501,5.3501,5.3501,5.3501,5.3501,5.3501,5.3501,5.3501,5.3501,5.3501,5.3501,5.3501,5.3501,5.345,5.3247,5.3365,5.3162,5.1961,5.0997,5.0253,4.9881,4.9357,4.9001,4.9001,4.9001,4.9001,4.9001,4.9001,4.9001,4.9001,4.8832,4.8775,4.891,4.8591,4.8214,4.7734,4.789,4.7734,4.7143,4.749,4.7717,4.7717,4.7717,4.7717,4.7717,4.7717,4.7717,4.7717,4.7717,4.7717,4.9357,5.1539,5.3433,5.3974,5.46,5.4854,5.394,5.367,5.2875,5.0388,4.8054,4.6092,4.4925,4.5043,4.5805,4.731,4.9526,5.1539,5.2909,5.3382,5.3399,5.2892,5.4448,5.4972,5.345,5.4708,5.5631,0.0,5.5547,5.6063,5.7374,5.7712,5.7881,5.7881,5.7808,5.677,5.4737,5.2061,5.0359,4.9724,4.9693,5.019,5.1107,5.1826,5.2642,5.3501,0.0,5.323,5.3076,5.3144,5.3144,5.3076,5.3298,5.3416,5.3501,5.3501,5.3501,5.3501,5.3501,5.3501,5.3501,5.3501,5.3501,5.3501,5.3501,5.3501,5.3501,5.3501,5.3501,5.3501,5.3501,5.3501,5.3501,5.3501,5.3501,5.3501,5.3501,5.3501,5.3264,5.2469,5.1099,5.0084,5.0084,4.9746,4.9373,4.9052,4.9001,4.9001,4.9001,4.9001,4.9001,4.9001,4.9001,4.9001,4.9001,4.8899,4.8626,4.8109,4.8145,4.7943,4.7397,4.7587,4.7717,4.7717,4.7717,4.7717,4.7717,4.7717,4.7717,4.7717,4.7717,4.7717,5.1758,5.3348,5.4296,5.367,5.4397,5.4532,5.1708,5.1336,5.0574,4.7073,4.519,4.3893,4.3115,4.3105,4.3809,4.5432,4.6955,4.87,5.1031,5.1911,5.2638,5.3551,5.5344,5.6038,5.4854,5.5364,5.6057,5.6763,5.6776,5.6826,5.6951,5.7543,5.7845,5.7735,5.746,5.6172,5.3873,5.1746,5.0359,4.9724,5.054,5.0995,5.1145,5.2677,5.3399,5.3501,5.3467,0.0,5.2903,5.311,5.3076,5.2903,5.3144,5.3348,5.3501,5.3501,5.3501,5.3501,5.3501,5.3501,5.3501,5.3501,5.3501,5.3501,5.3501,5.3501,5.3501,5.3501,5.3501,5.3501,5.3501,5.3501,5.3501,5.3501,5.3501,5.3501,5.3501,5.3416,5.3179,5.257,5.1251,5.027,5.0371,5.0304,4.9999,4.9255,4.9238,4.9221,4.9035,4.9001,4.9001,4.9001,4.9001,4.9001,4.9001,4.9001,4.8876,4.8604,4.8429,4.8176,4.7903,4.7693,4.7636,4.7717,4.7717,4.7717,4.7717,4.7717,4.7717,4.7717,4.7717,4.7717,5.2029,5.2976,5.367,5.3534,5.3196,5.2435,5.0676,4.8968,4.7039,4.4519,4.2828,4.1559,4.0823,4.166,4.32,4.5365,4.6955,4.89,5.1725,5.2232,5.2824,5.4228,5.4735,5.5124,5.548,5.6185,0.0,0.0,5.6683,5.6943,5.7659,5.7814,5.7571,5.6861,5.6074,5.4875,5.32,5.1534,5.0359,4.9724,4.9976,5.0477,5.1145,5.2076,5.2868,5.3501,5.3332,0.0,5.2903,5.311,5.3076,5.2938,5.3314,5.3467,5.3501,5.3501,5.3501,5.3501,5.3501,5.3501,5.3501,5.3501,5.3501,5.3501,5.3501,5.3501,5.3501,5.3501,5.3501,5.3501,5.3501,5.3501,5.3501,5.3501,5.3501,5.3501,5.3501,5.2993,5.2655,5.3196,5.2063,5.12,5.1809,5.142,5.076,5.0016,5.0439,5.0388,4.9171,4.9001,4.9001,4.9001,4.9001,4.9001,4.9001,4.9001,4.8728,4.8086,4.7837,4.7603,4.735,4.7139,4.7236,4.7678,4.7717,4.7717,4.7717,4.7717,4.7717,4.7717,4.7717,4.7717,5.2723,5.3484,5.3873,5.3078,5.2587,5.1505,4.8494,4.638,4.4401,4.2151,4.0815,4.0054,4.0096,4.1314,4.2777,4.4265,4.5788,4.78,5.0744,5.1488,5.23,5.3839,5.4718,5.531,5.5683,5.6376,5.6968,5.734,5.7295,5.7443,5.7881,5.7881,5.7443,5.6459,5.5716,5.4684,5.3391,5.1592,5.0528,5.0232,5.0414,5.0729,5.1145,5.2378,5.3144,5.3501,5.3382,0.0,5.3076,5.3264,5.323,5.3093,5.3382,5.3501,5.3501,5.3501,5.3501,5.3501,5.3501,5.3501,5.3501,5.3501,5.3501,5.3501,5.3501,5.3501,5.3501,5.3501,5.3501,5.3501,5.3501,5.3501,5.3501,5.3501,5.3501,5.3501,5.3501,5.2875,5.2536,5.3348,5.257,5.1894,5.2249,5.2012,5.1522,5.0777,5.098,5.0828,4.9712,4.956,4.9424,4.9035,4.9001,4.9001,4.9001,4.9001,4.8849,4.8494,4.8294,4.8231,4.839,4.7795,4.7738,4.8312,4.7895,4.7717,4.7717,4.7717,4.7717,4.7717,4.7717,4.7717,5.3078,5.3788,5.4025,5.2655,5.2063,5.0744,4.665,4.4265,4.2405,4.0502,3.9402,3.9039,3.9943,4.106,4.2117,4.3031,4.4181,4.6058,4.9187,5.027,5.1437,5.3281,5.4532,5.5361,5.5683,5.6241,0.0,5.7594,5.7797,0.0,5.7881,5.7718,5.7126,5.6106,5.5393,5.4463,5.3259,5.1571,5.062,5.0509,5.0912,5.1107,5.1145,5.2782,5.3501,5.3501,5.3501,0.0,0.0,5.3433,5.3382,5.3213,5.3416,5.3501,5.3501,5.3501,5.3501,5.3501,5.3501,5.3501,5.3501,5.3501,5.3501,5.3501,5.3501,5.3501,5.3501,5.3501,5.3501,5.3501,5.3501,5.3501,5.3501,5.3501,5.3365,5.3247,5.3247,5.2756,5.2486,5.3129,5.2875,5.2553,5.2553,5.2553,5.23,5.1555,5.1589,5.1369,5.0439,5.0338,5.005,4.9306,4.9086,4.9001,4.9001,4.9001,4.9001,4.9001,4.8707,4.8819,4.9477,4.8594,4.8411,4.9144,4.8387,4.795,4.795,4.7769,4.7717,4.7717,4.7717,4.7717,5.2384,5.2993,5.3399,5.252,5.1285,4.9492,4.6397,4.347,4.1153,4.0282,3.8971,3.843,3.9842,4.0214,4.0773,4.2168,4.2506,4.3893,4.7567,4.8748,5.027,5.3162,5.3619,5.4245,5.5581,5.5784,5.6122,5.685,0.0,0.0,5.7881,5.7164,5.6325,5.5418,5.4553,5.3408,5.1878,5.111,5.0389,4.9816,5.0689,5.1107,5.1145,5.2782,5.3501,5.3501,5.3501,0.0,0.0,5.3433,5.3382,5.3213,5.3416,5.3501,5.3501,5.3501,5.3501,5.3501,5.3501,5.3501,5.3501,5.3501,5.3501,5.3501,5.3501,5.3501,5.3501,5.3501,5.3501,5.3501,5.3501,5.3501,5.3501,5.3501,5.2942,5.2418,5.2418,5.235,5.2317,5.2401,5.2942,5.3399,5.3399,5.3399,5.3129,5.2317,5.2824,5.2773,5.1302,5.1083,5.0828,5.0067,4.9407,4.9001,4.9001,4.9001,4.9001,4.9001,4.8338,4.8425,4.9468,4.8775,4.8879,4.9981,4.9202,4.8782,4.8782,4.8058,4.7717,4.7717,4.7717,4.7717,5.1826,5.2892,5.3213,5.1961,5.0202,4.8122,4.5602,4.2692,4.0443,4.0163,3.9276,3.887,3.991,4.0096,4.0299,4.0891,4.0993,4.1948,4.4778,4.5855,4.7614,5.1048,5.186,5.3078,0.0,0.0,5.553,5.6714,0.0,0.0,5.7881,5.7089,5.6208,5.5337,5.4443,5.3263,5.1713,5.1036,5.0359,4.9708,5.0657,5.1107,5.1145,5.2782,5.3501,5.3501,5.3501,0.0,0.0,5.3433,5.3382,5.3213,5.3416,5.3501,5.3501,5.3501,5.3501,5.3501,5.3501,5.3501,5.3501,5.3501,5.3501,5.3501,5.3501,5.3501,5.3501,5.3501,5.3501,5.3501,5.3501,5.3501,5.3501,5.3501,5.3264,5.3027,5.3027,5.3027,5.3027,5.3027,5.3281,5.3501,5.3501,5.3501,5.3399,5.3078,5.3298,5.3112,5.2012,5.186,5.142,5.0219,4.9441,4.9001,4.9001,4.9001,4.9138,4.9526,4.9252,4.9595,5.0722,5.0029,4.9984,5.0814,4.9564,4.8891,4.8891,4.8098,4.7953,4.842,4.842,4.8695,5.0388,5.1894,5.252,5.12,4.9221,4.7056,4.5055,4.2279,4.0096,4.0096,3.952,3.9249,3.996,4.0096,4.0096,4.0096,4.0096,4.0865,4.3071,4.4079,4.5816,4.9052,0.0,5.1572,5.4109,5.4718,5.5446,5.6714,0.0,0.0,5.7881,5.7089,5.6208,5.5337,5.3999,5.2722,5.1421,5.0728,5.0051,4.94,5.0287,5.0881,5.1145,5.252,5.328,5.3501,5.3246,0.0,0.0,5.2817,5.28,5.2835,5.3041,5.328,5.3501,5.3501,5.3501,5.3501,5.3501,5.3501,5.3501,5.3501,5.3501,5.3501,5.3501,5.3501,5.3501,5.3501,5.3501,5.3501,5.3501,5.3501,5.3501,5.3501,5.3315,5.3145,5.3145,5.3145,5.3145,5.3145,5.3348,5.3501,5.3501,5.3501,5.3501,5.3501,5.3501,5.3298,5.2739,5.2452,5.1894,5.0862,5.0084,4.9475,4.9035,4.9001,4.926,4.9861,4.989,5.0394,5.1551,5.1041,5.1042,5.1647,5.0071,4.9257,4.9257,4.8224,4.8094,4.8891,4.8891,4.9329,4.772,4.9545,5.1048,5.0287,4.8443,4.6413,4.4953,4.2279,4.0096,4.0096,3.952,3.9249,3.996,4.0096,4.0096,4.0096,4.0096,4.0865,4.3071,4.4079,4.5415,4.7682,4.8578,4.961,5.1083,5.3957,5.6004,0.0,0.0,0.0,5.7881,5.7089,5.6208,5.5337,5.2977,5.139,5.0713,5.0035,4.9343,4.862,4.9486,5.0322,5.1145,5.1915,5.2764,0.0,0.0,0.0,0.0,5.1352,5.1426,5.1921,5.2219,5.2799,5.3501,5.3501,5.3501,5.3501,5.3501,5.3501,5.3501,5.3501,5.3501,5.3501,5.3501,5.3501,5.3501,5.3501,5.3501,5.3501,5.3501,5.3501,5.3501,5.3501,5.2892,5.2317,5.2317,5.2317,5.2317,5.2317,5.2959,5.3501,5.3501,5.3501,5.3501,5.3501,5.3501,5.3501,5.3501,5.279,5.23,5.2283,5.164,5.0608,4.912,4.9001,4.926,4.9861,4.989,5.0394,5.1551,5.1601,5.1866,5.248,5.0904,5.0093,5.0093,4.8478,4.8094,4.8891,4.8891,4.9329,4.4474,4.6481,4.7767,4.5974,4.4993,4.4096,4.2608,4.0747,3.9503,3.9994,3.952,3.9249,3.996,4.0096,4.0282,4.0764,4.0849,4.1271,4.2472,4.4215,4.5991,4.7686,5.0828,5.2807,0.0,0.0,5.6342,0.0,0.0,0.0,5.7881,5.6604,5.5682,5.532,5.3983,5.2648,5.139,5.0713,5.0035,4.9343,4.9721,5.0026,5.0322,5.1107,5.1606,0.0,0.0,0.0,0.0,5.1463,5.172,5.1796,5.2609,5.3161,5.3501,5.3501,5.3501,5.3501,5.3501,5.3501,5.3501,5.3501,5.3501,5.3501,5.3501,5.3501,5.3501,5.3501,5.3501,5.3501,5.3501,5.3501,5.3501,5.3501,5.3315,5.3129,5.3129,5.3129,5.3129,5.3129,5.3331,5.3501,5.3501,5.3501,5.3501,5.3501,5.3501,5.3501,5.3501,5.3281,5.2909,5.2367,5.2097,5.1352,4.9864,4.9746,4.9936,5.0422,5.0442,5.0973,5.2162,5.2228,5.2298,5.2498,5.1448,5.0927,5.0927,4.9854,4.9745,5.0542,5.1104,5.1502,4.1677,4.3589,4.4756,4.3335,4.2794,4.2243,4.1068,3.9868,3.9039,3.9225,3.8903,3.8717,3.9174,3.9503,3.9859,4.029,4.0849,4.1559,4.2574,4.4451,4.6363,4.8122,5.1285,0.0,0.0,5.4668,0.0,0.0,0.0,0.0,5.7881,5.6969,5.621,5.5819,5.4099,5.2775,5.1802,5.0808,4.9959,4.9281,4.9381,4.9749,5.0361,5.0554,5.0973,0.0,0.0,0.0,0.0,5.0881,5.1187,5.1266,5.2416,5.3127,5.3501,5.3501,5.3501,5.3501,5.3501,5.3501,5.3501,5.3501,5.3501,5.3501,5.3501,5.3501,5.3501,5.3501,5.3501,5.3501,5.3501,5.3501,5.3501,5.3501,5.3501,5.3501,5.3501,5.3501,5.3501,5.3501,5.3501,5.3501,5.3501,5.3501,5.3501,5.3501,5.3501,5.3501,5.3501,5.3501,5.3315,5.2807,5.2756,5.2266,5.1031,5.0405,5.0385,5.1107,5.0873,5.1243,5.2434,5.2498,5.2498,5.2498,5.1701,5.1285,5.1285,5.0818,5.0796,5.1303,5.2118,5.2498,0.0,4.0874,4.1948,4.1847,4.1424,4.0849,4.0096,3.9411,0.0,3.8108,3.7889,3.7855,3.7973,3.8531,3.9022,3.914,4.0358,4.1796,4.3274,4.4942,4.6802,0.0,5.0473,0.0,5.1202,5.3264,0.0,0.0,0.0,0.0,5.7763,5.7763,5.7416,5.6729,5.3657,5.2011,5.2074,5.0532,4.9404,4.8696,4.8676,4.9454,5.0919,5.0206,5.0669,0.0,0.0,0.0,0.0,4.9749,5.0151,5.0528,5.1862,5.2834,5.3501,5.3501,5.3501,5.3501,5.3501,5.3501,5.3501,5.3501,5.3501,5.3501,5.3501,5.3501,5.3501,5.3501,5.3501,5.3501,5.3501,5.3501,5.3501,5.3501,5.3501,5.3501,5.3501,5.3501,5.3501,5.3501,5.3501,5.3501,5.3501,5.3501,5.3501,5.3501,5.3501,5.3501,5.3501,5.3501,5.3501,5.3501,5.3501,5.3196,5.2452,5.1031,5.0659,5.1833,5.1154,5.1243,5.2434,5.2498,5.2498,5.2498,5.1756,5.1375,5.1375,5.1375,5.1375,5.1393,5.2136,5.2498,3.6535,0.0,3.865,3.7483,3.8362,3.9326,0.0,3.8294,3.8278,3.8667,3.7838,3.7398,3.8531,3.887,3.936,4.051,4.1441,4.2557,4.4096,4.7056,0.0,5.0557,5.2046,5.2503,5.1319,5.3264,0.0,0.0,0.0,5.6292,5.7019,5.6528,5.6624,5.7574,5.4524,5.2869,5.2754,5.1231,5.0112,4.942,4.955,4.943,4.9188,4.967,4.9749,0.0,0.0,0.0,4.8396,4.9931,5.0522,5.0566,5.231,5.3195,5.3501,5.3501,5.3501,5.3501,5.3501,5.3501,5.3501,5.3501,5.3501,5.3501,5.3501,5.3501,5.3501,5.3501,5.3501,5.3501,5.3501,5.3501,5.3501,5.3501,5.3501,5.3501,5.3501,5.3501,5.3501,5.3501,5.3501,5.3501,5.3501,5.3501,5.3501,5.3501,5.3501,5.3501,5.3501,5.3501,5.3501,5.3501,5.3501,5.3433,5.323,5.1826,5.1241,5.185,5.1154,5.1243,5.2434,5.2498,5.2498,5.2498,5.2299,5.2208,5.2208,5.2208,5.2208,5.2208,5.2408,5.2498,3.56,3.6208,3.6738,3.6282,3.7077,3.7872,3.7483,3.7398,3.7398,3.7432,3.6806,3.6603,3.7794,3.8261,3.8971,4.046,4.1593,4.3064,4.5309,0.0,4.9627,5.1016,5.1961,5.2401,0.0,0.0,0.0,0.0,0.0,5.5666,5.6748,5.6427,5.6731,5.7848,5.5521,5.3906,5.3157,5.1236,5.0093,4.978,4.9874,5.0065,5.0306,5.0384,5.0384,0.0,0.0,0.0,4.9358,5.0881,5.1331,5.1245,5.2765,5.3382,5.3501,5.3501,5.3501,5.3501,5.3501,5.3501,5.3501,5.3501,5.3501,5.3501,5.3501,5.3501,5.3501,5.3501,5.3501,5.3501,5.3501,5.3501,5.3501,5.3501,5.3501,5.3501,5.3501,5.3501,5.3501,5.3501,5.3501,5.3501,5.3501,5.3501,5.3501,5.3501,5.3501,5.3501,5.3501,5.3501,5.3501,5.3501,5.3501,5.3501,5.3501,5.2401,5.1893,5.2393,5.1986,5.1979,5.247,5.2842,5.2878,5.2498,5.2498,5.2498,5.2498,5.2498,5.2498,5.2498,5.2498,5.2498,3.56,3.5684,3.5926,3.6468,3.6711,3.6795,3.6795,3.6795,3.6609,3.5926,3.5769,3.6045,3.6829,3.7652,3.8684,4.0062,4.1694,0.0,4.687,4.7953,4.9089,5.0997,5.1388,0.0,0.0,0.0,0.0,0.0,0.0,5.5074,5.6562,5.663,5.7019,5.7865,5.6216,5.4738,5.3502,5.1111,4.9879,4.9908,5.0026,5.0783,5.2112,5.1533,5.157,5.2076,0.0,0.0,5.0773,5.1878,5.2115,5.1993,5.3076,5.3501,5.3501,5.3501,5.3501,5.3501,5.3501,5.3501,5.3501,5.3501,5.3501,5.3501,5.3501,5.3501,5.3501,5.3501,5.3501,5.3501,5.3501,5.3501,5.3501,5.3501,5.3501,5.3501,5.3501,5.3501,5.3501,5.3501,5.3501,5.3501,5.3501,5.3501,5.3501,5.3501,5.3501,5.3501,5.3501,5.3501,5.3501,5.3501,5.3501,5.3501,5.3501,5.2892,5.2663,5.3135,5.3074,5.2892,5.2687,5.3222,5.3204,5.2516,5.2498,5.2498,5.2498,5.2498,5.2498,5.2498,5.2498,5.2498,3.56,3.6096,3.6468,3.5926,3.6299,3.6795,3.6795,3.6795,3.6761,3.6643,3.6626,3.684,3.7601,3.8836,4.002,4.0882,4.3369,4.621,0.0,0.0,5.0813,5.1151,0.0,5.2739,0.0,0.0,0.0,0.0,0.0,5.4313,5.5801,5.5886,5.6494,5.7848,5.5806,5.4543,5.4316,5.1908,5.0443,4.9908,5.0576,5.1032,5.1294,5.1842,5.1806,5.1257,0.0,5.0941,5.0773,5.1878,5.2115,5.1993,5.3076,5.3501,5.3501,5.3501,5.3501,5.3501,5.3501,5.3501,5.3501,5.3501,5.3501,5.3501,5.3501,5.3501,5.3501,5.3501,5.3501,5.3501,5.3501,5.3501,5.3501,5.3501,5.3501,5.3501,5.3501,5.3501,5.3501,5.3501,5.3501,5.3501,5.3501,5.3501,5.3501,5.3501,5.3501,5.3501,5.3501,5.3501,5.3501,5.3501,5.3501,5.3501,5.3501,5.3399,5.3532,5.3987,5.3372,5.3167,5.3501,5.2987,5.2625,5.2498,5.2498,5.2498,5.2498,5.2498,5.2498,5.2498,5.2498,5.2498,3.56,3.5876,3.6163,3.6231,3.6823,3.7381,3.7381,3.7381,3.7381,3.7381,3.7381,3.7736,3.8862,3.9969,4.1339,4.3318,4.5466,4.7378,4.8731,4.956,5.0321,0.0,0.0,0.0,0.0,0.0,0.0,0.0,0.0,0.0,5.5057,5.5108,5.5598,5.6681,5.5314,5.4353,5.3901,5.242,5.1296,5.0538,5.0919,5.1348,5.1769,5.259,5.2747,5.2397,0.0,5.2326,5.2238,5.2747,5.2886,5.2818,5.3314,5.3501,5.3501,5.3501,5.3501,5.3501,5.3501,5.3501,5.3501,5.3501,5.3501,5.3501,5.3501,5.3501,5.3501,5.3501,5.3501,5.3501,5.3501,5.3501,5.3501,5.3501,5.3501,5.3501,5.3501,5.3501,5.3501,5.3501,5.3501,5.3501,5.3501,5.3501,5.3501,5.3501,5.3501,5.3501,5.3501,5.3501,5.3501,5.3501,5.3501,5.3501,5.3501,5.3501,5.3874,5.4753,5.3912,5.3667,5.4321,5.315,5.2498,5.2498,5.2498,5.2498,5.2498,5.2498,5.2498,5.2498,5.2498,5.2498,3.56,3.5735,3.5994,3.64,3.6941,3.7516,3.8041,3.8024,3.8007,3.8345,3.8565,3.8971,3.991,4.0975,4.2658,4.55,4.7208,4.8261,4.8615,4.9323,5.0338,5.1826,0.0,0.0,0.0,0.0,0.0,0.0,0.0,0.0,5.4566,5.4583,5.4938,5.5664,5.4972,5.4307,5.3673,5.2779,5.2004,5.1369,5.1369,5.1806,5.2607,5.3212,5.3501,5.3501,5.3501,5.3501,5.3501,5.3501,5.3501,5.3501,5.3501,5.3501,5.3501,5.3501,5.3501,5.3501,5.3501,5.3501,5.3501,5.3501,5.3501,5.3501,5.3501,5.3501,5.3501,5.3501,5.3501,5.3501,5.3501,5.3501,5.3501,5.3501,5.3501,5.3501,5.3501,5.3501,5.3501,5.3501,5.3501,5.3501,5.3501,5.3501,5.3501,5.3501,5.3501,5.3501,5.3501,5.3501,5.3501,5.3501,5.3501,5.3568,5.3701,5.3849,5.4325,5.5185,5.448,5.42,5.4617,5.344,5.2679,5.2498,5.2498,5.2498,5.2498,5.2498,5.2498,5.2498,5.2498,5.2589,3.56,3.6146,3.6558,3.5853,3.5718,3.6309,3.8447,3.8396,3.8294,3.9656,4.0493,4.0798,4.0197,4.182,4.4012,4.6329,4.7953,4.9407,5.0762,0.0,5.2638,5.416,0.0,0.0,0.0,0.0,0.0,0.0,0.0,0.0,5.4583,5.4583,5.4938,5.5664,5.4972,5.4583,5.4514,5.3044,5.2272,5.2219,5.2219,5.2642,5.3433,5.3467,5.3501,5.3501,5.3501,5.3501,5.3501,5.3501,5.3501,5.3501,5.3501,5.3501,5.3501,5.3501,5.3501,5.3501,5.3501,5.3501,5.3501,5.3501,5.3501,5.3501,5.3501,5.3501,5.3501,5.3501,5.3501,5.3501,5.3501,5.3501,5.3501,5.3501,5.3501,5.3501,5.3501,5.3501,5.3501,5.3501,5.3501,5.3501,5.3501,5.3501,5.3501,5.3501,5.3501,5.3501,5.3501,5.3501,5.3501,5.3501,5.3501,5.3734,5.4281,5.4905,5.5214,5.5106,5.5045,5.4627,5.3814,5.3675,5.3259,5.2516,5.2498,5.2498,5.2498,5.2498,5.2498,5.2498,5.2498,5.2896,3.56,3.618,3.6728,3.6417,3.6349,3.6806,3.8582,3.9495,4.0121,4.0679,4.2134,4.3217,4.2946,4.4333,4.5805,4.665,4.8815,5.0574,5.1133,5.2283,5.3264,0.0,0.0,0.0,0.0,0.0,0.0,0.0,0.0,0.0,5.3145,5.3162,5.3534,5.4313,5.4059,5.3923,5.3923,5.2842,5.2555,5.3058,5.2537,5.2466,5.2764,5.328,5.3501,5.3501,5.3501,5.3501,5.3501,5.3501,5.3501,5.3501,5.3501,5.3501,5.3501,5.3501,5.3501,5.3501,5.3501,5.3501,5.3501,5.3501,5.3162,5.2756,5.2756,5.2756,5.2756,5.2756,5.3112,5.3501,5.3501,5.3501,5.3501,5.3501,5.3501,5.3501,5.3501,5.3501,5.3501,5.3501,5.3501,5.3501,5.3501,5.3501,5.3501,5.3501,5.3501,5.3501,5.3501,5.3501,5.3501,5.3501,5.3501,5.375,5.4359,5.4991,5.5277,5.5116,5.545,5.5281,5.4466,5.3965,5.3566,5.3241,5.2752,5.2498,5.2498,5.3005,5.3241,5.3259,5.3766,5.4164,3.56,3.6011,3.6417,3.6417,3.6789,3.754,3.9005,4.0307,4.1474,4.2422,4.347,4.4434,4.5173,4.5749,4.6329,0.0,4.9238,5.0947,5.1183,5.2317,0.0,0.0,0.0,0.0,0.0,0.0,0.0,0.0,0.0,0.0,0.0,5.1961,5.2215,5.2773,5.2773,5.2892,5.3129,5.2587,5.2587,5.3129,5.2821,5.2677,5.2677,5.2977,5.3264,5.3501,5.3501,5.3501,5.3501,5.3501,5.3501,5.3501,5.3501,5.3501,5.3501,5.3501,5.3501,5.3501,5.3501,5.3501,5.3501,5.3501,5.3129,5.2689,5.2689,5.2689,5.2689,5.2689,5.3078,5.3501,5.3501,5.3501,5.3501,5.3501,5.3501,5.3501,5.3501,5.3501,5.3501,5.3501,5.3501,5.3501,5.3501,5.3501,5.3501,5.3501,5.3501,5.3501,5.3501,5.3501,5.3501,5.3501,5.3501,5.3816,5.4658,5.5064,5.5299,5.5382,5.601,5.5921,5.4943,5.4381,5.3965,5.3693,5.2915,5.2625,5.2878,5.344,5.3838,5.4092,5.4653,5.5033,3.56,3.56,3.5616,3.5616,3.6766,3.8311,3.9774,4.0679,4.2066,4.5094,4.4474,4.4102,4.638,4.5602,4.5331,4.7517,4.9137,5.0355,5.1099,0.0,0.0,0.0,0.0,0.0,0.0,0.0,0.0,0.0,0.0,0.0,0.0,5.12,5.1185,5.1202,5.1202,5.1572,5.23,5.23,5.23,5.2317,5.3112,5.3484,5.3467,5.2672,5.2756,5.3501,5.3501,5.3501,5.3501,5.3501,5.3501,5.3501,5.3501,5.3501,5.3501,5.3501,5.3501,5.3501,5.3501,5.3501,5.3501,5.3501,5.3501,5.3501,5.3501,5.3501,5.3501,5.3501,5.3501,5.3501,5.3501,5.3501,5.3501,5.3501,5.3501,5.3501,5.3501,5.3501,5.3501,5.3501,5.3501,5.3501,5.3501,5.3501,5.3501,5.3501,5.3501,5.3501,5.3501,5.3501,5.3501,5.3501,5.3501,5.3996,5.5296,5.5332,5.5514,5.5998,5.6754,5.6518,5.4979,5.4907,5.4544,5.3748,5.2933,5.2915,5.3711,5.3729,5.4128,5.4907,5.4925,5.5305,3.56,3.6011,3.6434,3.6434,3.7567,3.9056,4.0544,4.1441,4.2828,4.5838,4.5703,4.5382,4.6583,4.687,0.0,4.7107,4.8798,5.0168,5.0388,0.0,0.0,0.0,0.0,0.0,0.0,0.0,0.0,0.0,0.0,0.0,0.0,5.0422,5.0896,5.1944,5.1978,5.235,5.3145,5.2587,5.2587,5.3129,5.23,5.2164,5.2672,5.2993,5.3281,5.3501,5.3501,5.3501,5.3501,5.3501,5.3501,5.3501,5.3501,5.3501,5.3501,5.3501,5.3501,5.3501,5.3501,5.3501,5.3501,5.3501,5.3129,5.2655,5.2655,5.2655,5.2655,5.2655,5.3061,5.3501,5.3501,5.3501,5.3501,5.3501,5.3501,5.3501,5.3501,5.3501,5.3501,5.3501,5.3501,5.3501,5.3501,5.3501,5.3501,5.3501,5.3501,5.3501,5.3501,5.3501,5.3501,5.3501,5.3865,5.4488,5.5325,5.5773,5.6241,5.6794,5.7062,5.6736,5.5721,5.5667,5.5558,5.5323,5.4562,5.4309,5.4562,5.5051,5.5432,5.5685,5.6247,5.6645,3.56,3.596,3.64,3.6728,3.8132,3.9969,4.2066,4.3335,4.4756,4.7175,4.6853,4.6447,4.7479,4.7564,0.0,4.7648,4.8781,4.9763,0.0,0.0,0.0,0.0,0.0,0.0,0.0,0.0,0.0,0.0,0.0,0.0,0.0,4.9932,5.0507,5.1403,5.142,5.1809,5.2587,5.1809,5.1674,5.2131,5.1505,5.1285,5.1454,5.2536,5.3196,5.3501,5.3501,5.3501,5.3501,5.3501,5.3501,5.3501,5.3501,5.3501,5.3467,5.3145,5.3027,5.3027,5.3027,5.3027,5.3078,5.3399,5.3179,5.279,5.279,5.279,5.279,5.279,5.3129,5.3501,5.3501,5.3501,5.3501,5.3501,5.3501,5.3501,5.3501,5.3501,5.3501,5.3501,5.3501,5.3501,5.3501,5.3501,5.3501,5.3501,5.3501,5.3501,5.3501,5.3501,5.3501,5.3501,5.4027,5.4672,5.5325,5.5961,5.6555,5.7163,5.7188,5.6971,5.65,5.6156,5.5993,5.5993,5.5287,5.5051,5.5341,5.5776,5.6156,5.6482,5.6971,5.7188,3.56,3.565,3.5926,3.6772,3.8725,4.1162,4.4039,4.5799,4.7175,4.8528,4.7834,4.7411,4.8748,4.7902,4.7428,4.8781,4.9001,4.9238,0.0,0.0,0.0,0.0,0.0,0.0,0.0,0.0,0.0,0.0,0.0,0.0,0.0,4.9644,5.0016,5.0084,5.0016,5.0355,5.1099,5.0371,5.0016,5.0101,5.0727,5.0693,5.0135,5.1555,5.2638,5.3399,5.3467,5.3501,5.3501,5.3501,5.3501,5.3501,5.3501,5.3467,5.3298,5.257,5.23,5.23,5.23,5.235,5.2536,5.3264,5.3501,5.3501,5.3501,5.3501,5.3501,5.3501,5.3501,5.3501,5.3501,5.3501,5.3501,5.3501,5.3501,5.3501,5.3501,5.3501,5.3501,5.3501,5.3501,5.3501,5.3501,5.3501,5.3501,5.3501,5.3501,5.3501,5.3501,5.3501,5.3501,5.3501,5.4091,5.4734,5.5355,5.5989,5.6626,5.7181,5.7188,5.7188,5.7188,5.65,5.6102,5.6102,5.545,5.5432,5.6102,5.6102,5.6482,5.7188,5.7188,5.7188,3.56,3.6062,3.6857,3.8176,4.0629,4.3183,4.5043,4.616,4.6887,4.7208,4.7936,4.8629,4.8951,4.8748,4.8629,4.8951,4.9001,0.0,0.0,0.0,0.0,0.0,0.0,0.0,0.0,0.0,0.0,0.0,0.0,0.0,4.9001,4.9154,4.9492,5.0067,4.9543,4.9593,5.0321,4.961,4.9526,0.0,4.9678,4.9695,5.0118,5.1031,5.186,5.2587,5.323,5.3501,5.3501,5.3501,5.3501,5.3501,5.3501,5.3112,5.2536,5.2367,5.23,5.23,5.23,5.2706,5.3281,5.345,5.3501,5.3501,5.3501,5.3501,5.3501,5.3501,5.3501,5.3501,5.3501,5.3501,5.3501,5.3501,5.3501,5.3501,5.3501,5.3501,5.3501,5.3501,5.3501,5.3501,5.3501,5.3501,5.3501,5.3501,5.3501,5.3501,5.3501,5.3501,5.3501,5.3501,5.4506,5.5236,5.5385,5.6375,5.7061,5.7188,5.7188,5.7188,5.7188,5.7025,5.6935,5.6935,5.679,5.6772,5.6935,5.6935,5.7025,5.7188,5.7188,5.7188,3.56,3.618,3.732,3.9512,4.1474,4.3369,4.528,4.6007,4.6363,4.6718,4.797,4.9001,4.9001,4.9001,4.9001,4.9001,0.0,0.0,0.0,0.0,0.0,0.0,0.0,0.0,0.0,0.0,0.0,0.0,0.0,4.9001,4.9001,4.9001,4.934,5.0067,4.9035,4.8832,4.956,4.8494,4.8139,4.8511,4.8122,4.8139,4.8545,4.9661,5.0557,5.1285,5.2063,5.2418,5.2469,5.3213,5.3281,5.2959,5.3348,5.3247,5.2841,5.2435,5.208,5.1775,5.1775,5.2063,5.2469,5.2807,5.3196,5.3501,5.3501,5.3501,5.3501,5.3501,5.3501,5.3501,5.3501,5.3501,5.3501,5.3501,5.3501,5.3501,5.3501,5.3501,5.3501,5.3501,5.3501,5.3501,5.3501,5.3501,5.3501,5.3501,5.3501,5.3501,5.3501,5.3501,5.3501,5.3501,5.4631,5.5385,5.5385,5.6528,5.7188,5.7188,5.7188,5.7188,5.7188,5.7188,5.7188,5.7188,5.7188,5.7188,5.7188,5.7188,5.7188,5.7188,5.7188,5.7188,3.56,3.6366,3.7845,4.0527,4.1847,4.3014,4.5043,4.5618,4.5872,4.6481,4.7682,4.8629,4.8629,4.8629,4.8629,4.8629,0.0,0.0,0.0,0.0,0.0,0.0,0.0,0.0,0.0,0.0,0.0,0.0,0.0,4.8748,4.8629,4.8629,4.89,4.9492,4.8223,4.7804,4.8426,4.709,4.6481,4.6599,4.6599,4.6532,4.6447,4.7682,4.8781,4.9763,5.0507,5.0881,5.1116,5.2401,5.2672,5.2367,5.3044,5.323,5.3044,5.2503,5.1843,5.1185,5.1185,5.1269,5.1488,5.1961,5.257,5.3129,5.3264,5.3298,5.3331,5.3467,5.3501,5.3501,5.3501,5.3501,5.3501,5.3501,5.3501,5.3501,5.3501,5.3501,5.3501,5.3501,5.3501,5.3501,5.3501,5.3501,5.3501,5.3501,5.3501,5.3501,5.3501,5.3501,5.3501,5.3501,5.4631,5.5385,5.5385,5.6528,5.7188,5.7188,5.7188,5.7188,5.7188,5.7188,5.7188,5.7188,5.7188,5.7188,5.7188,5.7188,5.7188,5.7188,5.7188,5.7188,3.56,3.7127,3.9106,4.0781,4.2236,4.3521,4.453,4.5229,4.5737,0.0,4.6515,4.709,4.709,4.709,4.709,0.0,0.0,0.0,0.0,0.0,0.0,0.0,0.0,0.0,0.0,0.0,0.0,0.0,4.8041,4.7784,4.7124,4.709,4.7141,4.7225,4.643,4.6041,4.6143,4.5297,4.5196,4.5855,4.5855,4.55,4.4902,4.5106,4.6278,4.824,4.8984,4.9661,5.0253,5.0456,5.1234,5.2317,5.2418,5.208,5.1589,5.2097,5.1843,5.1185,5.1185,5.164,5.2063,5.1539,5.1437,5.164,5.2283,5.2469,5.2604,5.3315,5.3501,5.3501,5.3501,5.3501,5.3501,5.3501,5.3501,5.3501,5.3501,5.3501,5.3501,5.3501,5.3501,5.3501,5.3501,5.3501,5.3501,5.3501,5.3501,5.3501,5.3501,5.3501,5.3501,5.3501,5.4631,5.5385,5.5385,5.6528,5.7188,5.7188,5.7188,5.7188,5.7188,5.7188,5.7188,5.7188,5.7188,5.7188,5.7188,5.7188,5.7188,5.7188,5.7188,5.7188,3.6648,3.7313,3.8311,4.0629,4.1694,4.2489,4.3656,4.4519,4.5077,4.5077,4.5331,4.5833,4.6633,4.6786,4.6786,0.0,0.0,0.0,0.0,0.0,0.0,0.0,0.0,0.0,0.0,0.0,0.0,0.0,4.7293,4.7141,4.6802,4.6413,4.6363,4.6786,4.5669,4.528,4.5703,4.4987,4.4767,4.5077,4.5077,4.4891,4.4615,4.4615,4.5348,4.6718,4.7445,4.7936,4.8308,4.9137,4.9864,5.049,5.0913,5.1116,5.1251,5.1572,5.1234,5.0591,5.0591,5.0794,5.0997,5.0693,5.0879,5.1268,5.1606,5.1691,5.1775,5.2114,5.252,5.2841,5.2841,5.3162,5.3501,5.3501,5.3501,5.3501,5.3501,5.3501,5.3501,5.3501,5.3501,5.3501,5.3501,5.3501,5.3501,5.3501,5.3501,5.3501,5.3501,5.3501,5.3501,5.3501,5.4596,5.5367,5.5385,5.6528,5.7188,5.7188,5.7188,5.7188,5.7188,5.7188,5.7188,5.7188,5.7188,5.7188,5.7188,5.7188,5.7188,5.7188,5.7188,5.7188,3.6986,3.706,3.7422,4.0003,4.0781,4.1305,4.2794,4.3724,4.4282,0.0,4.4479,4.4953,4.6024,4.6227,4.6227,0.0,0.0,0.0,0.0,0.0,0.0,0.0,0.0,0.0,0.0,0.0,0.0,0.0,4.6515,4.643,4.6244,4.5906,4.5872,4.621,4.5376,4.5043,4.5415,4.4886,4.4615,4.4615,4.4615,4.4615,4.4615,4.4615,4.4919,4.5449,4.5991,4.6346,4.6599,4.7716,4.8392,4.8798,4.9526,5.0152,5.071,5.105,5.0727,5.0084,5.0084,5.0084,5.005,4.9864,5.0185,5.0693,5.0879,5.093,5.1014,5.1386,5.1742,5.2114,5.2503,5.2909,5.3247,5.345,5.3501,5.3501,5.3501,5.3501,5.3501,5.3501,5.3501,5.3501,5.3501,5.3501,5.3501,5.3501,5.3501,5.3501,5.3501,5.3501,5.3501,5.3501,5.4596,5.5349,5.5385,5.6528,5.7188,5.7188,5.7188,5.7188,5.7188,5.7188,5.7188,5.7188,5.7188,5.7188,5.7188,5.7188,5.7188,5.7188,5.7188,5.7213,3.5701,3.6248,3.7168,3.8717,3.9656,4.0553,4.2016,4.2929,4.3443,4.3443,4.4062,4.4632,4.4699,4.4716,0.0,0.0,0.0,0.0,0.0,0.0,0.0,0.0,0.0,0.0,0.0,0.0,0.0,0.0,4.5771,4.5449,4.475,4.5331,4.5399,4.475,4.5314,4.5331,4.4666,4.4632,4.4615,4.4615,4.4615,4.4615,4.4615,4.4615,4.4632,4.4666,4.4699,4.5094,4.5771,4.5838,4.6718,4.8024,4.8781,4.9086,4.9289,5.0661,5.0727,5.0084,5.0084,5.0084,4.9965,4.9289,4.9086,4.9238,4.9949,5.0152,5.0439,5.186,5.1775,5.1606,5.3061,5.2909,5.2553,5.3315,5.3501,5.3501,5.3501,5.3501,5.3501,5.3501,5.3501,5.3501,5.3501,5.3501,5.3501,5.3501,5.3501,5.3501,5.3501,5.3501,5.3501,5.3501,5.4631,5.5385,5.5385,5.6528,5.7188,5.7188,5.7188,5.7188,5.7188,5.7188,5.7188,5.7188,5.7188,5.7188,5.7188,5.7188,5.7188,5.7188,5.7188,5.7282,3.6231,3.6197,3.64,3.7922,3.8853,3.9512,4.0054,4.1474,4.2557,4.21,4.2591,4.3115,4.3115,4.3938,0.0,0.0,0.0,0.0,0.0,0.0,0.0,0.0,0.0,0.0,0.0,0.0,0.0,0.0,0.0,4.5585,4.5314,4.6007,4.6278,4.6007,4.5805,4.5348,4.4615,4.506,4.5314,4.5314,4.5314,4.5314,4.528,4.4835,4.4615,4.4615,4.4615,4.4767,4.4976,4.4976,4.5585,4.6566,4.7293,4.7885,4.8376,4.8886,4.9221,4.9323,4.8849,4.9001,4.9357,4.9086,4.9001,4.9052,4.9306,4.939,4.9509,5.0033,5.0338,5.0727,5.1775,5.2164,5.2503,5.3315,5.3501,5.3501,5.3501,5.3501,5.3501,5.3501,5.3501,5.3501,5.3501,5.3501,5.3501,5.3501,5.3501,5.3501,5.3501,5.3501,5.3501,5.3501,5.4631,5.5367,5.5349,5.6465,5.7188,5.7188,5.7188,5.7188,5.7188,5.7188,5.7188,5.7188,5.7188,5.7188,5.7188,5.7188,5.7188,5.7188,5.7188,5.7264,3.6248,3.6011,3.5904,3.7212,3.7889,3.8335,3.8565,3.9952,4.1119,4.0882,4.1407,4.1999,4.2252,4.3159,0.0,0.0,0.0,0.0,0.0,0.0,0.0,0.0,0.0,0.0,0.0,0.0,0.0,0.0,0.0,0.0,4.5331,4.6024,4.643,4.643,4.5957,4.5348,4.4615,4.5077,4.5331,4.5331,4.5331,4.5331,4.5314,4.4835,4.4615,4.4615,4.4615,4.4615,4.4615,4.4615,4.4902,4.5399,4.6143,4.6887,4.7547,4.7547,4.8156,4.89,4.8173,4.8392,4.9001,4.9001,4.9001,4.9001,4.9001,4.9001,4.9052,4.9306,4.9543,5.0016,5.1251,5.2147,5.2841,5.3382,5.3501,5.3501,5.3501,5.3501,5.3501,5.3501,5.3501,5.3501,5.3501,5.3501,5.3501,5.3501,5.3501,5.3501,5.3501,5.3501,5.3584,5.3783,5.4769,5.5455,5.5623,5.659,5.7188,5.7188,5.7188,5.7188,5.7188,5.7188,5.7188,5.7188,5.7188,5.7188,5.7188,5.7188,5.7188,5.7188,5.7257,5.7363,0.0,0.0,0.0,3.6575,3.6778,3.6998,3.7669,0.0,3.9157,3.9859,4.0578,4.1322,4.2033,4.2168,0.0,0.0,0.0,0.0,0.0,0.0,0.0,0.0,0.0,0.0,0.0,0.0,0.0,0.0,4.4581,4.4615,4.4615,4.5314,4.572,4.5703,4.5703,4.5348,4.4615,4.4632,4.4632,4.4632,4.4632,4.4649,4.4666,4.4632,4.4615,4.4632,4.4615,4.4615,4.4615,4.4615,4.4615,4.4682,4.5415,4.6143,4.6752,4.6752,4.7699,4.8866,4.8108,4.8376,4.9001,4.9001,4.9001,4.9001,4.9001,4.9001,4.9154,4.9864,4.9543,4.9509,5.1708,5.2858,5.3467,5.3501,5.3501,5.3501,5.3501,5.3501,5.3501,5.3501,5.3501,5.3501,5.3501,5.3501,5.3501,5.3501,5.3501,5.3501,5.3501,5.3501,5.3734,5.4345,5.4978,5.5647,5.6257,5.6863,5.7188,5.7188,5.7188,5.7188,5.7188,5.7188,5.7188,5.7188,5.7188,5.7188,5.7188,5.7188,5.7188,5.7206,5.7356,5.7553,3.56,0.0,0.0,0.0,0.0,0.0,0.0,0.0,3.8108,3.7777,3.8294,3.8886,3.9089,0.0,0.0,0.0,0.0,0.0,0.0,0.0,0.0,0.0,0.0,0.0,0.0,0.0,0.0,0.0,4.3972,4.4615,4.4615,4.5805,4.6244,4.572,4.5703,4.5348,4.4615,4.5128,4.5399,4.5399,4.5399,4.5669,4.6143,4.5106,4.4874,4.5365,4.4852,4.4615,4.4615,4.4615,4.4615,4.4682,4.5415,4.5821,4.6007,4.6007,4.6955,4.8105,4.7361,4.7936,4.9001,4.9001,4.9001,4.9001,4.9001,4.9001,4.9035,4.9255,4.9171,4.939,5.1082,5.208,5.279,5.3365,5.3501,5.3501,5.3501,5.3501,5.3501,5.3501,5.3501,5.3501,5.3501,5.3501,5.3501,5.3501,5.3501,5.3501,5.3501,5.3501,5.3734,5.4345,5.4978,5.5647,5.6257,5.6863,5.7188,5.7188,5.7188,5.7188,5.7188,5.7188,5.7188,5.7188,5.7188,5.7188,5.7188,5.7188,5.7257,5.7338,5.7577,5.7721,3.56,3.56,3.56,0.0,0.0,0.0,3.5701,3.6293,3.6924,0.0,3.7127,3.7533,3.7838,0.0,0.0,0.0,0.0,0.0,0.0,0.0,0.0,0.0,0.0,0.0,0.0,4.2286,4.2286,4.2286,4.3115,4.3758,4.4079,4.5517,4.5855,4.479,4.5365,4.5179,4.4113,4.4857,4.5229,4.5229,4.5229,4.5466,4.5838,4.5004,4.4993,4.5686,4.5246,4.5213,4.5512,4.5179,4.4874,4.4649,4.506,4.5432,4.5669,4.5348,4.6177,4.7394,4.6938,4.7564,4.8595,4.89,4.9001,4.9001,4.9001,4.9001,4.9001,4.9001,4.9221,4.9729,5.0913,5.1758,5.2503,5.3315,5.3501,5.3501,5.3501,5.3501,5.3501,5.3501,5.3501,5.3501,5.3501,5.3501,5.3501,5.3501,5.3501,5.3501,5.3501,5.3501,5.3849,5.4703,5.5177,5.5733,5.6608,5.701,5.7188,5.7188,5.7188,5.7188,5.7188,5.7188,5.7188,5.7188,5.7188,5.7232,5.7264,5.7232,5.7307,5.7504,5.7697,5.7815,3.56,3.56,3.56,0.0,0.0,0.0,3.56,3.56,3.5785,0.0,3.6677,3.688,3.7533,0.0,0.0,0.0,0.0,0.0,0.0,0.0,0.0,0.0,0.0,0.0,4.2049,4.2049,4.2049,4.2049,4.2202,4.2625,4.3341,4.479,4.4925,4.3443,4.4823,4.484,4.3274,4.4147,4.4564,4.4479,4.4564,4.4649,4.4733,4.4649,4.5043,4.5821,4.5737,4.6126,4.6735,4.6092,4.5382,4.4716,4.4632,4.4993,4.55,4.4852,4.5495,4.6684,4.6752,4.7293,4.8007,4.8765,4.9001,4.9001,4.9001,4.9001,4.9001,4.9001,4.9475,5.0152,5.0896,5.1572,5.2283,5.3162,5.3365,5.3399,5.3484,5.3501,5.3501,5.3501,5.3501,5.3501,5.3501,5.3501,5.3501,5.3501,5.3501,5.3501,5.3501,5.3501,5.398,5.5266,5.5385,5.5904,5.7112,5.7188,5.7188,5.7188,5.7188,5.7188,5.7188,5.7188,5.7188,5.7188,5.7188,5.7264,5.7381,5.7307,5.7363,5.7625,5.7768,5.7904,0.0,0.0,0.0,0.0,0.0,0.0,3.56,3.56,3.5633,0.0,3.5819,3.587,3.6022,0.0,0.0,0.0,0.0,0.0,0.0,0.0,0.0,0.0,0.0,0.0,4.0536,4.0536,4.0536,4.0536,4.1636,4.2625,4.3341,4.4299,4.4367,4.3426,4.4316,4.4062,4.2523,4.3904,4.4265,4.3656,4.4282,4.4891,4.5466,4.4886,4.5343,4.6549,4.5957,4.6126,4.6786,4.6633,4.6143,4.5432,4.4852,4.4699,4.4818,4.4649,4.5145,4.6007,4.6583,4.7293,4.8007,4.8765,4.9001,4.9001,4.9001,4.9001,4.9001,4.9001,4.9103,4.9373,5.0118,5.0405,5.0862,5.2215,5.2536,5.2706,5.3365,5.3501,5.3501,5.3501,5.3501,5.3501,5.3501,5.3501,5.3501,5.3501,5.3501,5.3501,5.3501,5.3501,5.3963,5.5184,5.5367,5.5904,5.7112,5.7188,5.7188,5.7188,5.7188,5.7188,5.7188,5.7188,5.7188,5.7188,5.7188,5.7213,5.7239,5.7431,5.7601,5.7768,5.7904,5.7973,0.0,0.0,0.0,3.56,0.0,0.0,0.0,3.56,3.56,3.56,3.56,3.56,3.56,0.0,0.0,0.0,0.0,0.0,0.0,0.0,0.0,0.0,0.0,0.0,4.0096,4.0096,4.0096,4.0096,4.1119,4.1914,4.2286,4.3386,4.3487,4.2354,4.342,4.3284,4.1762,4.2861,4.3436,4.3392,4.3809,4.4401,4.5128,4.4784,4.5196,4.6244,4.6244,4.6667,4.7361,4.7361,4.7141,4.6701,4.5585,4.4908,4.4615,4.4615,4.4852,4.5297,4.6413,4.7039,4.753,4.8646,4.9001,4.9001,4.9001,4.9001,4.9001,4.9001,4.9001,4.9171,4.9898,5.0084,5.0371,5.1488,5.2029,5.2418,5.2807,5.3213,5.3501,5.3501,5.3501,5.3501,5.3501,5.3501,5.3501,5.3501,5.3501,5.3501,5.3501,5.3501,5.3963,5.5201,5.5367,5.5904,5.7112,5.7188,5.7188,5.7188,5.7188,5.7188,5.7188,5.7188,5.7188,5.7188,5.7188,5.7282,5.7388,5.7534,5.7649,5.7697,5.7904,5.7997,0.0,0.0,0.0,0.0,0.0,3.56,0.0,0.0,0.0,3.56,3.56,0.0,0.0,0.0,0.0,0.0,0.0,0.0,0.0,0.0,0.0,0.0,0.0,0.0,0.0,4.0096,4.0096,4.0096,4.0781,4.1271,4.1407,4.2692,4.2834,4.166,4.2794,4.2682,4.1221,4.1931,4.2591,4.3172,4.3325,4.3826,4.4615,4.4615,4.4993,4.5737,4.6329,4.709,4.7889,4.7889,4.7804,4.7581,4.6227,4.5331,4.4801,4.4649,4.4615,4.4801,4.6126,4.6583,4.6819,4.8308,4.8883,4.9001,4.9001,4.9001,4.9001,4.9001,4.9001,4.9137,4.9729,4.9881,5.0067,5.0828,5.1555,5.2131,5.2266,5.2942,5.3501,5.3501,5.3501,5.3501,5.3501,5.3501,5.3501,5.3501,5.3501,5.3501,5.3501,5.3618,5.4126,5.5284,5.5502,5.6017,5.7112,5.7188,5.7188,5.7188,5.7188,5.7188,5.7188,5.7188,5.7188,5.7188,5.7188,5.7313,5.7577,5.7601,5.7625,5.7673,5.7904,5.7997,0.0,0.0,0.0,0.0,3.56,0.0,0.0,0.0,3.56,3.56,0.0,0.0,0.0,0.0,0.0,0.0,0.0,0.0,0.0,0.0,0.0,0.0,0.0,0.0,0.0,4.0096,4.0096,4.0096,4.0781,4.1491,4.2134,4.2963,4.3308,4.3156,4.3308,4.2682,4.1221,4.1931,4.2337,4.2422,4.3098,4.3826,4.4615,4.4615,4.4993,4.5703,4.5788,4.6616,4.7889,4.7889,4.7513,4.6836,4.6024,4.5652,4.55,4.4852,4.4615,4.4733,4.5534,4.5821,4.6075,4.7564,4.8477,4.9001,4.9001,4.9001,4.9001,4.9001,4.9001,4.9018,4.9103,4.912,4.9306,5.005,5.0794,5.1522,5.2164,5.2942,5.3501,5.3501,5.3501,5.3501,5.3501,5.3501,5.3501,5.3501,5.3501,5.3501,5.3501,5.3979,5.4579,5.5325,5.5876,5.6474,5.7138,5.7188,5.7188,5.7188,5.7188,5.7188,5.7188,5.7188,5.7188,5.7188,5.7188,5.7264,5.7412,5.7534,5.7721,5.795,5.7997,5.7997,0.0,0.0,0.0,0.0,0.0,0.0,3.6918,0.0,3.6918,0.0,0.0,0.0,0.0,0.0,0.0,0.0,3.7584,0.0,0.0,0.0,0.0,0.0,0.0,0.0,0.0,0.0,0.0,0.0,4.04,4.0679,4.1027,4.2117,4.2574,4.2151,4.254,4.2455,4.183,4.1314,4.1467,4.2286,4.2608,4.3166,4.3927,4.4395,4.4784,4.5077,4.5517,4.6058,4.6701,4.7534,4.7479,4.6752,4.6447,4.5821,4.501,4.4716,4.4615,4.4716,4.5449,4.5703,4.594,4.7415,4.8122,4.846,4.8883,4.9001,4.9001,4.9001,4.9001,4.9001,4.9001,4.9001,4.9086,4.939,5.0355,5.1269,5.1606,5.2638,5.3501,5.3501,5.3501,5.3501,5.3501,5.3501,5.3501,5.3501,5.3501,5.3501,5.3501,5.3734,5.4284,5.5296,5.5618,5.6156,5.7112,5.7188,5.7188,5.7188,5.7188,5.7188,5.7188,5.7188,5.7188,5.7188,5.7188,5.7289,5.7528,5.7577,5.7745,5.7997,5.7997,5.7997,3.7905,0.0,0.0,0.0,0.0,0.0,0.0,0.0,0.0,0.0,0.0,0.0,0.0,0.0,0.0,0.0,0.0,3.892,0.0,0.0,0.0,0.0,0.0,0.0,0.0,0.0,0.0,4.0096,4.0096,4.0282,4.0688,4.1525,4.1931,4.1813,4.2117,4.2286,4.2286,4.1247,4.1247,4.2286,4.2489,4.2777,4.3149,4.413,4.4496,4.4299,4.506,4.5517,4.5788,4.687,4.6989,4.6498,4.6498,4.5703,4.4615,4.4615,4.4615,4.4682,4.5213,4.5534,4.5923,4.7192,4.772,4.8024,4.8781,4.9001,4.9001,4.9001,4.9001,4.9001,4.9001,4.9001,4.9001,4.9001,5.0135,5.1185,5.1185,5.2418,5.3501,5.3501,5.3501,5.3501,5.3501,5.3501,5.3501,5.3501,5.3501,5.3501,5.3501,5.3634,5.4156,5.5249,5.5531,5.6073,5.7112,5.7188,5.7188,5.7188,5.7188,5.7188,5.7188,5.7188,5.7188,5.7188,5.7188,5.7313,5.7601,5.7601,5.7745,5.7997,5.7997,5.7997,0.0,0.0,0.0,3.7905,0.0,0.0,0.0,0.0,3.7905,0.0,0.0,0.0,0.0,0.0,0.0,0.0,0.0,0.0,0.0,0.0,0.0,0.0,0.0,0.0,0.0,0.0,0.0,4.0096,4.0096,4.0722,4.2134,4.1593,4.1897,4.3274,4.2658,4.2286,4.2286,4.2236,4.2236,4.2303,4.3031,4.3014,4.2388,4.3921,4.4181,4.3477,4.4282,4.5026,4.5703,4.5754,4.5771,4.5737,4.5737,4.5263,4.4615,4.4615,4.4615,4.4615,4.4632,4.5094,4.5838,4.6583,4.7327,4.8024,4.8781,4.9001,4.9001,4.9001,4.9001,4.9001,4.9001,4.9001,4.9001,4.9001,5.0135,5.1185,5.1185,5.2418,5.3501,5.3501,5.3501,5.3501,5.3501,5.3501,5.3501,5.3501,5.3501,5.3501,5.3501,5.4011,5.4624,5.5226,5.5869,5.6528,5.7138,5.7188,5.7188,5.7188,5.7188,5.7188,5.7188,5.7188,5.7188,5.7188,5.7188,5.7313,5.7601,5.7601,5.7745,5.7997,5.7997,5.7997,0.0,0.0,3.9368,3.9368,0.0,0.0,0.0,0.0,0.0,0.0,0.0,0.0,0.0,0.0,0.0,0.0,0.0,0.0,0.0,0.0,0.0,0.0,0.0,0.0,0.0,0.0,0.0,4.0062,3.9656,3.9783,4.0807,4.1068,4.166,4.2642,4.2422,4.2777,4.3819,4.2794,4.2286,4.2286,4.254,4.254,4.232,4.3352,4.3944,4.4198,4.4496,4.475,4.4993,4.55,4.5415,4.501,4.5517,4.5246,4.4615,4.4615,4.4615,4.4615,4.4615,4.5077,4.5821,4.6549,4.731,4.8024,4.8781,4.9001,4.9001,4.9001,4.9001,4.9001,4.9001,4.9001,4.9001,4.9001,5.0135,5.1185,5.1185,5.2418,5.3501,5.3501,5.3501,5.3501,5.3501,5.3501,5.3501,5.3501,5.3501,5.3501,5.3501,5.3668,5.4188,5.5249,5.5589,5.6101,5.7112,5.7188,5.7188,5.7188,5.7188,5.7188,5.7188,5.7188,5.7188,5.7188,5.7188,5.7313,5.7601,5.7601,5.7745,5.7997,5.7997,5.7997,4.0096,4.0096,0.0,4.0096,4.0096,0.0,4.0096,0.0,0.0,0.0,0.0,0.0,0.0,0.0,0.0,0.0,0.0,0.0,0.0,3.9876,0.0,0.0,0.0,0.0,0.0,0.0,3.9605,4.0062,3.9673,3.9698,0.0,0.0,4.1255,4.2252,4.2286,4.2895,4.4147,4.3453,4.2828,4.2286,4.2574,4.2422,4.1931,4.2946,4.369,4.4181,4.4496,4.4615,4.4649,4.5111,4.501,4.4649,4.5111,4.501,4.4615,4.4615,4.4615,4.4615,4.4615,4.5077,4.5821,4.6549,4.731,4.8024,4.8781,4.9001,4.9052,4.9323,4.9204,4.9069,4.9323,4.9204,4.9001,4.9001,5.0135,5.1185,5.1185,5.2418,5.3501,5.3501,5.3501,5.3501,5.3501,5.3501,5.3501,5.3501,5.3501,5.3501,5.3501,5.3501,5.3882,5.4935,5.5266,5.5904,5.7112,5.7188,5.7188,5.7188,5.7188,5.7188,5.7188,5.7188,5.746,5.8039,5.7547,5.7654,5.8458,5.7941,5.7768,5.7997,5.7997,5.7997]}]]